Time,TemperatureF,DewpointF,PressureIn,WindDirection,WindDirectionDegrees,WindSpeedMPH,WindSpeedGustMPH,Humidity,HourlyPrecipIn,Conditions,Clouds,dailyrainin,SolarRadiationWatts/m^2,SoftwareType,DateUTC
2013-11-13 00:00:00,36.3,34.7,31.31,NNW,346,0.0,0.0,94,0.00,,,0.00,0.00,VWS V14.00,2013-11-13 07:00:00,
2013-11-13 00:01:00,36.3,34.7,31.30,NNW,346,1.0,2.0,94,0.00,,,0.00,0.00,VWS V14.00,2013-11-13 07:01:00,
2013-11-13 00:02:00,36.3,34.7,31.30,NNW,345,1.0,2.0,94,0.00,,,0.00,0.00,VWS V14.00,2013-11-13 07:02:00,
2013-11-13 00:03:00,36.4,34.8,31.30,NNW,346,1.0,2.0,94,0.00,,,0.00,0.00,VWS V14.00,2013-11-13 07:03:00,
2013-11-13 00:04:00,36.4,34.8,31.30,NNW,346,1.0,2.0,94,0.00,,,0.00,0.00,VWS V14.00,2013-11-13 07:04:00,
2013-11-13 00:05:00,36.5,34.9,31.30,NNW,345,0.0,2.0,94,0.00,,,0.00,0.00,VWS V14.00,2013-11-13 07:05:00,
2013-11-13 00:06:00,36.5,34.9,31.29,NNW,346,1.0,2.0,94,0.00,,,0.00,0.00,VWS V14.00,2013-11-13 07:06:00,
2013-11-13 00:07:00,36.5,34.9,31.29,NNW,346,2.0,4.0,94,0.00,,,0.00,0.00,VWS V14.00,2013-11-13 07:07:00,
2013-11-13 00:08:00,36.6,35.0,31.29,NNW,345,2.0,4.0,94,0.00,,,0.00,0.00,VWS V14.00,2013-11-13 07:08:00,
2013-11-13 00:09:00,36.6,35.0,31.29,NNW,345,0.0,4.0,94,0.00,,,0.00,0.00,VWS V14.00,2013-11-13 07:09:00,
2013-11-13 00:10:00,36.6,35.0,31.29,NNW,346,0.0,4.0,94,0.00,,,0.00,0.00,VWS V14.00,2013-11-13 07:10:00,
2013-11-13 00:11:00,36.6,35.0,31.29,NNW,346,0.0,4.0,94,0.00,,,0.00,0.00,VWS V14.00,2013-11-13 07:11:00,
2013-11-13 00:12:00,36.7,35.1,31.28,NNW,346,0.0,4.0,94,0.00,,,0.00,0.00,VWS V14.00,2013-11-13 07:12:00,
2013-11-13 00:13:00,36.7,35.1,31.28,NNW,345,0.0,4.0,94,0.00,,,0.00,0.00,VWS V14.00,2013-11-13 07:13:00,
2013-11-13 00:14:00,36.8,35.2,31.28,NNW,346,0.0,4.0,94,0.00,,,0.00,0.00,VWS V14.00,2013-11-13 07:14:00,
2013-11-13 00:15:00,36.8,35.2,31.29,NNW,345,0.0,4.0,94,0.00,,,0.00,0.00,VWS V14.00,2013-11-13 07:15:00,
2013-11-13 00:16:00,36.8,35.2,31.29,NNW,346,0.0,0.0,94,0.00,,,0.00,0.00,VWS V14.00,2013-11-13 07:16:00,
2013-11-13 00:17:00,36.8,35.2,31.29,NNW,346,0.0,0.0,94,0.00,,,0.00,0.00,VWS V14.00,2013-11-13 07:17:00,
2013-11-13 00:18:00,36.8,35.2,31.29,NNW,346,0.0,0.0,94,0.00,,,0.00,0.00,VWS V14.00,2013-11-13 07:18:00,
2013-11-13 00:19:00,36.8,35.2,31.29,NNW,345,1.0,3.0,94,0.00,,,0.00,0.00,VWS V14.00,2013-11-13 07:19:00,
2013-11-13 00:20:00,36.8,35.2,31.29,NNW,345,0.0,3.0,94,0.00,,,0.00,0.00,VWS V14.00,2013-11-13 07:20:00,
2013-11-13 00:21:00,36.8,35.2,31.28,NNW,345,0.0,3.0,94,0.00,,,0.00,0.00,VWS V14.00,2013-11-13 07:21:00,
2013-11-13 00:22:00,36.8,35.2,31.28,NNW,346,0.0,3.0,94,0.00,,,0.00,0.00,VWS V14.00,2013-11-13 07:22:00,
2013-11-13 00:23:00,36.8,35.2,31.28,NNW,345,0.0,3.0,94,0.00,,,0.00,0.00,VWS V14.00,2013-11-13 07:23:00,
2013-11-13 00:24:00,36.8,35.2,31.28,NNW,346,0.0,3.0,94,0.00,,,0.00,0.00,VWS V14.00,2013-11-13 07:24:00,
2013-11-13 00:25:00,36.8,35.2,31.28,NNW,346,0.0,3.0,94,0.00,,,0.00,0.00,VWS V14.00,2013-11-13 07:25:00,
2013-11-13 00:26:00,36.8,35.2,31.28,NNW,345,0.0,3.0,94,0.00,,,0.00,0.00,VWS V14.00,2013-11-13 07:26:00,
2013-11-13 00:27:00,36.8,35.2,31.28,NNW,346,0.0,3.0,94,0.00,,,0.00,0.00,VWS V14.00,2013-11-13 07:27:00,
2013-11-13 00:28:00,36.8,35.2,31.28,NNW,345,0.0,3.0,94,0.00,,,0.00,0.00,VWS V14.00,2013-11-13 07:28:00,
2013-11-13 00:29:00,36.8,35.2,31.28,NNW,346,0.0,3.0,94,0.00,,,0.00,0.00,VWS V14.00,2013-11-13 07:29:00,
2013-11-13 00:30:00,36.8,35.2,31.29,NNW,345,0.0,3.0,94,0.00,,,0.00,0.00,VWS V14.00,2013-11-13 07:30:00,
2013-11-13 00:31:00,36.8,35.2,31.28,NNW,346,0.0,0.0,94,0.00,,,0.00,0.00,VWS V14.00,2013-11-13 07:31:00,
2013-11-13 00:32:00,36.8,35.2,31.28,NNW,346,2.0,3.0,94,0.00,,,0.00,0.00,VWS V14.00,2013-11-13 07:32:00,
2013-11-13 00:33:00,36.8,35.2,31.28,NNW,345,2.0,3.0,94,0.00,,,0.00,0.00,VWS V14.00,2013-11-13 07:33:00,
2013-11-13 00:34:00,36.7,35.1,31.28,NNW,345,1.0,3.0,94,0.00,,,0.00,0.00,VWS V14.00,2013-11-13 07:34:00,
2013-11-13 00:35:00,36.7,35.1,31.28,NNW,346,0.0,3.0,94,0.00,,,0.00,0.00,VWS V14.00,2013-11-13 07:35:00,
2013-11-13 00:36:00,36.7,35.1,31.28,NNW,345,0.0,3.0,94,0.00,,,0.00,0.00,VWS V14.00,2013-11-13 07:36:00,
2013-11-13 00:37:00,36.7,35.1,31.28,NNW,345,0.0,3.0,94,0.00,,,0.00,0.00,VWS V14.00,2013-11-13 07:37:00,
2013-11-13 00:38:00,36.7,35.1,31.28,NNW,346,0.0,3.0,94,0.00,,,0.00,0.00,VWS V14.00,2013-11-13 07:38:00,
2013-11-13 00:39:00,36.6,35.0,31.28,NNW,346,0.0,3.0,94,0.00,,,0.00,0.00,VWS V14.00,2013-11-13 07:39:00,
2013-11-13 00:40:00,36.6,35.0,31.28,NNW,345,2.0,3.0,94,0.00,,,0.00,0.00,VWS V14.00,2013-11-13 07:40:00,
2013-11-13 00:41:00,36.6,35.0,31.28,NNW,346,0.0,3.0,94,0.00,,,0.00,0.00,VWS V14.00,2013-11-13 07:41:00,
2013-11-13 00:42:00,36.6,35.0,31.28,NNW,346,2.0,3.0,94,0.00,,,0.00,0.00,VWS V14.00,2013-11-13 07:42:00,
2013-11-13 00:43:00,36.6,35.0,31.28,NNW,345,0.0,3.0,94,0.00,,,0.00,0.00,VWS V14.00,2013-11-13 07:43:00,
2013-11-13 00:44:00,36.6,35.0,31.28,NNW,346,2.0,3.0,94,0.00,,,0.00,0.00,VWS V14.00,2013-11-13 07:44:00,
2013-11-13 00:45:00,36.6,35.0,31.28,NNW,346,2.0,3.0,94,0.00,,,0.00,0.00,VWS V14.00,2013-11-13 07:45:00,
2013-11-13 00:46:00,36.6,35.0,31.28,NNW,345,2.0,2.0,94,0.00,,,0.00,0.00,VWS V14.00,2013-11-13 07:46:00,
2013-11-13 00:47:00,36.6,35.0,31.28,NNW,346,0.0,3.0,94,0.00,,,0.00,0.00,VWS V14.00,2013-11-13 07:47:00,
2013-11-13 00:48:00,36.6,34.8,31.28,NNW,346,0.0,3.0,93,0.00,,,0.00,0.00,VWS V14.00,2013-11-13 07:48:00,
2013-11-13 00:49:00,36.6,34.8,31.28,NNW,345,0.0,3.0,93,0.00,,,0.00,0.00,VWS V14.00,2013-11-13 07:49:00,
2013-11-13 00:50:00,36.6,34.8,31.28,NNW,345,0.0,3.0,93,0.00,,,0.00,0.00,VWS V14.00,2013-11-13 07:50:00,
2013-11-13 00:51:00,36.6,34.8,31.28,NNW,346,0.0,3.0,93,0.00,,,0.00,0.00,VWS V14.00,2013-11-13 07:51:00,
2013-11-13 00:52:00,36.6,34.8,31.28,NNW,346,0.0,3.0,93,0.00,,,0.00,0.00,VWS V14.00,2013-11-13 07:52:00,
2013-11-13 00:53:00,36.6,34.8,31.28,NNW,345,0.0,3.0,93,0.00,,,0.00,0.00,VWS V14.00,2013-11-13 07:53:00,
2013-11-13 00:54:00,36.6,34.8,31.28,NNW,346,0.0,3.0,93,0.00,,,0.00,0.00,VWS V14.00,2013-11-13 07:54:00,
2013-11-13 00:55:00,36.6,34.8,31.28,NNW,346,0.0,3.0,93,0.00,,,0.00,0.00,VWS V14.00,2013-11-13 07:55:00,
2013-11-13 00:56:00,36.7,34.9,31.28,NNW,345,0.0,3.0,93,0.00,,,0.00,0.00,VWS V14.00,2013-11-13 07:56:00,
2013-11-13 00:57:00,36.7,34.9,31.28,NNW,346,1.0,3.0,93,0.00,,,0.00,0.00,VWS V14.00,2013-11-13 07:57:00,
2013-11-13 00:58:00,36.7,34.9,31.28,NNW,346,0.0,3.0,93,0.00,,,0.00,0.00,VWS V14.00,2013-11-13 07:58:00,
2013-11-13 00:59:00,36.7,34.9,31.28,NNW,346,0.0,3.0,93,0.00,,,0.00,0.00,VWS V14.00,2013-11-13 07:59:00,
2013-11-13 01:00:00,36.7,34.9,31.28,NNW,346,0.0,3.0,93,0.00,,,0.00,0.00,VWS V14.00,2013-11-13 08:00:00,
2013-11-13 01:01:00,36.7,34.9,31.28,NNW,346,0.0,0.0,93,0.00,,,0.00,0.00,VWS V14.00,2013-11-13 08:01:00,
2013-11-13 01:02:00,36.8,35.0,31.27,NNW,345,0.0,0.0,93,0.00,,,0.00,0.00,VWS V14.00,2013-11-13 08:02:00,
2013-11-13 01:03:00,36.7,34.9,31.28,NNW,346,0.0,0.0,93,0.00,,,0.00,0.00,VWS V14.00,2013-11-13 08:03:00,
2013-11-13 01:04:00,36.8,35.0,31.28,NNW,346,0.0,0.0,93,0.00,,,0.00,0.00,VWS V14.00,2013-11-13 08:04:00,
2013-11-13 01:05:00,36.8,35.0,31.28,NNW,346,0.0,0.0,93,0.00,,,0.00,0.00,VWS V14.00,2013-11-13 08:05:00,
2013-11-13 01:06:00,36.8,35.0,31.27,NNW,346,0.0,0.0,93,0.00,,,0.00,0.00,VWS V14.00,2013-11-13 08:06:00,
2013-11-13 01:07:00,36.8,35.0,31.27,NNW,346,0.0,0.0,93,0.00,,,0.00,0.00,VWS V14.00,2013-11-13 08:07:00,
2013-11-13 01:08:00,36.8,35.0,31.27,NNW,346,0.0,0.0,93,0.00,,,0.00,0.00,VWS V14.00,2013-11-13 08:08:00,
2013-11-13 01:09:00,36.9,35.1,31.27,NNW,346,0.0,0.0,93,0.00,,,0.00,0.00,VWS V14.00,2013-11-13 08:09:00,
2013-11-13 01:10:00,36.9,35.1,31.27,NNW,346,0.0,0.0,93,0.00,,,0.00,0.00,VWS V14.00,2013-11-13 08:10:00,
2013-11-13 01:11:00,37.0,35.2,31.27,NNW,346,1.0,3.0,93,0.00,,,0.00,0.00,VWS V14.00,2013-11-13 08:11:00,
2013-11-13 01:12:00,37.0,35.2,31.27,NNW,345,4.0,5.0,93,0.00,,,0.00,0.00,VWS V14.00,2013-11-13 08:12:00,
2013-11-13 01:13:00,37.1,35.3,31.27,NNW,346,2.0,5.0,93,0.00,,,0.00,0.00,VWS V14.00,2013-11-13 08:13:00,
2013-11-13 01:14:00,37.1,35.3,31.27,NNW,346,1.0,5.0,93,0.00,,,0.00,0.00,VWS V14.00,2013-11-13 08:14:00,
2013-11-13 01:15:00,37.1,35.3,31.27,NNW,346,2.0,5.0,93,0.00,,,0.00,0.00,VWS V14.00,2013-11-13 08:15:00,
2013-11-13 01:16:00,37.1,35.3,31.27,NNW,345,1.0,3.0,93,0.00,,,0.00,0.00,VWS V14.00,2013-11-13 08:16:00,
2013-11-13 01:17:00,37.1,35.3,31.27,NNW,346,0.0,3.0,93,0.00,,,0.00,0.00,VWS V14.00,2013-11-13 08:17:00,
2013-11-13 01:18:00,37.1,35.3,31.27,NNW,346,3.0,4.0,93,0.00,,,0.00,0.00,VWS V14.00,2013-11-13 08:18:00,
2013-11-13 01:19:00,37.1,35.3,31.27,NNW,346,0.0,4.0,93,0.00,,,0.00,0.00,VWS V14.00,2013-11-13 08:19:00,
2013-11-13 01:20:00,37.1,35.3,31.27,NNW,346,5.0,7.0,93,0.00,,,0.00,0.00,VWS V14.00,2013-11-13 08:20:00,
2013-11-13 01:21:00,37.1,35.3,31.28,NNW,333,6.0,10.0,93,0.00,,,0.00,0.00,VWS V14.00,2013-11-13 08:21:00,
2013-11-13 01:22:00,37.1,35.3,31.28,NNW,329,5.0,10.0,93,0.00,,,0.00,0.00,VWS V14.00,2013-11-13 08:22:00,
2013-11-13 01:23:00,37.1,35.3,31.28,NNW,329,4.0,10.0,93,0.00,,,0.00,0.00,VWS V14.00,2013-11-13 08:23:00,
2013-11-13 01:24:00,37.1,35.3,31.28,NNW,329,3.0,10.0,93,0.00,,,0.00,0.00,VWS V14.00,2013-11-13 08:24:00,
2013-11-13 01:25:00,37.1,35.3,31.28,NNW,329,4.0,10.0,93,0.00,,,0.00,0.00,VWS V14.00,2013-11-13 08:25:00,
2013-11-13 01:26:00,37.1,35.0,31.27,NNW,330,4.0,10.0,92,0.00,,,0.00,0.00,VWS V14.00,2013-11-13 08:26:00,
2013-11-13 01:27:00,37.1,35.0,31.27,NNW,330,3.0,10.0,92,0.00,,,0.00,0.00,VWS V14.00,2013-11-13 08:27:00,
2013-11-13 01:28:00,37.0,34.9,31.27,NNW,330,3.0,10.0,92,0.00,,,0.00,0.00,VWS V14.00,2013-11-13 08:28:00,
2013-11-13 01:29:00,37.0,34.9,31.27,NNW,330,3.0,10.0,92,0.00,,,0.00,0.00,VWS V14.00,2013-11-13 08:29:00,
2013-11-13 01:30:00,37.0,34.9,31.27,NNW,330,2.0,10.0,92,0.00,,,0.00,0.00,VWS V14.00,2013-11-13 08:30:00,
2013-11-13 01:31:00,37.0,34.9,31.27,NNW,330,2.0,4.0,92,0.00,,,0.00,0.00,VWS V14.00,2013-11-13 08:31:00,
2013-11-13 01:32:00,37.0,34.9,31.27,NNW,330,4.0,4.0,92,0.00,,,0.00,0.00,VWS V14.00,2013-11-13 08:32:00,
2013-11-13 01:33:00,36.9,34.8,31.27,NNW,330,4.0,4.0,92,0.00,,,0.00,0.00,VWS V14.00,2013-11-13 08:33:00,
2013-11-13 01:34:00,36.9,34.8,31.28,NNW,330,3.0,4.0,92,0.00,,,0.00,0.00,VWS V14.00,2013-11-13 08:34:00,
2013-11-13 01:35:00,36.9,34.8,31.28,NNW,330,3.0,4.0,92,0.00,,,0.00,0.00,VWS V14.00,2013-11-13 08:35:00,
2013-11-13 01:36:00,36.9,34.8,31.28,NNW,330,2.0,4.0,92,0.00,,,0.00,0.00,VWS V14.00,2013-11-13 08:36:00,
2013-11-13 01:37:00,36.9,34.8,31.28,NNW,330,0.0,4.0,92,0.00,,,0.00,0.00,VWS V14.00,2013-11-13 08:37:00,
2013-11-13 01:38:00,36.9,34.8,31.28,NNW,330,0.0,4.0,92,0.00,,,0.00,0.00,VWS V14.00,2013-11-13 08:38:00,
2013-11-13 01:39:00,36.9,34.8,31.28,NNW,330,0.0,4.0,92,0.00,,,0.00,0.00,VWS V14.00,2013-11-13 08:39:00,
2013-11-13 01:40:00,36.9,34.8,31.28,NNW,330,0.0,4.0,92,0.00,,,0.00,0.00,VWS V14.00,2013-11-13 08:40:00,
2013-11-13 01:41:00,36.9,34.8,31.28,NNW,330,0.0,4.0,92,0.00,,,0.00,0.00,VWS V14.00,2013-11-13 08:41:00,
2013-11-13 01:42:00,36.9,34.8,31.28,NNW,330,0.0,4.0,92,0.00,,,0.00,0.00,VWS V14.00,2013-11-13 08:42:00,
2013-11-13 01:43:00,36.9,34.8,31.28,NNW,330,0.0,4.0,92,0.00,,,0.00,0.00,VWS V14.00,2013-11-13 08:43:00,
2013-11-13 01:44:00,36.9,34.8,31.28,NNW,330,0.0,4.0,92,0.00,,,0.00,0.00,VWS V14.00,2013-11-13 08:44:00,
2013-11-13 01:45:00,36.9,34.8,31.28,NNW,330,0.0,4.0,92,0.00,,,0.00,0.00,VWS V14.00,2013-11-13 08:45:00,
2013-11-13 01:46:00,37.0,34.9,31.28,NNW,330,0.0,0.0,92,0.00,,,0.00,0.00,VWS V14.00,2013-11-13 08:46:00,
2013-11-13 01:47:00,37.0,34.9,31.28,NNW,330,0.0,0.0,92,0.00,,,0.00,0.00,VWS V14.00,2013-11-13 08:47:00,
2013-11-13 01:48:00,37.0,34.9,31.28,NNW,330,0.0,0.0,92,0.00,,,0.00,0.00,VWS V14.00,2013-11-13 08:48:00,
2013-11-13 01:49:00,37.1,35.0,31.28,NNW,330,0.0,0.0,92,0.00,,,0.00,0.00,VWS V14.00,2013-11-13 08:49:00,
2013-11-13 01:50:00,37.1,35.0,31.28,NNW,330,0.0,0.0,92,0.00,,,0.00,0.00,VWS V14.00,2013-11-13 08:50:00,
2013-11-13 01:51:00,37.2,35.1,31.28,NNW,330,0.0,0.0,92,0.00,,,0.00,0.00,VWS V14.00,2013-11-13 08:51:00,
2013-11-13 01:52:00,37.2,35.1,31.28,NNW,330,0.0,0.0,92,0.00,,,0.00,0.00,VWS V14.00,2013-11-13 08:52:00,
2013-11-13 01:53:00,37.3,35.2,31.28,NNW,330,0.0,0.0,92,0.00,,,0.00,0.00,VWS V14.00,2013-11-13 08:53:00,
2013-11-13 01:54:00,37.4,35.3,31.28,NNW,330,0.0,0.0,92,0.00,,,0.00,0.00,VWS V14.00,2013-11-13 08:54:00,
2013-11-13 01:55:00,37.4,35.3,31.27,NNW,330,0.0,0.0,92,0.00,,,0.00,0.00,VWS V14.00,2013-11-13 08:55:00,
2013-11-13 01:56:00,37.5,35.4,31.27,NNW,330,0.0,0.0,92,0.00,,,0.00,0.00,VWS V14.00,2013-11-13 08:56:00,
2013-11-13 01:57:00,37.5,35.4,31.26,NNW,330,0.0,0.0,92,0.00,,,0.00,0.00,VWS V14.00,2013-11-13 08:57:00,
2013-11-13 01:58:00,37.6,35.5,31.26,NNW,330,0.0,0.0,92,0.00,,,0.00,0.00,VWS V14.00,2013-11-13 08:58:00,
2013-11-13 01:59:00,37.7,35.6,31.26,NNW,330,0.0,0.0,92,0.00,,,0.00,0.00,VWS V14.00,2013-11-13 08:59:00,
2013-11-13 02:00:00,37.8,35.7,31.26,NNW,330,0.0,0.0,92,0.00,,,0.00,0.00,VWS V14.00,2013-11-13 09:00:00,
2013-11-13 02:01:00,37.9,35.8,31.25,NNW,330,0.0,0.0,92,0.00,,,0.00,0.00,VWS V14.00,2013-11-13 09:01:00,
2013-11-13 02:02:00,38.0,35.9,31.25,NNW,330,0.0,0.0,92,0.00,,,0.00,0.00,VWS V14.00,2013-11-13 09:02:00,
2013-11-13 02:03:00,38.1,36.0,31.25,NNW,330,0.0,0.0,92,0.00,,,0.00,0.00,VWS V14.00,2013-11-13 09:03:00,
2013-11-13 02:04:00,38.3,36.2,31.25,NNW,330,0.0,0.0,92,0.00,,,0.00,0.00,VWS V14.00,2013-11-13 09:04:00,
2013-11-13 02:05:00,38.4,36.6,31.25,NNW,330,0.0,2.0,93,0.00,,,0.00,0.00,VWS V14.00,2013-11-13 09:05:00,
2013-11-13 02:06:00,38.5,36.4,31.25,NNW,330,0.0,2.0,92,0.00,,,0.00,0.00,VWS V14.00,2013-11-13 09:06:00,
2013-11-13 02:07:00,38.6,36.5,31.25,NNW,330,0.0,2.0,92,0.00,,,0.00,0.00,VWS V14.00,2013-11-13 09:07:00,
2013-11-13 02:08:00,38.6,36.5,31.25,NNW,330,0.0,2.0,92,0.00,,,0.00,0.00,VWS V14.00,2013-11-13 09:08:00,
2013-11-13 02:09:00,38.7,36.6,31.25,NNW,330,0.0,2.0,92,0.00,,,0.00,0.00,VWS V14.00,2013-11-13 09:09:00,
2013-11-13 02:10:00,38.8,36.7,31.25,NNW,330,0.0,2.0,92,0.00,,,0.00,0.00,VWS V14.00,2013-11-13 09:10:00,
2013-11-13 02:11:00,38.9,36.8,31.25,NNW,330,0.0,2.0,92,0.00,,,0.00,0.00,VWS V14.00,2013-11-13 09:11:00,
2013-11-13 02:12:00,39.1,37.0,31.25,NNW,330,0.0,2.0,92,0.00,,,0.00,0.00,VWS V14.00,2013-11-13 09:12:00,
2013-11-13 02:13:00,39.2,37.1,31.25,NNW,330,0.0,2.0,92,0.00,,,0.00,0.00,VWS V14.00,2013-11-13 09:13:00,
2013-11-13 02:14:00,39.3,37.2,31.25,NNW,330,0.0,2.0,92,0.00,,,0.00,0.00,VWS V14.00,2013-11-13 09:14:00,
2013-11-13 02:15:00,39.4,37.3,31.25,NNW,330,0.0,2.0,92,0.00,,,0.00,0.00,VWS V14.00,2013-11-13 09:15:00,
2013-11-13 02:16:00,39.4,37.3,31.25,NNW,330,0.0,0.0,92,0.00,,,0.00,0.00,VWS V14.00,2013-11-13 09:16:00,
2013-11-13 02:17:00,39.5,37.4,31.25,West,268,6.0,10.0,92,0.00,,,0.00,0.00,VWS V14.00,2013-11-13 09:17:00,
2013-11-13 02:18:00,39.5,37.4,31.25,West,267,5.0,10.0,92,0.00,,,0.00,0.00,VWS V14.00,2013-11-13 09:18:00,
2013-11-13 02:19:00,39.5,37.1,31.25,West,260,3.0,10.0,91,0.00,,,0.00,0.00,VWS V14.00,2013-11-13 09:19:00,
2013-11-13 02:20:00,39.5,37.1,31.25,WSW,240,2.0,10.0,91,0.00,,,0.00,0.00,VWS V14.00,2013-11-13 09:20:00,
2013-11-13 02:21:00,39.4,37.0,31.25,WSW,240,0.0,10.0,91,0.00,,,0.00,0.00,VWS V14.00,2013-11-13 09:21:00,
2013-11-13 02:22:00,39.4,36.7,31.26,WSW,240,0.0,10.0,90,0.00,,,0.00,0.00,VWS V14.00,2013-11-13 09:22:00,
2013-11-13 02:23:00,39.4,36.7,31.25,WSW,240,0.0,10.0,90,0.00,,,0.00,0.00,VWS V14.00,2013-11-13 09:23:00,
2013-11-13 02:24:00,39.5,36.8,31.25,WSW,240,0.0,10.0,90,0.00,,,0.00,0.00,VWS V14.00,2013-11-13 09:24:00,
2013-11-13 02:25:00,39.5,36.8,31.24,WSW,240,0.0,10.0,90,0.00,,,0.00,0.00,VWS V14.00,2013-11-13 09:25:00,
2013-11-13 02:26:00,39.5,36.8,31.25,WSW,240,0.0,10.0,90,0.00,,,0.00,0.00,VWS V14.00,2013-11-13 09:26:00,
2013-11-13 02:27:00,39.5,36.8,31.25,WSW,240,2.0,10.0,90,0.00,,,0.00,0.00,VWS V14.00,2013-11-13 09:27:00,
2013-11-13 02:28:00,39.5,36.8,31.25,WSW,245,4.0,10.0,90,0.00,,,0.00,0.00,VWS V14.00,2013-11-13 09:28:00,
2013-11-13 02:29:00,39.5,36.5,31.25,WSW,245,4.0,10.0,89,0.00,,,0.00,0.00,VWS V14.00,2013-11-13 09:29:00,
2013-11-13 02:30:00,39.5,36.5,31.25,WSW,245,0.0,10.0,89,0.00,,,0.00,0.00,VWS V14.00,2013-11-13 09:30:00,
2013-11-13 02:31:00,39.5,36.5,31.25,WSW,245,0.0,0.0,89,0.00,,,0.00,0.00,VWS V14.00,2013-11-13 09:31:00,
2013-11-13 02:32:00,39.5,36.5,31.25,WSW,245,0.0,0.0,89,0.00,,,0.00,0.00,VWS V14.00,2013-11-13 09:32:00,
2013-11-13 02:33:00,39.5,36.5,31.25,WSW,245,0.0,0.0,89,0.00,,,0.00,0.00,VWS V14.00,2013-11-13 09:33:00,
2013-11-13 02:34:00,39.5,36.2,31.25,WSW,245,0.0,0.0,88,0.00,,,0.00,0.00,VWS V14.00,2013-11-13 09:34:00,
2013-11-13 02:35:00,39.4,36.2,31.25,NNW,346,4.0,4.0,88,0.00,,,0.00,0.00,VWS V14.00,2013-11-13 09:35:00,
2013-11-13 02:36:00,39.4,36.2,31.26,NNW,346,3.0,4.0,88,0.00,,,0.00,0.00,VWS V14.00,2013-11-13 09:36:00,
2013-11-13 02:37:00,39.3,36.0,31.26,NNW,346,0.0,4.0,88,0.00,,,0.00,0.00,VWS V14.00,2013-11-13 09:37:00,
2013-11-13 02:38:00,39.2,36.0,31.26,NNW,346,0.0,4.0,88,0.00,,,0.00,0.00,VWS V14.00,2013-11-13 09:38:00,
2013-11-13 02:39:00,39.1,35.8,31.26,NNW,346,0.0,4.0,88,0.00,,,0.00,0.00,VWS V14.00,2013-11-13 09:39:00,
2013-11-13 02:40:00,39.1,35.8,31.26,NNW,346,0.0,4.0,88,0.00,,,0.00,0.00,VWS V14.00,2013-11-13 09:40:00,
2013-11-13 02:41:00,39.1,35.8,31.25,NNW,346,0.0,4.0,88,0.00,,,0.00,0.00,VWS V14.00,2013-11-13 09:41:00,
2013-11-13 02:42:00,39.0,35.8,31.25,NNW,346,0.0,4.0,88,0.00,,,0.00,0.00,VWS V14.00,2013-11-13 09:42:00,
2013-11-13 02:43:00,38.9,35.7,31.25,NNW,346,0.0,4.0,88,0.00,,,0.00,0.00,VWS V14.00,2013-11-13 09:43:00,
2013-11-13 02:44:00,38.9,35.7,31.25,NNW,346,0.0,4.0,88,0.00,,,0.00,0.00,VWS V14.00,2013-11-13 09:44:00,
2013-11-13 02:45:00,38.8,35.6,31.25,NNW,346,0.0,4.0,88,0.00,,,0.00,0.00,VWS V14.00,2013-11-13 09:45:00,
2013-11-13 02:46:00,38.8,35.6,31.25,NNW,346,0.0,0.0,88,0.00,,,0.00,0.00,VWS V14.00,2013-11-13 09:46:00,
2013-11-13 02:47:00,38.7,35.5,31.25,NNW,346,0.0,0.0,88,0.00,,,0.00,0.00,VWS V14.00,2013-11-13 09:47:00,
2013-11-13 02:48:00,38.6,35.4,31.25,NW,321,5.0,6.0,88,0.00,,,0.00,0.00,VWS V14.00,2013-11-13 09:48:00,
2013-11-13 02:49:00,38.6,35.4,31.26,NNW,335,6.0,7.0,88,0.00,,,0.00,0.00,VWS V14.00,2013-11-13 09:49:00,
2013-11-13 02:50:00,38.5,35.3,31.26,North,360,4.0,7.0,88,0.00,,,0.00,0.00,VWS V14.00,2013-11-13 09:50:00,
2013-11-13 02:51:00,38.4,35.2,31.26,North,5,2.0,7.0,88,0.00,,,0.00,0.00,VWS V14.00,2013-11-13 09:51:00,
2013-11-13 02:52:00,38.3,35.1,31.25,North,11,2.0,7.0,88,0.00,,,0.00,0.00,VWS V14.00,2013-11-13 09:52:00,
2013-11-13 02:53:00,38.2,35.0,31.25,North,11,0.0,7.0,88,0.00,,,0.00,0.00,VWS V14.00,2013-11-13 09:53:00,
2013-11-13 02:54:00,38.2,35.0,31.25,NNE,12,0.0,7.0,88,0.00,,,0.00,0.00,VWS V14.00,2013-11-13 09:54:00,
2013-11-13 02:55:00,38.1,34.9,31.25,NNE,12,0.0,7.0,88,0.00,,,0.00,0.00,VWS V14.00,2013-11-13 09:55:00,
2013-11-13 02:56:00,38.0,35.0,31.25,NNE,12,0.0,7.0,89,0.00,,,0.00,0.00,VWS V14.00,2013-11-13 09:56:00,
2013-11-13 02:57:00,38.0,35.0,31.25,North,11,0.0,7.0,89,0.00,,,0.00,0.00,VWS V14.00,2013-11-13 09:57:00,
2013-11-13 02:58:00,38.0,35.0,31.25,North,11,0.0,7.0,89,0.00,,,0.00,0.00,VWS V14.00,2013-11-13 09:58:00,
2013-11-13 02:59:00,37.9,35.0,31.25,NNE,12,0.0,7.0,89,0.00,,,0.00,0.00,VWS V14.00,2013-11-13 09:59:00,
2013-11-13 03:00:00,37.9,35.0,31.25,NNE,12,0.0,7.0,89,0.00,,,0.00,0.00,VWS V14.00,2013-11-13 10:00:00,
2013-11-13 03:01:00,37.9,35.0,31.25,NNW,330,5.0,5.0,89,0.00,,,0.00,0.00,VWS V14.00,2013-11-13 10:01:00,
2013-11-13 03:02:00,37.8,34.9,31.25,North,355,6.0,7.0,89,0.00,,,0.00,0.00,VWS V14.00,2013-11-13 10:02:00,
2013-11-13 03:03:00,37.7,34.8,31.25,North,351,6.0,7.0,89,0.00,,,0.00,0.00,VWS V14.00,2013-11-13 10:03:00,
2013-11-13 03:04:00,37.6,34.7,31.25,NNW,345,3.0,7.0,89,0.00,,,0.00,0.00,VWS V14.00,2013-11-13 10:04:00,
2013-11-13 03:05:00,37.5,34.6,31.25,NNW,340,3.0,7.0,89,0.00,,,0.00,0.00,VWS V14.00,2013-11-13 10:05:00,
2013-11-13 03:06:00,37.4,34.5,31.25,NNW,337,4.0,7.0,89,0.00,,,0.00,0.00,VWS V14.00,2013-11-13 10:06:00,
2013-11-13 03:07:00,37.3,34.4,31.25,North,355,5.0,7.0,89,0.00,,,0.00,0.00,VWS V14.00,2013-11-13 10:07:00,
2013-11-13 03:08:00,37.1,34.2,31.25,North,355,6.0,7.0,89,0.00,,,0.00,0.00,VWS V14.00,2013-11-13 10:08:00,
2013-11-13 03:09:00,37.0,34.1,31.25,NNW,340,4.0,7.0,89,0.00,,,0.00,0.00,VWS V14.00,2013-11-13 10:09:00,
2013-11-13 03:10:00,37.0,34.1,31.25,NW,309,4.0,7.0,89,0.00,,,0.00,0.00,VWS V14.00,2013-11-13 10:10:00,
2013-11-13 03:11:00,36.9,34.0,31.25,NW,317,2.0,7.0,89,0.00,,,0.00,0.00,VWS V14.00,2013-11-13 10:11:00,
2013-11-13 03:12:00,36.8,33.9,31.25,North,355,2.0,7.0,89,0.00,,,0.00,0.00,VWS V14.00,2013-11-13 10:12:00,
2013-11-13 03:13:00,36.8,34.2,31.25,North,360,2.0,7.0,90,0.00,,,0.00,0.00,VWS V14.00,2013-11-13 10:13:00,
2013-11-13 03:14:00,36.7,34.0,31.25,North,360,1.0,7.0,90,0.00,,,0.00,0.00,VWS V14.00,2013-11-13 10:14:00,
2013-11-13 03:15:00,36.7,34.0,31.25,North,360,0.0,7.0,90,0.00,,,0.00,0.00,VWS V14.00,2013-11-13 10:15:00,
2013-11-13 03:16:00,36.7,34.0,31.25,North,360,0.0,0.0,90,0.00,,,0.00,0.00,VWS V14.00,2013-11-13 10:16:00,
2013-11-13 03:17:00,36.7,34.0,31.25,North,360,0.0,0.0,90,0.00,,,0.00,0.00,VWS V14.00,2013-11-13 10:17:00,
2013-11-13 03:18:00,36.7,34.0,31.25,North,360,0.0,0.0,90,0.00,,,0.00,0.00,VWS V14.00,2013-11-13 10:18:00,
2013-11-13 03:19:00,36.7,34.0,31.25,North,360,0.0,0.0,90,0.00,,,0.00,0.00,VWS V14.00,2013-11-13 10:19:00,
2013-11-13 03:20:00,36.7,34.3,31.25,North,360,0.0,0.0,91,0.00,,,0.00,0.00,VWS V14.00,2013-11-13 10:20:00,
2013-11-13 03:21:00,36.7,34.3,31.25,North,360,0.0,0.0,91,0.00,,,0.00,0.00,VWS V14.00,2013-11-13 10:21:00,
2013-11-13 03:22:00,36.7,34.3,31.25,North,360,2.0,4.0,91,0.00,,,0.00,0.00,VWS V14.00,2013-11-13 10:22:00,
2013-11-13 03:23:00,36.8,34.4,31.25,North,360,1.0,5.0,91,0.00,,,0.00,0.00,VWS V14.00,2013-11-13 10:23:00,
2013-11-13 03:24:00,36.8,34.4,31.25,North,360,0.0,5.0,91,0.00,,,0.00,0.00,VWS V14.00,2013-11-13 10:24:00,
2013-11-13 03:25:00,36.8,34.4,31.25,North,360,0.0,5.0,91,0.00,,,0.00,0.00,VWS V14.00,2013-11-13 10:25:00,
2013-11-13 03:26:00,36.8,34.4,31.25,North,360,3.0,5.0,91,0.00,,,0.00,0.00,VWS V14.00,2013-11-13 10:26:00,
2013-11-13 03:27:00,36.8,34.4,31.25,North,360,0.0,5.0,91,0.00,,,0.00,0.00,VWS V14.00,2013-11-13 10:27:00,
2013-11-13 03:28:00,36.8,34.4,31.25,North,360,0.0,5.0,91,0.00,,,0.00,0.00,VWS V14.00,2013-11-13 10:28:00,
2013-11-13 03:29:00,36.9,34.5,31.25,North,360,0.0,5.0,91,0.00,,,0.00,0.00,VWS V14.00,2013-11-13 10:29:00,
2013-11-13 03:30:00,36.9,34.5,31.25,North,360,0.0,5.0,91,0.00,,,0.00,0.00,VWS V14.00,2013-11-13 10:30:00,
2013-11-13 03:31:00,36.9,34.5,31.25,North,360,2.0,3.0,91,0.00,,,0.00,0.00,VWS V14.00,2013-11-13 10:31:00,
2013-11-13 03:32:00,36.9,34.5,31.25,North,360,3.0,4.0,91,0.00,,,0.00,0.00,VWS V14.00,2013-11-13 10:32:00,
2013-11-13 03:33:00,37.0,34.6,31.25,North,360,1.0,4.0,91,0.00,,,0.00,0.00,VWS V14.00,2013-11-13 10:33:00,
2013-11-13 03:34:00,37.0,34.9,31.25,North,360,0.0,4.0,92,0.00,,,0.00,0.00,VWS V14.00,2013-11-13 10:34:00,
2013-11-13 03:35:00,37.0,34.9,31.25,North,360,0.0,4.0,92,0.00,,,0.00,0.00,VWS V14.00,2013-11-13 10:35:00,
2013-11-13 03:36:00,37.0,34.6,31.25,North,360,0.0,4.0,91,0.00,,,0.00,0.00,VWS V14.00,2013-11-13 10:36:00,
2013-11-13 03:37:00,37.0,34.6,31.25,North,360,0.0,4.0,91,0.00,,,0.00,0.00,VWS V14.00,2013-11-13 10:37:00,
2013-11-13 03:38:00,37.0,34.6,31.25,North,360,0.0,4.0,91,0.00,,,0.00,0.00,VWS V14.00,2013-11-13 10:38:00,
2013-11-13 03:39:00,37.0,34.6,31.25,North,360,0.0,4.0,91,0.00,,,0.00,0.00,VWS V14.00,2013-11-13 10:39:00,
2013-11-13 03:40:00,37.0,34.6,31.24,North,360,0.0,4.0,91,0.00,,,0.00,0.00,VWS V14.00,2013-11-13 10:40:00,
2013-11-13 03:41:00,37.1,34.7,31.24,North,360,0.0,4.0,91,0.00,,,0.00,0.00,VWS V14.00,2013-11-13 10:41:00,
2013-11-13 03:42:00,37.1,35.0,31.24,North,360,0.0,4.0,92,0.00,,,0.00,0.00,VWS V14.00,2013-11-13 10:42:00,
2013-11-13 03:43:00,37.1,35.0,31.24,North,360,0.0,4.0,92,0.00,,,0.00,0.00,VWS V14.00,2013-11-13 10:43:00,
2013-11-13 03:44:00,37.2,35.1,31.24,North,360,0.0,4.0,92,0.00,,,0.00,0.00,VWS V14.00,2013-11-13 10:44:00,
2013-11-13 03:45:00,37.2,35.1,31.24,North,360,0.0,4.0,92,0.00,,,0.00,0.00,VWS V14.00,2013-11-13 10:45:00,
2013-11-13 03:46:00,37.3,35.2,31.24,North,360,0.0,0.0,92,0.00,,,0.00,0.00,VWS V14.00,2013-11-13 10:46:00,
2013-11-13 03:47:00,37.3,35.2,31.23,North,360,0.0,0.0,92,0.00,,,0.00,0.00,VWS V14.00,2013-11-13 10:47:00,
2013-11-13 03:48:00,37.4,35.3,31.23,North,360,0.0,0.0,92,0.00,,,0.00,0.00,VWS V14.00,2013-11-13 10:48:00,
2013-11-13 03:49:00,37.4,35.3,31.23,North,360,0.0,0.0,92,0.00,,,0.00,0.00,VWS V14.00,2013-11-13 10:49:00,
2013-11-13 03:50:00,37.5,35.4,31.23,North,360,0.0,0.0,92,0.00,,,0.00,0.00,VWS V14.00,2013-11-13 10:50:00,
2013-11-13 03:51:00,37.6,35.5,31.23,North,360,0.0,0.0,92,0.00,,,0.00,0.00,VWS V14.00,2013-11-13 10:51:00,
2013-11-13 03:52:00,37.7,35.6,31.23,North,360,0.0,0.0,92,0.00,,,0.00,0.00,VWS V14.00,2013-11-13 10:52:00,
2013-11-13 03:53:00,37.7,35.6,31.22,North,360,0.0,0.0,92,0.00,,,0.00,0.00,VWS V14.00,2013-11-13 10:53:00,
2013-11-13 03:54:00,37.7,35.6,31.23,North,360,0.0,0.0,92,0.00,,,0.00,0.00,VWS V14.00,2013-11-13 10:54:00,
2013-11-13 03:55:00,37.8,35.7,31.23,West,262,9.0,9.0,92,0.00,,,0.00,0.00,VWS V14.00,2013-11-13 10:55:00,
2013-11-13 03:56:00,37.9,35.8,31.23,West,278,6.0,9.0,92,0.00,,,0.00,0.00,VWS V14.00,2013-11-13 10:56:00,
2013-11-13 03:57:00,38.0,35.9,31.23,WNW,284,6.0,9.0,92,0.00,,,0.00,0.00,VWS V14.00,2013-11-13 10:57:00,
2013-11-13 03:58:00,38.0,35.9,31.23,West,279,4.0,9.0,92,0.00,,,0.00,0.00,VWS V14.00,2013-11-13 10:58:00,
2013-11-13 03:59:00,38.0,35.9,31.23,West,269,3.0,9.0,92,0.00,,,0.00,0.00,VWS V14.00,2013-11-13 10:59:00,
2013-11-13 04:00:00,38.0,35.9,31.23,West,270,3.0,9.0,92,0.00,,,0.00,0.00,VWS V14.00,2013-11-13 11:00:00,
2013-11-13 04:01:00,37.9,35.5,31.22,West,270,1.0,3.0,91,0.00,,,0.00,0.00,VWS V14.00,2013-11-13 11:01:00,
2013-11-13 04:02:00,37.9,35.5,31.23,West,269,2.0,3.0,91,0.00,,,0.00,0.00,VWS V14.00,2013-11-13 11:02:00,
2013-11-13 04:03:00,37.9,35.5,31.23,West,280,3.0,4.0,91,0.00,,,0.00,0.00,VWS V14.00,2013-11-13 11:03:00,
2013-11-13 04:04:00,37.8,35.4,31.23,NW,311,6.0,9.0,91,0.00,,,0.00,0.00,VWS V14.00,2013-11-13 11:04:00,
2013-11-13 04:05:00,37.7,35.3,31.23,WNW,294,8.0,9.0,91,0.00,,,0.00,0.00,VWS V14.00,2013-11-13 11:05:00,
2013-11-13 04:06:00,37.7,35.3,31.24,WNW,293,5.0,9.0,91,0.00,,,0.00,0.00,VWS V14.00,2013-11-13 11:06:00,
2013-11-13 04:07:00,37.6,35.2,31.24,WNW,294,1.0,9.0,91,0.00,,,0.00,0.00,VWS V14.00,2013-11-13 11:07:00,
2013-11-13 04:08:00,37.5,35.1,31.24,WNW,294,0.0,9.0,91,0.00,,,0.00,0.00,VWS V14.00,2013-11-13 11:08:00,
2013-11-13 04:09:00,37.5,35.1,31.24,WNW,298,4.0,9.0,91,0.00,,,0.00,0.00,VWS V14.00,2013-11-13 11:09:00,
2013-11-13 04:10:00,37.4,35.0,31.24,NW,308,6.0,9.0,91,0.00,,,0.00,0.00,VWS V14.00,2013-11-13 11:10:00,
2013-11-13 04:11:00,37.3,34.6,31.24,WNW,292,6.0,9.0,90,0.00,,,0.00,0.00,VWS V14.00,2013-11-13 11:11:00,
2013-11-13 04:12:00,37.3,34.6,31.24,WNW,302,2.0,9.0,90,0.00,,,0.00,0.00,VWS V14.00,2013-11-13 11:12:00,
2013-11-13 04:13:00,37.2,34.5,31.24,WNW,302,0.0,9.0,90,0.00,,,0.00,0.00,VWS V14.00,2013-11-13 11:13:00,
2013-11-13 04:14:00,37.2,34.8,31.24,WNW,302,0.0,9.0,91,0.00,,,0.00,0.00,VWS V14.00,2013-11-13 11:14:00,
2013-11-13 04:15:00,37.2,34.8,31.24,WNW,302,2.0,9.0,91,0.00,,,0.00,0.00,VWS V14.00,2013-11-13 11:15:00,
2013-11-13 04:16:00,37.1,34.7,31.24,WNW,302,0.0,2.0,91,0.00,,,0.00,0.00,VWS V14.00,2013-11-13 11:16:00,
2013-11-13 04:17:00,37.1,34.7,31.24,WNW,302,0.0,2.0,91,0.00,,,0.00,0.00,VWS V14.00,2013-11-13 11:17:00,
2013-11-13 04:18:00,37.1,34.7,31.24,WNW,302,0.0,2.0,91,0.00,,,0.00,0.00,VWS V14.00,2013-11-13 11:18:00,
2013-11-13 04:19:00,37.0,34.6,31.24,WNW,302,0.0,2.0,91,0.00,,,0.00,0.00,VWS V14.00,2013-11-13 11:19:00,
2013-11-13 04:20:00,37.0,34.6,31.24,NW,309,3.0,3.0,91,0.00,,,0.00,0.00,VWS V14.00,2013-11-13 11:20:00,
2013-11-13 04:21:00,37.0,34.6,31.24,NNW,335,1.0,5.0,91,0.00,,,0.00,0.00,VWS V14.00,2013-11-13 11:21:00,
2013-11-13 04:22:00,37.0,34.6,31.24,NNW,335,0.0,5.0,91,0.00,,,0.00,0.00,VWS V14.00,2013-11-13 11:22:00,
2013-11-13 04:23:00,37.0,34.6,31.24,NNW,335,0.0,5.0,91,0.00,,,0.00,0.00,VWS V14.00,2013-11-13 11:23:00,
2013-11-13 04:24:00,36.9,34.5,31.24,NNW,335,0.0,5.0,91,0.00,,,0.00,0.00,VWS V14.00,2013-11-13 11:24:00,
2013-11-13 04:25:00,36.9,34.5,31.24,NNW,335,0.0,5.0,91,0.00,,,0.00,0.00,VWS V14.00,2013-11-13 11:25:00,
2013-11-13 04:26:00,36.9,34.5,31.24,NNW,335,0.0,5.0,91,0.00,,,0.00,0.00,VWS V14.00,2013-11-13 11:26:00,
2013-11-13 04:27:00,36.8,34.4,31.24,NNW,335,0.0,5.0,91,0.00,,,0.00,0.00,VWS V14.00,2013-11-13 11:27:00,
2013-11-13 04:28:00,36.8,34.4,31.23,NNW,334,0.0,5.0,91,0.00,,,0.00,0.00,VWS V14.00,2013-11-13 11:28:00,
2013-11-13 04:29:00,36.8,34.4,31.23,NNW,335,0.0,5.0,91,0.00,,,0.00,0.00,VWS V14.00,2013-11-13 11:29:00,
2013-11-13 04:30:00,36.8,34.4,31.24,NNW,335,0.0,5.0,91,0.00,,,0.00,0.00,VWS V14.00,2013-11-13 11:30:00,
2013-11-13 04:31:00,36.8,34.4,31.23,NNW,335,0.0,0.0,91,0.00,,,0.00,0.00,VWS V14.00,2013-11-13 11:31:00,
2013-11-13 04:32:00,36.8,34.4,31.24,NNW,334,0.0,0.0,91,0.00,,,0.00,0.00,VWS V14.00,2013-11-13 11:32:00,
2013-11-13 04:33:00,36.7,34.6,31.24,NNW,334,0.0,0.0,92,0.00,,,0.00,0.00,VWS V14.00,2013-11-13 11:33:00,
2013-11-13 04:34:00,36.7,34.6,31.23,NNW,335,0.0,0.0,92,0.00,,,0.00,0.00,VWS V14.00,2013-11-13 11:34:00,
2013-11-13 04:35:00,36.7,34.6,31.23,NNW,335,0.0,0.0,92,0.00,,,0.00,0.00,VWS V14.00,2013-11-13 11:35:00,
2013-11-13 04:36:00,36.7,34.6,31.23,NNW,335,0.0,0.0,92,0.00,,,0.00,0.00,VWS V14.00,2013-11-13 11:36:00,
2013-11-13 04:37:00,36.7,34.3,31.23,NNW,334,0.0,0.0,91,0.00,,,0.00,0.00,VWS V14.00,2013-11-13 11:37:00,
2013-11-13 04:38:00,36.6,34.5,31.23,NNW,335,0.0,0.0,92,0.00,,,0.00,0.00,VWS V14.00,2013-11-13 11:38:00,
2013-11-13 04:39:00,36.6,34.5,31.24,NNW,335,0.0,0.0,92,0.00,,,0.00,0.00,VWS V14.00,2013-11-13 11:39:00,
2013-11-13 04:40:00,36.6,34.5,31.24,NNW,335,0.0,0.0,92,0.00,,,0.00,0.00,VWS V14.00,2013-11-13 11:40:00,
2013-11-13 04:41:00,36.7,34.6,31.23,NNW,335,0.0,0.0,92,0.00,,,0.00,0.00,VWS V14.00,2013-11-13 11:41:00,
2013-11-13 04:42:00,36.8,34.7,31.23,NNW,334,0.0,0.0,92,0.00,,,0.00,0.00,VWS V14.00,2013-11-13 11:42:00,
2013-11-13 04:43:00,36.8,34.7,31.24,NNW,334,0.0,0.0,92,0.00,,,0.00,0.00,VWS V14.00,2013-11-13 11:43:00,
2013-11-13 04:44:00,36.8,34.7,31.24,NNW,335,0.0,0.0,92,0.00,,,0.00,0.00,VWS V14.00,2013-11-13 11:44:00,
2013-11-13 04:45:00,36.8,34.7,31.24,NNW,335,0.0,0.0,92,0.00,,,0.00,0.00,VWS V14.00,2013-11-13 11:45:00,
2013-11-13 04:46:00,36.8,34.7,31.23,NNW,335,0.0,0.0,92,0.00,,,0.00,0.00,VWS V14.00,2013-11-13 11:46:00,
2013-11-13 04:47:00,36.9,34.8,31.24,NNW,334,0.0,0.0,92,0.00,,,0.00,0.00,VWS V14.00,2013-11-13 11:47:00,
2013-11-13 04:48:00,36.9,34.8,31.24,NNW,335,0.0,0.0,92,0.00,,,0.00,0.00,VWS V14.00,2013-11-13 11:48:00,
2013-11-13 04:49:00,37.0,34.9,31.23,NNW,335,0.0,0.0,92,0.00,,,0.00,0.00,VWS V14.00,2013-11-13 11:49:00,
2013-11-13 04:50:00,37.1,35.0,31.24,NNW,335,0.0,0.0,92,0.00,,,0.00,0.00,VWS V14.00,2013-11-13 11:50:00,
2013-11-13 04:51:00,37.2,35.4,31.24,NNW,335,0.0,0.0,93,0.00,,,0.00,0.00,VWS V14.00,2013-11-13 11:51:00,
2013-11-13 04:52:00,37.2,35.4,31.24,NNW,335,0.0,0.0,93,0.00,,,0.00,0.00,VWS V14.00,2013-11-13 11:52:00,
2013-11-13 04:53:00,37.3,35.5,31.24,NNW,334,0.0,0.0,93,0.00,,,0.00,0.00,VWS V14.00,2013-11-13 11:53:00,
2013-11-13 04:54:00,37.3,35.5,31.24,NNW,335,0.0,0.0,93,0.00,,,0.00,0.00,VWS V14.00,2013-11-13 11:54:00,
2013-11-13 04:55:00,37.3,35.5,31.24,NNW,334,0.0,0.0,93,0.00,,,0.00,0.00,VWS V14.00,2013-11-13 11:55:00,
2013-11-13 04:56:00,37.4,35.6,31.24,NNW,334,0.0,0.0,93,0.00,,,0.00,0.00,VWS V14.00,2013-11-13 11:56:00,
2013-11-13 04:57:00,37.4,35.6,31.24,NNW,335,0.0,0.0,93,0.00,,,0.00,0.00,VWS V14.00,2013-11-13 11:57:00,
2013-11-13 04:58:00,37.5,35.7,31.24,NNW,335,0.0,0.0,93,0.00,,,0.00,0.00,VWS V14.00,2013-11-13 11:58:00,
2013-11-13 04:59:00,37.5,35.7,31.24,NNW,335,0.0,0.0,93,0.00,,,0.00,0.00,VWS V14.00,2013-11-13 11:59:00,
2013-11-13 05:00:00,37.6,35.8,31.24,NNW,335,0.0,0.0,93,0.00,,,0.00,0.00,VWS V14.00,2013-11-13 12:00:00,
2013-11-13 05:01:00,37.7,35.9,31.23,NNW,334,0.0,0.0,93,0.01,,,0.01,0.00,VWS V14.00,2013-11-13 12:01:00,
2013-11-13 05:02:00,37.8,36.0,31.23,NNW,334,0.0,0.0,93,0.01,,,0.01,0.00,VWS V14.00,2013-11-13 12:02:00,
2013-11-13 05:03:00,37.9,36.1,31.23,NNW,335,0.0,0.0,93,0.01,,,0.01,0.00,VWS V14.00,2013-11-13 12:03:00,
2013-11-13 05:04:00,37.9,36.1,31.23,NNW,335,0.0,0.0,93,0.01,,,0.01,0.00,VWS V14.00,2013-11-13 12:04:00,
2013-11-13 05:05:00,38.0,36.2,31.23,NNW,335,0.0,0.0,93,0.01,,,0.01,0.00,VWS V14.00,2013-11-13 12:05:00,
2013-11-13 05:06:00,38.1,36.3,31.23,NNW,334,0.0,0.0,93,0.01,,,0.01,0.00,VWS V14.00,2013-11-13 12:06:00,
2013-11-13 05:07:00,38.2,36.4,31.23,NNW,335,0.0,0.0,93,0.01,,,0.01,0.00,VWS V14.00,2013-11-13 12:07:00,
2013-11-13 05:08:00,38.2,36.4,31.23,NNW,335,0.0,0.0,93,0.01,,,0.01,0.00,VWS V14.00,2013-11-13 12:08:00,
2013-11-13 05:09:00,38.2,36.4,31.23,NNW,335,0.0,0.0,93,0.01,,,0.01,0.00,VWS V14.00,2013-11-13 12:09:00,
2013-11-13 05:10:00,38.3,36.5,31.23,NNW,334,0.0,0.0,93,0.01,,,0.01,0.00,VWS V14.00,2013-11-13 12:10:00,
2013-11-13 05:11:00,38.3,36.5,31.23,NNW,335,0.0,0.0,93,0.01,,,0.01,0.00,VWS V14.00,2013-11-13 12:11:00,
2013-11-13 05:12:00,38.3,36.5,31.23,NNW,335,0.0,0.0,93,0.01,,,0.01,0.00,VWS V14.00,2013-11-13 12:12:00,
2013-11-13 05:13:00,38.3,36.5,31.23,NNW,334,0.0,0.0,93,0.01,,,0.01,0.00,VWS V14.00,2013-11-13 12:13:00,
2013-11-13 05:14:00,38.4,36.6,31.22,NNW,334,0.0,0.0,93,0.01,,,0.01,0.00,VWS V14.00,2013-11-13 12:14:00,
2013-11-13 05:15:00,38.4,36.6,31.22,NNW,335,0.0,0.0,93,0.01,,,0.01,0.00,VWS V14.00,2013-11-13 12:15:00,
2013-11-13 05:16:00,38.5,36.7,31.22,NNW,334,0.0,0.0,93,0.01,,,0.01,0.00,VWS V14.00,2013-11-13 12:16:00,
2013-11-13 05:17:00,38.5,36.7,31.22,NNW,335,0.0,0.0,93,0.01,,,0.01,0.00,VWS V14.00,2013-11-13 12:17:00,
2013-11-13 05:18:00,38.5,36.7,31.22,NNW,334,0.0,0.0,93,0.01,,,0.01,0.00,VWS V14.00,2013-11-13 12:18:00,
2013-11-13 05:19:00,38.5,36.7,31.22,NNW,335,0.0,0.0,93,0.01,,,0.01,0.00,VWS V14.00,2013-11-13 12:19:00,
2013-11-13 05:20:00,38.5,36.4,31.22,NNW,335,0.0,0.0,92,0.01,,,0.01,0.00,VWS V14.00,2013-11-13 12:20:00,
2013-11-13 05:21:00,38.5,36.7,31.22,NNW,335,0.0,0.0,93,0.01,,,0.01,0.00,VWS V14.00,2013-11-13 12:21:00,
2013-11-13 05:22:00,38.5,36.7,31.22,NNW,335,0.0,0.0,93,0.01,,,0.01,0.00,VWS V14.00,2013-11-13 12:22:00,
2013-11-13 05:23:00,38.5,36.7,31.22,NNW,335,0.0,0.0,93,0.01,,,0.01,0.00,VWS V14.00,2013-11-13 12:23:00,
2013-11-13 05:24:00,38.5,36.4,31.22,NNW,334,0.0,0.0,92,0.01,,,0.01,0.00,VWS V14.00,2013-11-13 12:24:00,
2013-11-13 05:25:00,38.5,36.4,31.22,NNW,335,4.0,4.0,92,0.01,,,0.01,0.00,VWS V14.00,2013-11-13 12:25:00,
2013-11-13 05:26:00,38.5,36.4,31.22,NNW,335,2.0,5.0,92,0.01,,,0.01,0.00,VWS V14.00,2013-11-13 12:26:00,
2013-11-13 05:27:00,38.4,36.3,31.22,NNW,335,0.0,5.0,92,0.01,,,0.01,0.00,VWS V14.00,2013-11-13 12:27:00,
2013-11-13 05:28:00,38.4,36.3,31.22,NNW,334,0.0,5.0,92,0.01,,,0.01,0.00,VWS V14.00,2013-11-13 12:28:00,
2013-11-13 05:29:00,38.3,36.2,31.22,NNW,335,1.0,5.0,92,0.01,,,0.01,0.00,VWS V14.00,2013-11-13 12:29:00,
2013-11-13 05:30:00,38.2,35.8,31.23,WNW,294,5.0,7.0,91,0.01,,,0.01,0.00,VWS V14.00,2013-11-13 12:30:00,
2013-11-13 05:31:00,38.0,35.6,31.23,WNW,294,6.0,10.0,91,0.01,,,0.01,0.00,VWS V14.00,2013-11-13 12:31:00,
2013-11-13 05:32:00,37.9,35.2,31.23,WNW,294,0.0,10.0,90,0.01,,,0.01,0.00,VWS V14.00,2013-11-13 12:32:00,
2013-11-13 05:33:00,37.7,35.0,31.23,WNW,285,0.0,10.0,90,0.01,,,0.01,0.00,VWS V14.00,2013-11-13 12:33:00,
2013-11-13 05:34:00,37.6,34.9,31.24,WNW,284,4.0,10.0,90,0.01,,,0.01,0.00,VWS V14.00,2013-11-13 12:34:00,
2013-11-13 05:35:00,37.4,34.7,31.24,NW,313,5.0,10.0,90,0.01,,,0.01,0.00,VWS V14.00,2013-11-13 12:35:00,
2013-11-13 05:36:00,37.3,34.4,31.25,NW,313,3.0,10.0,89,0.01,,,0.01,0.00,VWS V14.00,2013-11-13 12:36:00,
2013-11-13 05:37:00,37.1,34.2,31.25,NW,306,4.0,10.0,89,0.01,,,0.01,0.00,VWS V14.00,2013-11-13 12:37:00,
2013-11-13 05:38:00,37.0,34.1,31.25,NW,304,4.0,10.0,89,0.01,,,0.01,0.00,VWS V14.00,2013-11-13 12:38:00,
2013-11-13 05:39:00,36.9,34.2,31.25,WNW,303,0.0,10.0,90,0.01,,,0.01,0.00,VWS V14.00,2013-11-13 12:39:00,
2013-11-13 05:40:00,36.8,34.2,31.24,NW,304,0.0,10.0,90,0.01,,,0.01,0.00,VWS V14.00,2013-11-13 12:40:00,
2013-11-13 05:41:00,36.8,34.2,31.24,NW,304,0.0,10.0,90,0.01,,,0.01,0.00,VWS V14.00,2013-11-13 12:41:00,
2013-11-13 05:42:00,36.8,34.2,31.24,NW,304,0.0,10.0,90,0.01,,,0.01,0.00,VWS V14.00,2013-11-13 12:42:00,
2013-11-13 05:43:00,36.7,34.0,31.24,NW,304,0.0,10.0,90,0.01,,,0.01,0.00,VWS V14.00,2013-11-13 12:43:00,
2013-11-13 05:44:00,36.6,34.0,31.24,WNW,303,2.0,10.0,90,0.01,,,0.01,0.00,VWS V14.00,2013-11-13 12:44:00,
2013-11-13 05:45:00,36.6,34.0,31.23,NW,304,0.0,10.0,90,0.01,,,0.01,0.00,VWS V14.00,2013-11-13 12:45:00,
2013-11-13 05:46:00,36.5,33.8,31.23,NW,304,0.0,0.0,90,0.01,,,0.01,0.00,VWS V14.00,2013-11-13 12:46:00,
2013-11-13 05:47:00,36.5,33.8,31.23,NW,304,0.0,0.0,90,0.01,,,0.01,0.00,VWS V14.00,2013-11-13 12:47:00,
2013-11-13 05:48:00,36.4,33.8,31.23,WNW,303,0.0,0.0,90,0.01,,,0.01,0.00,VWS V14.00,2013-11-13 12:48:00,
2013-11-13 05:49:00,36.3,33.7,31.23,NW,304,0.0,0.0,90,0.01,,,0.01,0.00,VWS V14.00,2013-11-13 12:49:00,
2013-11-13 05:50:00,36.3,33.7,31.23,NW,304,0.0,0.0,90,0.01,,,0.01,0.00,VWS V14.00,2013-11-13 12:50:00,
2013-11-13 05:51:00,36.3,33.9,31.23,WNW,303,0.0,0.0,91,0.01,,,0.01,0.00,VWS V14.00,2013-11-13 12:51:00,
2013-11-13 05:52:00,36.2,33.8,31.23,WNW,303,0.0,0.0,91,0.01,,,0.01,0.00,VWS V14.00,2013-11-13 12:52:00,
2013-11-13 05:53:00,36.2,33.8,31.23,NW,304,0.0,0.0,91,0.01,,,0.01,0.00,VWS V14.00,2013-11-13 12:53:00,
2013-11-13 05:54:00,36.2,33.8,31.23,NW,304,0.0,0.0,91,0.01,,,0.01,0.00,VWS V14.00,2013-11-13 12:54:00,
2013-11-13 05:55:00,36.1,33.7,31.23,NW,304,0.0,0.0,91,0.01,,,0.01,0.00,VWS V14.00,2013-11-13 12:55:00,
2013-11-13 05:56:00,36.1,33.7,31.23,NW,304,0.0,0.0,91,0.01,,,0.01,0.00,VWS V14.00,2013-11-13 12:56:00,
2013-11-13 05:57:00,36.0,33.6,31.23,WNW,303,0.0,0.0,91,0.01,,,0.01,0.00,VWS V14.00,2013-11-13 12:57:00,
2013-11-13 05:58:00,36.0,33.6,31.23,WNW,303,0.0,0.0,91,0.01,,,0.01,0.00,VWS V14.00,2013-11-13 12:58:00,
2013-11-13 05:59:00,35.9,33.5,31.23,NW,304,0.0,0.0,91,0.01,,,0.01,0.00,VWS V14.00,2013-11-13 12:59:00,
2013-11-13 06:00:00,35.9,33.5,31.23,WNW,303,0.0,0.0,91,0.01,,,0.01,0.00,VWS V14.00,2013-11-13 13:00:00,
2013-11-13 06:01:00,35.9,33.5,31.24,WNW,288,6.0,6.0,91,0.01,,,0.01,0.00,VWS V14.00,2013-11-13 13:01:00,
2013-11-13 06:02:00,35.9,33.5,31.24,WNW,287,2.0,6.0,91,0.01,,,0.01,0.00,VWS V14.00,2013-11-13 13:02:00,
2013-11-13 06:03:00,35.9,33.5,31.25,WNW,287,0.0,6.0,91,0.01,,,0.01,0.00,VWS V14.00,2013-11-13 13:03:00,
2013-11-13 06:04:00,35.8,33.4,31.25,WNW,287,0.0,6.0,91,0.01,,,0.01,0.00,VWS V14.00,2013-11-13 13:04:00,
2013-11-13 06:05:00,35.8,33.4,31.25,WNW,287,0.0,6.0,91,0.01,,,0.01,0.00,VWS V14.00,2013-11-13 13:05:00,
2013-11-13 06:06:00,35.8,33.4,31.24,WNW,287,0.0,6.0,91,0.01,,,0.01,0.00,VWS V14.00,2013-11-13 13:06:00,
2013-11-13 06:07:00,35.8,33.4,31.24,WNW,287,0.0,6.0,91,0.01,,,0.01,0.00,VWS V14.00,2013-11-13 13:07:00,
2013-11-13 06:08:00,35.8,33.4,31.23,WNW,287,0.0,6.0,91,0.01,,,0.01,0.00,VWS V14.00,2013-11-13 13:08:00,
2013-11-13 06:09:00,35.8,33.7,31.23,WNW,287,0.0,6.0,92,0.01,,,0.01,0.00,VWS V14.00,2013-11-13 13:09:00,
2013-11-13 06:10:00,35.8,33.7,31.23,WNW,287,0.0,6.0,92,0.01,,,0.01,0.00,VWS V14.00,2013-11-13 13:10:00,
2013-11-13 06:11:00,35.8,33.7,31.23,WNW,287,3.0,6.0,92,0.01,,,0.01,0.00,VWS V14.00,2013-11-13 13:11:00,
2013-11-13 06:12:00,35.8,33.7,31.24,West,272,3.0,6.0,92,0.01,,,0.01,0.00,VWS V14.00,2013-11-13 13:12:00,
2013-11-13 06:13:00,35.7,33.6,31.23,West,272,2.0,6.0,92,0.01,,,0.01,0.00,VWS V14.00,2013-11-13 13:13:00,
2013-11-13 06:14:00,35.7,33.6,31.24,West,272,1.0,6.0,92,0.01,,,0.01,0.00,VWS V14.00,2013-11-13 13:14:00,
2013-11-13 06:15:00,35.7,33.6,31.23,West,272,0.0,6.0,92,0.01,,,0.01,0.00,VWS V14.00,2013-11-13 13:15:00,
2013-11-13 06:16:00,35.6,33.5,31.24,West,272,0.0,0.0,92,0.00,,,0.01,0.00,VWS V14.00,2013-11-13 13:16:00,
2013-11-13 06:17:00,35.6,33.5,31.24,West,272,0.0,0.0,92,0.00,,,0.01,0.00,VWS V14.00,2013-11-13 13:17:00,
2013-11-13 06:18:00,35.6,33.5,31.24,WNW,294,5.0,5.0,92,0.00,,,0.01,0.00,VWS V14.00,2013-11-13 13:18:00,
2013-11-13 06:19:00,35.5,33.4,31.25,NW,311,9.0,9.0,92,0.00,,,0.01,0.00,VWS V14.00,2013-11-13 13:19:00,
2013-11-13 06:20:00,35.5,33.4,31.24,NNW,328,4.0,10.0,92,0.00,,,0.01,0.00,VWS V14.00,2013-11-13 13:20:00,
2013-11-13 06:21:00,35.4,33.3,31.24,NNW,329,2.0,10.0,92,0.00,,,0.01,0.00,VWS V14.00,2013-11-13 13:21:00,
2013-11-13 06:22:00,35.3,33.2,31.24,NNW,329,1.0,10.0,92,0.00,,,0.01,0.00,VWS V14.00,2013-11-13 13:22:00,
2013-11-13 06:23:00,35.3,33.2,31.23,NNW,329,0.0,10.0,92,0.00,,,0.01,0.00,VWS V14.00,2013-11-13 13:23:00,
2013-11-13 06:24:00,35.3,33.2,31.23,NNW,329,0.0,10.0,92,0.00,,,0.01,0.00,VWS V14.00,2013-11-13 13:24:00,
2013-11-13 06:25:00,35.3,33.2,31.23,NNW,329,0.0,10.0,92,0.00,,,0.01,0.00,VWS V14.00,2013-11-13 13:25:00,
2013-11-13 06:26:00,35.2,33.1,31.23,NNW,329,0.0,10.0,92,0.00,,,0.01,0.00,VWS V14.00,2013-11-13 13:26:00,
2013-11-13 06:27:00,35.2,33.1,31.24,NNW,329,0.0,10.0,92,0.00,,,0.01,0.00,VWS V14.00,2013-11-13 13:27:00,
2013-11-13 06:28:00,35.2,33.1,31.24,NNW,329,0.0,10.0,92,0.00,,,0.01,0.00,VWS V14.00,2013-11-13 13:28:00,
2013-11-13 06:29:00,35.2,33.1,31.24,NNW,329,0.0,10.0,92,0.00,,,0.01,0.00,VWS V14.00,2013-11-13 13:29:00,
2013-11-13 06:30:00,35.2,33.1,31.23,NNW,329,0.0,10.0,92,0.00,,,0.01,0.00,VWS V14.00,2013-11-13 13:30:00,
2013-11-13 06:31:00,35.2,33.1,31.23,NNW,329,0.0,0.0,92,0.00,,,0.01,0.00,VWS V14.00,2013-11-13 13:31:00,
2013-11-13 06:32:00,35.2,33.1,31.23,NNW,329,0.0,0.0,92,0.00,,,0.01,0.00,VWS V14.00,2013-11-13 13:32:00,
2013-11-13 06:33:00,35.2,33.1,31.23,NNW,329,0.0,0.0,92,0.00,,,0.01,0.00,VWS V14.00,2013-11-13 13:33:00,
2013-11-13 06:34:00,35.2,33.1,31.23,NNW,329,0.0,0.0,92,0.00,,,0.01,0.00,VWS V14.00,2013-11-13 13:34:00,
2013-11-13 06:35:00,35.2,33.1,31.24,NNW,329,0.0,0.0,92,0.00,,,0.01,0.00,VWS V14.00,2013-11-13 13:35:00,
2013-11-13 06:36:00,35.2,33.1,31.24,NW,319,0.0,0.0,92,0.00,,,0.01,0.00,VWS V14.00,2013-11-13 13:36:00,
2013-11-13 06:37:00,35.3,33.2,31.24,West,271,3.0,3.0,92,0.00,,,0.01,0.00,VWS V14.00,2013-11-13 13:37:00,
2013-11-13 06:38:00,35.3,33.2,31.23,West,270,0.0,3.0,92,0.00,,,0.01,0.00,VWS V14.00,2013-11-13 13:38:00,
2013-11-13 06:39:00,35.3,33.2,31.23,West,271,0.0,3.0,92,0.00,,,0.01,0.00,VWS V14.00,2013-11-13 13:39:00,
2013-11-13 06:40:00,35.3,33.2,31.23,West,271,0.0,3.0,92,0.00,,,0.01,0.00,VWS V14.00,2013-11-13 13:40:00,
2013-11-13 06:41:00,35.3,33.2,31.24,West,271,0.0,3.0,92,0.00,,,0.01,0.00,VWS V14.00,2013-11-13 13:41:00,
2013-11-13 06:42:00,35.3,33.5,31.24,West,270,3.0,4.0,93,0.00,,,0.01,0.00,VWS V14.00,2013-11-13 13:42:00,
2013-11-13 06:43:00,35.3,33.5,31.24,West,270,0.0,4.0,93,0.00,,,0.01,0.00,VWS V14.00,2013-11-13 13:43:00,
2013-11-13 06:44:00,35.3,33.5,31.24,West,269,0.0,4.0,93,0.00,,,0.01,0.00,VWS V14.00,2013-11-13 13:44:00,
2013-11-13 06:45:00,35.3,33.5,31.24,West,270,0.0,4.0,93,0.00,,,0.01,0.00,VWS V14.00,2013-11-13 13:45:00,
2013-11-13 06:46:00,35.3,33.5,31.24,West,269,0.0,0.0,93,0.00,,,0.01,0.00,VWS V14.00,2013-11-13 13:46:00,
2013-11-13 06:47:00,35.3,33.5,31.24,West,270,0.0,0.0,93,0.00,,,0.01,0.00,VWS V14.00,2013-11-13 13:47:00,
2013-11-13 06:48:00,35.4,33.6,31.24,WSW,251,0.0,0.0,93,0.00,,,0.01,0.00,VWS V14.00,2013-11-13 13:48:00,
2013-11-13 06:49:00,35.4,33.6,31.24,SE,145,3.0,4.0,93,0.00,,,0.01,0.00,VWS V14.00,2013-11-13 13:49:00,
2013-11-13 06:50:00,35.4,33.6,31.24,SE,140,3.0,4.0,93,0.00,,,0.01,0.00,VWS V14.00,2013-11-13 13:50:00,
2013-11-13 06:51:00,35.4,33.6,31.24,SE,140,2.0,4.0,93,0.00,,,0.01,0.00,VWS V14.00,2013-11-13 13:51:00,
2013-11-13 06:52:00,35.5,33.7,31.24,SE,140,3.0,4.0,93,0.00,,,0.01,0.00,VWS V14.00,2013-11-13 13:52:00,
2013-11-13 06:53:00,35.5,33.7,31.24,SE,141,1.0,4.0,93,0.00,,,0.01,0.00,VWS V14.00,2013-11-13 13:53:00,
2013-11-13 06:54:00,35.5,33.7,31.24,SE,141,0.0,4.0,93,0.00,,,0.01,0.00,VWS V14.00,2013-11-13 13:54:00,
2013-11-13 06:55:00,35.5,33.7,31.24,SE,141,0.0,4.0,93,0.00,,,0.01,0.00,VWS V14.00,2013-11-13 13:55:00,
2013-11-13 06:56:00,35.5,33.7,31.24,SE,141,0.0,4.0,93,0.00,,,0.01,0.00,VWS V14.00,2013-11-13 13:56:00,
2013-11-13 06:57:00,35.5,33.7,31.24,SE,141,0.0,4.0,93,0.00,,,0.01,0.00,VWS V14.00,2013-11-13 13:57:00,
2013-11-13 06:58:00,35.6,33.8,31.24,SE,141,0.0,4.0,93,0.00,,,0.01,0.00,VWS V14.00,2013-11-13 13:58:00,
2013-11-13 06:59:00,35.5,33.7,31.24,SE,141,0.0,4.0,93,0.00,,,0.01,0.00,VWS V14.00,2013-11-13 13:59:00,
2013-11-13 07:00:00,35.6,33.8,31.24,SE,141,0.0,4.0,93,0.00,,,0.01,0.00,VWS V14.00,2013-11-13 14:00:00,
2013-11-13 07:01:00,35.6,33.8,31.24,SE,141,0.0,0.0,93,0.00,,,0.01,0.00,VWS V14.00,2013-11-13 14:01:00,
2013-11-13 07:02:00,35.6,33.8,31.24,SE,141,0.0,0.0,93,0.00,,,0.01,0.00,VWS V14.00,2013-11-13 14:02:00,
2013-11-13 07:03:00,35.6,33.8,31.24,SE,141,0.0,0.0,93,0.00,,,0.01,0.00,VWS V14.00,2013-11-13 14:03:00,
2013-11-13 07:04:00,35.6,33.8,31.24,SE,141,0.0,0.0,93,0.00,,,0.01,0.00,VWS V14.00,2013-11-13 14:04:00,
2013-11-13 07:05:00,35.6,33.8,31.24,SE,141,0.0,0.0,93,0.00,,,0.01,0.00,VWS V14.00,2013-11-13 14:05:00,
2013-11-13 07:06:00,35.6,33.8,31.24,SE,141,0.0,0.0,93,0.00,,,0.01,0.00,VWS V14.00,2013-11-13 14:06:00,
2013-11-13 07:07:00,35.7,33.9,31.24,SE,141,0.0,0.0,93,0.00,,,0.01,0.00,VWS V14.00,2013-11-13 14:07:00,
2013-11-13 07:08:00,35.7,33.9,31.24,SE,141,0.0,0.0,93,0.00,,,0.01,0.00,VWS V14.00,2013-11-13 14:08:00,
2013-11-13 07:09:00,35.7,33.9,31.24,SE,141,0.0,0.0,93,0.00,,,0.01,0.00,VWS V14.00,2013-11-13 14:09:00,
2013-11-13 07:10:00,35.7,33.9,31.24,SE,141,0.0,0.0,93,0.00,,,0.01,0.00,VWS V14.00,2013-11-13 14:10:00,
2013-11-13 07:11:00,35.8,34.0,31.24,SSE,152,4.0,5.0,93,0.00,,,0.01,0.00,VWS V14.00,2013-11-13 14:11:00,
2013-11-13 07:12:00,35.8,34.0,31.24,SSE,153,3.0,5.0,93,0.00,,,0.01,0.00,VWS V14.00,2013-11-13 14:12:00,
2013-11-13 07:13:00,35.9,34.1,31.24,SSE,153,2.0,5.0,93,0.00,,,0.01,0.00,VWS V14.00,2013-11-13 14:13:00,
2013-11-13 07:14:00,35.9,34.1,31.24,SE,132,4.0,5.0,93,0.00,,,0.01,0.00,VWS V14.00,2013-11-13 14:14:00,
2013-11-13 07:15:00,36.0,34.4,31.24,SE,132,2.0,5.0,94,0.00,,,0.01,0.00,VWS V14.00,2013-11-13 14:15:00,
2013-11-13 07:16:00,36.1,34.5,31.24,SE,132,2.0,3.0,94,0.00,,,0.01,0.00,VWS V14.00,2013-11-13 14:16:00,
2013-11-13 07:17:00,36.2,34.6,31.24,SE,132,3.0,4.0,94,0.00,,,0.01,0.00,VWS V14.00,2013-11-13 14:17:00,
2013-11-13 07:18:00,36.3,34.7,31.24,SE,132,2.0,4.0,94,0.00,,,0.01,0.00,VWS V14.00,2013-11-13 14:18:00,
2013-11-13 07:19:00,36.3,34.7,31.24,SE,132,3.0,4.0,94,0.00,,,0.01,0.00,VWS V14.00,2013-11-13 14:19:00,
2013-11-13 07:20:00,36.4,34.8,31.24,SE,132,0.0,4.0,94,0.00,,,0.01,0.00,VWS V14.00,2013-11-13 14:20:00,
2013-11-13 07:21:00,36.5,34.9,31.24,SE,132,0.0,4.0,94,0.00,,,0.01,0.00,VWS V14.00,2013-11-13 14:21:00,
2013-11-13 07:22:00,36.6,35.0,31.23,SE,132,0.0,4.0,94,0.00,,,0.01,0.00,VWS V14.00,2013-11-13 14:22:00,
2013-11-13 07:23:00,36.7,35.1,31.22,SE,132,0.0,4.0,94,0.00,,,0.01,0.00,VWS V14.00,2013-11-13 14:23:00,
2013-11-13 07:24:00,36.8,35.2,31.23,SE,132,0.0,4.0,94,0.00,,,0.01,0.00,VWS V14.00,2013-11-13 14:24:00,
2013-11-13 07:25:00,36.9,35.3,31.23,SE,132,0.0,4.0,94,0.00,,,0.01,0.00,VWS V14.00,2013-11-13 14:25:00,
2013-11-13 07:26:00,36.9,35.3,31.23,SE,132,0.0,4.0,94,0.00,,,0.01,0.00,VWS V14.00,2013-11-13 14:26:00,
2013-11-13 07:27:00,36.9,35.3,31.23,SE,132,1.0,4.0,94,0.00,,,0.01,0.00,VWS V14.00,2013-11-13 14:27:00,
2013-11-13 07:28:00,37.0,35.4,31.23,SSE,167,0.0,5.0,94,0.00,,,0.01,0.00,VWS V14.00,2013-11-13 14:28:00,
2013-11-13 07:29:00,37.0,35.4,31.23,SSE,167,0.0,5.0,94,0.00,,,0.01,0.00,VWS V14.00,2013-11-13 14:29:00,
2013-11-13 07:30:00,37.0,35.4,31.23,SSE,167,0.0,5.0,94,0.00,,,0.01,0.00,VWS V14.00,2013-11-13 14:30:00,
2013-11-13 07:31:00,37.1,35.5,31.23,SSE,167,0.0,0.0,94,0.00,,,0.01,0.00,VWS V14.00,2013-11-13 14:31:00,
2013-11-13 07:32:00,37.1,35.5,31.23,SSE,167,0.0,0.0,94,0.00,,,0.01,0.00,VWS V14.00,2013-11-13 14:32:00,
2013-11-13 07:33:00,37.1,35.5,31.23,SSE,167,0.0,0.0,94,0.00,,,0.01,0.00,VWS V14.00,2013-11-13 14:33:00,
2013-11-13 07:34:00,37.1,35.5,31.22,SSE,167,0.0,0.0,94,0.00,,,0.01,0.00,VWS V14.00,2013-11-13 14:34:00,
2013-11-13 07:35:00,37.1,35.5,31.22,SSE,167,0.0,0.0,94,0.00,,,0.01,0.00,VWS V14.00,2013-11-13 14:35:00,
2013-11-13 07:36:00,37.1,35.5,31.23,SSE,167,0.0,0.0,94,0.00,,,0.01,0.00,VWS V14.00,2013-11-13 14:36:00,
2013-11-13 07:37:00,37.1,35.5,31.23,West,264,6.0,6.0,94,0.00,,,0.01,5.00,VWS V14.00,2013-11-13 14:37:00,
2013-11-13 07:38:00,37.1,35.5,31.23,West,267,1.0,7.0,94,0.00,,,0.01,5.00,VWS V14.00,2013-11-13 14:38:00,
2013-11-13 07:39:00,37.1,35.5,31.23,WSW,243,0.0,7.0,94,0.00,,,0.01,5.00,VWS V14.00,2013-11-13 14:39:00,
2013-11-13 07:40:00,37.1,35.5,31.23,WSW,242,0.0,7.0,94,0.00,,,0.01,5.00,VWS V14.00,2013-11-13 14:40:00,
2013-11-13 07:41:00,37.2,35.6,31.23,WSW,242,0.0,7.0,94,0.00,,,0.01,7.00,VWS V14.00,2013-11-13 14:41:00,
2013-11-13 07:42:00,37.2,35.6,31.23,NNW,339,5.0,7.0,94,0.00,,,0.01,7.00,VWS V14.00,2013-11-13 14:42:00,
2013-11-13 07:43:00,37.3,35.7,31.23,WNW,296,6.0,7.0,94,0.00,,,0.01,7.00,VWS V14.00,2013-11-13 14:43:00,
2013-11-13 07:44:00,37.2,35.6,31.24,WNW,300,4.0,8.0,94,0.00,,,0.01,7.00,VWS V14.00,2013-11-13 14:44:00,
2013-11-13 07:45:00,37.2,35.6,31.24,NW,306,0.0,8.0,94,0.00,,,0.01,7.00,VWS V14.00,2013-11-13 14:45:00,
2013-11-13 07:46:00,37.1,35.3,31.23,NW,307,0.0,0.0,93,0.00,,,0.01,9.00,VWS V14.00,2013-11-13 14:46:00,
2013-11-13 07:47:00,37.1,35.5,31.23,NW,307,0.0,0.0,94,0.00,,,0.01,11.00,VWS V14.00,2013-11-13 14:47:00,
2013-11-13 07:48:00,37.1,35.5,31.23,NW,307,0.0,0.0,94,0.00,,,0.01,12.00,VWS V14.00,2013-11-13 14:48:00,
2013-11-13 07:49:00,37.0,35.2,31.23,NNE,21,0.0,0.0,93,0.00,,,0.01,12.00,VWS V14.00,2013-11-13 14:49:00,
2013-11-13 07:50:00,37.0,35.2,31.23,NNE,21,0.0,0.0,93,0.00,,,0.01,12.00,VWS V14.00,2013-11-13 14:50:00,
2013-11-13 07:51:00,37.0,35.2,31.24,NNW,327,5.0,5.0,93,0.00,,,0.01,12.00,VWS V14.00,2013-11-13 14:51:00,
2013-11-13 07:52:00,37.1,35.5,31.24,NNW,331,7.0,9.0,94,0.00,,,0.01,11.00,VWS V14.00,2013-11-13 14:52:00,
2013-11-13 07:53:00,37.1,35.5,31.24,North,360,5.0,9.0,94,0.00,,,0.01,9.00,VWS V14.00,2013-11-13 14:53:00,
2013-11-13 07:54:00,37.1,35.5,31.24,NNE,24,4.0,9.0,94,0.00,,,0.01,9.00,VWS V14.00,2013-11-13 14:54:00,
2013-11-13 07:55:00,37.1,35.5,31.24,NE,36,1.0,9.0,94,0.00,,,0.01,9.00,VWS V14.00,2013-11-13 14:55:00,
2013-11-13 07:56:00,37.2,35.6,31.24,NE,40,0.0,9.0,94,0.00,,,0.01,9.00,VWS V14.00,2013-11-13 14:56:00,
2013-11-13 07:57:00,37.2,35.6,31.24,NE,40,0.0,9.0,94,0.00,,,0.01,11.00,VWS V14.00,2013-11-13 14:57:00,
2013-11-13 07:58:00,37.2,35.6,31.24,NE,40,0.0,9.0,94,0.00,,,0.01,11.00,VWS V14.00,2013-11-13 14:58:00,
2013-11-13 07:59:00,37.3,35.7,31.24,NE,40,0.0,9.0,94,0.00,,,0.01,12.00,VWS V14.00,2013-11-13 14:59:00,
2013-11-13 08:00:00,37.3,35.5,31.23,NE,40,0.0,9.0,93,0.00,,,0.01,12.00,VWS V14.00,2013-11-13 15:00:00,
2013-11-13 08:01:00,37.3,35.5,31.23,NE,40,0.0,0.0,93,0.00,,,0.01,14.00,VWS V14.00,2013-11-13 15:01:00,
2013-11-13 08:02:00,37.3,35.5,31.23,NE,40,0.0,0.0,93,0.00,,,0.01,16.00,VWS V14.00,2013-11-13 15:02:00,
2013-11-13 08:03:00,37.3,35.5,31.22,NE,40,0.0,0.0,93,0.00,,,0.01,18.00,VWS V14.00,2013-11-13 15:03:00,
2013-11-13 08:04:00,37.3,35.5,31.22,NE,40,0.0,0.0,93,0.00,,,0.01,21.00,VWS V14.00,2013-11-13 15:04:00,
2013-11-13 08:05:00,37.3,35.5,31.22,NE,41,0.0,0.0,93,0.00,,,0.01,25.00,VWS V14.00,2013-11-13 15:05:00,
2013-11-13 08:06:00,37.4,35.6,31.22,NE,41,0.0,0.0,93,0.00,,,0.01,21.00,VWS V14.00,2013-11-13 15:06:00,
2013-11-13 08:07:00,37.4,35.6,31.22,NE,41,0.0,0.0,93,0.00,,,0.01,21.00,VWS V14.00,2013-11-13 15:07:00,
2013-11-13 08:08:00,37.4,35.6,31.22,NE,41,0.0,0.0,93,0.00,,,0.01,21.00,VWS V14.00,2013-11-13 15:08:00,
2013-11-13 08:09:00,37.4,35.6,31.22,NE,41,0.0,0.0,93,0.00,,,0.01,21.00,VWS V14.00,2013-11-13 15:09:00,
2013-11-13 08:10:00,37.5,35.7,31.22,NE,41,0.0,0.0,93,0.00,,,0.01,21.00,VWS V14.00,2013-11-13 15:10:00,
2013-11-13 08:11:00,37.5,35.7,31.22,NE,41,0.0,0.0,93,0.00,,,0.01,21.00,VWS V14.00,2013-11-13 15:11:00,
2013-11-13 08:12:00,37.5,35.7,31.22,NE,41,0.0,0.0,93,0.00,,,0.01,21.00,VWS V14.00,2013-11-13 15:12:00,
2013-11-13 08:13:00,37.6,35.8,31.23,NE,41,0.0,0.0,93,0.00,,,0.01,21.00,VWS V14.00,2013-11-13 15:13:00,
2013-11-13 08:14:00,37.7,35.9,31.23,WNW,294,4.0,4.0,93,0.00,,,0.01,23.00,VWS V14.00,2013-11-13 15:14:00,
2013-11-13 08:15:00,37.7,35.9,31.23,WNW,284,5.0,6.0,93,0.00,,,0.01,23.00,VWS V14.00,2013-11-13 15:15:00,
2013-11-13 08:16:00,37.8,36.0,31.24,West,279,3.0,5.0,93,0.00,,,0.01,23.00,VWS V14.00,2013-11-13 15:16:00,
2013-11-13 08:17:00,37.8,36.2,31.24,West,279,0.0,5.0,94,0.00,,,0.01,23.00,VWS V14.00,2013-11-13 15:17:00,
2013-11-13 08:18:00,37.9,36.3,31.23,West,279,0.0,5.0,94,0.00,,,0.01,25.00,VWS V14.00,2013-11-13 15:18:00,
2013-11-13 08:19:00,37.9,36.3,31.23,NW,317,3.0,5.0,94,0.00,,,0.01,26.00,VWS V14.00,2013-11-13 15:19:00,
2013-11-13 08:20:00,37.9,36.3,31.24,NW,325,5.0,5.0,94,0.00,,,0.01,26.00,VWS V14.00,2013-11-13 15:20:00,
2013-11-13 08:21:00,38.0,36.4,31.24,NNW,344,2.0,6.0,94,0.00,,,0.01,28.00,VWS V14.00,2013-11-13 15:21:00,
2013-11-13 08:22:00,38.0,36.2,31.23,NNW,344,0.0,6.0,93,0.00,,,0.01,28.00,VWS V14.00,2013-11-13 15:22:00,
2013-11-13 08:23:00,37.9,36.1,31.23,NNW,344,0.0,6.0,93,0.00,,,0.01,28.00,VWS V14.00,2013-11-13 15:23:00,
2013-11-13 08:24:00,37.9,36.1,31.24,NNW,344,0.0,6.0,93,0.00,,,0.01,28.00,VWS V14.00,2013-11-13 15:24:00,
2013-11-13 08:25:00,37.9,36.1,31.23,NNW,344,0.0,6.0,93,0.00,,,0.01,30.00,VWS V14.00,2013-11-13 15:25:00,
2013-11-13 08:26:00,37.9,36.1,31.23,NNW,344,0.0,6.0,93,0.00,,,0.01,32.00,VWS V14.00,2013-11-13 15:26:00,
2013-11-13 08:27:00,37.9,36.1,31.24,NNW,344,0.0,6.0,93,0.00,,,0.01,32.00,VWS V14.00,2013-11-13 15:27:00,
2013-11-13 08:28:00,37.8,36.0,31.24,NNW,344,0.0,6.0,93,0.00,,,0.01,33.00,VWS V14.00,2013-11-13 15:28:00,
2013-11-13 08:29:00,37.8,36.0,31.24,NNW,344,0.0,6.0,93,0.00,,,0.01,33.00,VWS V14.00,2013-11-13 15:29:00,
2013-11-13 08:30:00,37.8,36.0,31.24,NNW,344,2.0,6.0,93,0.00,,,0.01,33.00,VWS V14.00,2013-11-13 15:30:00,
2013-11-13 08:31:00,37.8,36.0,31.23,NNW,344,0.0,2.0,93,0.00,,,0.01,35.00,VWS V14.00,2013-11-13 15:31:00,
2013-11-13 08:32:00,37.8,36.0,31.23,NNW,344,0.0,2.0,93,0.00,,,0.01,37.00,VWS V14.00,2013-11-13 15:32:00,
2013-11-13 08:33:00,37.7,35.9,31.23,NNW,344,0.0,2.0,93,0.00,,,0.01,39.00,VWS V14.00,2013-11-13 15:33:00,
2013-11-13 08:34:00,37.7,35.9,31.23,NNW,344,0.0,2.0,93,0.00,,,0.01,35.00,VWS V14.00,2013-11-13 15:34:00,
2013-11-13 08:35:00,37.7,35.9,31.24,NNW,344,0.0,2.0,93,0.00,,,0.01,33.00,VWS V14.00,2013-11-13 15:35:00,
2013-11-13 08:36:00,37.7,35.9,31.24,NNW,344,4.0,4.0,93,0.00,,,0.01,33.00,VWS V14.00,2013-11-13 15:36:00,
2013-11-13 08:37:00,37.7,35.9,31.24,NNW,344,3.0,4.0,93,0.00,,,0.01,33.00,VWS V14.00,2013-11-13 15:37:00,
2013-11-13 08:38:00,37.6,35.8,31.25,NNW,344,1.0,4.0,93,0.00,,,0.01,32.00,VWS V14.00,2013-11-13 15:38:00,
2013-11-13 08:39:00,37.6,35.8,31.24,NNW,344,0.0,4.0,93,0.00,,,0.01,32.00,VWS V14.00,2013-11-13 15:39:00,
2013-11-13 08:40:00,37.6,35.8,31.23,NNW,344,0.0,4.0,93,0.00,,,0.01,37.00,VWS V14.00,2013-11-13 15:40:00,
2013-11-13 08:41:00,37.6,35.8,31.23,NNW,344,0.0,4.0,93,0.00,,,0.01,40.00,VWS V14.00,2013-11-13 15:41:00,
2013-11-13 08:42:00,37.6,35.8,31.23,NNW,344,0.0,4.0,93,0.00,,,0.01,44.00,VWS V14.00,2013-11-13 15:42:00,
2013-11-13 08:43:00,37.6,35.8,31.23,NNW,344,0.0,4.0,93,0.00,,,0.01,47.00,VWS V14.00,2013-11-13 15:43:00,
2013-11-13 08:44:00,37.6,35.8,31.23,NNW,344,0.0,4.0,93,0.00,,,0.01,51.00,VWS V14.00,2013-11-13 15:44:00,
2013-11-13 08:45:00,37.6,35.8,31.23,NNW,344,0.0,4.0,93,0.00,,,0.01,54.00,VWS V14.00,2013-11-13 15:45:00,
2013-11-13 08:46:00,37.7,35.9,31.23,NNW,344,0.0,0.0,93,0.00,,,0.01,72.00,VWS V14.00,2013-11-13 15:46:00,
2013-11-13 08:47:00,37.6,35.8,31.23,NNW,344,0.0,0.0,93,0.00,,,0.01,79.00,VWS V14.00,2013-11-13 15:47:00,
2013-11-13 08:48:00,37.7,35.9,31.23,NNW,344,0.0,0.0,93,0.00,,,0.01,86.00,VWS V14.00,2013-11-13 15:48:00,
2013-11-13 08:49:00,37.7,35.9,31.23,NNW,344,0.0,0.0,93,0.00,,,0.01,91.00,VWS V14.00,2013-11-13 15:49:00,
2013-11-13 08:50:00,37.7,35.9,31.24,NNW,344,0.0,0.0,93,0.00,,,0.01,93.00,VWS V14.00,2013-11-13 15:50:00,
2013-11-13 08:51:00,37.7,35.9,31.24,NNW,344,0.0,0.0,93,0.00,,,0.01,93.00,VWS V14.00,2013-11-13 15:51:00,
2013-11-13 08:52:00,37.7,35.9,31.24,NNW,344,0.0,0.0,93,0.00,,,0.01,90.00,VWS V14.00,2013-11-13 15:52:00,
2013-11-13 08:53:00,37.8,36.0,31.24,NNW,344,0.0,0.0,93,0.00,,,0.01,144.00,VWS V14.00,2013-11-13 15:53:00,
2013-11-13 08:54:00,37.8,36.0,31.24,NNW,344,0.0,0.0,93,0.00,,,0.01,105.00,VWS V14.00,2013-11-13 15:54:00,
2013-11-13 08:55:00,37.9,36.1,31.24,NNW,344,0.0,0.0,93,0.00,,,0.01,188.00,VWS V14.00,2013-11-13 15:55:00,
2013-11-13 08:56:00,37.9,36.1,31.24,NNW,344,0.0,0.0,93,0.00,,,0.01,188.00,VWS V14.00,2013-11-13 15:56:00,
2013-11-13 08:57:00,38.0,36.2,31.24,NNW,344,0.0,0.0,93,0.00,,,0.01,69.00,VWS V14.00,2013-11-13 15:57:00,
2013-11-13 08:58:00,38.1,36.3,31.24,NNW,344,0.0,0.0,93,0.00,,,0.01,65.00,VWS V14.00,2013-11-13 15:58:00,
2013-11-13 08:59:00,38.2,36.4,31.24,NNW,344,0.0,0.0,93,0.00,,,0.01,95.00,VWS V14.00,2013-11-13 15:59:00,
2013-11-13 09:00:00,38.3,36.5,31.24,NNW,344,0.0,0.0,93,0.00,,,0.01,114.00,VWS V14.00,2013-11-13 16:00:00,
2013-11-13 09:01:00,38.4,36.6,31.22,NNW,344,0.0,0.0,93,0.00,,,0.01,214.00,VWS V14.00,2013-11-13 16:01:00,
2013-11-13 09:02:00,38.5,36.7,31.22,NNW,344,0.0,0.0,93,0.00,,,0.01,216.00,VWS V14.00,2013-11-13 16:02:00,
2013-11-13 09:03:00,38.6,37.0,31.22,NNW,344,0.0,0.0,94,0.00,,,0.01,214.00,VWS V14.00,2013-11-13 16:03:00,
2013-11-13 09:04:00,38.7,37.1,31.22,NNW,344,0.0,0.0,94,0.00,,,0.01,158.00,VWS V14.00,2013-11-13 16:04:00,
2013-11-13 09:05:00,38.8,37.0,31.22,NNW,344,0.0,0.0,93,0.00,,,0.01,121.00,VWS V14.00,2013-11-13 16:05:00,
2013-11-13 09:06:00,38.9,37.0,31.22,NNW,344,0.0,0.0,93,0.00,,,0.01,218.00,VWS V14.00,2013-11-13 16:06:00,
2013-11-13 09:07:00,39.0,37.2,31.22,NNW,344,0.0,0.0,93,0.00,,,0.01,218.00,VWS V14.00,2013-11-13 16:07:00,
2013-11-13 09:08:00,39.2,37.6,31.21,NNW,344,0.0,0.0,94,0.00,,,0.01,93.00,VWS V14.00,2013-11-13 16:08:00,
2013-11-13 09:09:00,39.3,37.7,31.22,NNW,344,0.0,0.0,94,0.00,,,0.01,134.00,VWS V14.00,2013-11-13 16:09:00,
2013-11-13 09:10:00,39.4,37.8,31.22,NNW,344,0.0,0.0,94,0.00,,,0.01,134.00,VWS V14.00,2013-11-13 16:10:00,
2013-11-13 09:11:00,39.5,37.9,31.21,NNW,344,0.0,0.0,94,0.00,,,0.01,134.00,VWS V14.00,2013-11-13 16:11:00,
2013-11-13 09:12:00,39.6,38.0,31.21,NNW,344,0.0,0.0,94,0.00,,,0.01,97.00,VWS V14.00,2013-11-13 16:12:00,
2013-11-13 09:13:00,39.7,38.1,31.21,NNW,344,0.0,0.0,94,0.00,,,0.01,109.00,VWS V14.00,2013-11-13 16:13:00,
2013-11-13 09:14:00,39.8,38.2,31.21,NNW,344,0.0,0.0,94,0.00,,,0.01,109.00,VWS V14.00,2013-11-13 16:14:00,
2013-11-13 09:15:00,39.9,38.3,31.21,NNW,344,0.0,0.0,94,0.00,,,0.01,304.00,VWS V14.00,2013-11-13 16:15:00,
2013-11-13 09:16:00,40.0,38.4,31.21,NNW,344,0.0,0.0,94,0.00,,,0.01,304.00,VWS V14.00,2013-11-13 16:16:00,
2013-11-13 09:17:00,40.1,38.5,31.21,NNW,344,0.0,0.0,94,0.00,,,0.01,109.00,VWS V14.00,2013-11-13 16:17:00,
2013-11-13 09:18:00,40.1,38.5,31.21,NNW,344,0.0,0.0,94,0.00,,,0.01,104.00,VWS V14.00,2013-11-13 16:18:00,
2013-11-13 09:19:00,40.3,38.7,31.21,NNW,344,0.0,0.0,94,0.00,,,0.01,104.00,VWS V14.00,2013-11-13 16:19:00,
2013-11-13 09:20:00,40.5,38.9,31.21,NNW,344,0.0,0.0,94,0.00,,,0.01,104.00,VWS V14.00,2013-11-13 16:20:00,
2013-11-13 09:21:00,40.6,39.0,31.21,NNW,344,0.0,0.0,94,0.00,,,0.01,306.00,VWS V14.00,2013-11-13 16:21:00,
2013-11-13 09:22:00,40.7,39.1,31.21,NNW,344,0.0,0.0,94,0.00,,,0.01,306.00,VWS V14.00,2013-11-13 16:22:00,
2013-11-13 09:23:00,40.9,39.3,31.21,NNW,344,0.0,0.0,94,0.00,,,0.01,127.00,VWS V14.00,2013-11-13 16:23:00,
2013-11-13 09:24:00,41.1,39.5,31.21,NNW,344,0.0,0.0,94,0.00,,,0.01,114.00,VWS V14.00,2013-11-13 16:24:00,
2013-11-13 09:25:00,41.3,40.0,31.21,NNW,344,0.0,0.0,95,0.00,,,0.01,109.00,VWS V14.00,2013-11-13 16:25:00,
2013-11-13 09:26:00,41.4,40.1,31.21,NNW,344,0.0,0.0,95,0.00,,,0.01,104.00,VWS V14.00,2013-11-13 16:26:00,
2013-11-13 09:27:00,41.5,40.2,31.21,NNW,344,0.0,0.0,95,0.00,,,0.01,102.00,VWS V14.00,2013-11-13 16:27:00,
2013-11-13 09:28:00,41.6,40.0,31.20,NNW,344,0.0,0.0,94,0.00,,,0.01,104.00,VWS V14.00,2013-11-13 16:28:00,
2013-11-13 09:29:00,41.8,40.2,31.20,NNW,344,0.0,0.0,94,0.00,,,0.01,105.00,VWS V14.00,2013-11-13 16:29:00,
2013-11-13 09:30:00,41.9,40.3,31.20,NNW,344,0.0,0.0,94,0.00,,,0.01,104.00,VWS V14.00,2013-11-13 16:30:00,
2013-11-13 09:31:00,42.1,40.8,31.19,NNW,344,0.0,0.0,95,0.00,,,0.01,95.00,VWS V14.00,2013-11-13 16:31:00,
2013-11-13 09:32:00,42.2,40.9,31.19,NNW,344,0.0,0.0,95,0.00,,,0.01,88.00,VWS V14.00,2013-11-13 16:32:00,
2013-11-13 09:33:00,42.4,41.1,31.19,NNW,344,0.0,0.0,95,0.00,,,0.01,86.00,VWS V14.00,2013-11-13 16:33:00,
2013-11-13 09:34:00,42.5,41.2,31.19,NNW,344,0.0,0.0,95,0.00,,,0.01,88.00,VWS V14.00,2013-11-13 16:34:00,
2013-11-13 09:35:00,42.7,41.4,31.19,NNW,344,0.0,0.0,95,0.00,,,0.01,90.00,VWS V14.00,2013-11-13 16:35:00,
2013-11-13 09:36:00,42.8,41.2,31.19,NNW,344,0.0,0.0,94,0.00,,,0.01,95.00,VWS V14.00,2013-11-13 16:36:00,
2013-11-13 09:37:00,42.9,41.3,31.19,NNW,344,0.0,0.0,94,0.00,,,0.01,97.00,VWS V14.00,2013-11-13 16:37:00,
2013-11-13 09:38:00,43.0,41.4,31.19,NNW,344,0.0,0.0,94,0.00,,,0.01,91.00,VWS V14.00,2013-11-13 16:38:00,
2013-11-13 09:39:00,43.1,41.5,31.19,NNW,344,0.0,0.0,94,0.00,,,0.01,95.00,VWS V14.00,2013-11-13 16:39:00,
2013-11-13 09:40:00,43.1,41.5,31.19,NNW,344,0.0,0.0,94,0.00,,,0.01,100.00,VWS V14.00,2013-11-13 16:40:00,
2013-11-13 09:41:00,43.2,41.6,31.19,NNW,344,0.0,0.0,94,0.00,,,0.01,107.00,VWS V14.00,2013-11-13 16:41:00,
2013-11-13 09:42:00,43.3,41.4,31.19,NNW,344,0.0,0.0,93,0.00,,,0.01,109.00,VWS V14.00,2013-11-13 16:42:00,
2013-11-13 09:43:00,43.3,41.4,31.19,NNW,345,3.0,3.0,93,0.00,,,0.01,107.00,VWS V14.00,2013-11-13 16:43:00,
2013-11-13 09:44:00,43.4,41.5,31.20,NNW,348,0.0,4.0,93,0.00,,,0.01,97.00,VWS V14.00,2013-11-13 16:44:00,
2013-11-13 09:45:00,43.5,41.3,31.20,NNW,348,0.0,4.0,92,0.00,,,0.01,93.00,VWS V14.00,2013-11-13 16:45:00,
2013-11-13 09:46:00,43.6,41.2,31.18,NNW,348,3.0,4.0,91,0.00,,,0.01,95.00,VWS V14.00,2013-11-13 16:46:00,
2013-11-13 09:47:00,43.7,41.0,31.18,NNW,348,0.0,4.0,90,0.00,,,0.01,102.00,VWS V14.00,2013-11-13 16:47:00,
2013-11-13 09:48:00,43.8,40.2,31.19,NNW,348,0.0,4.0,87,0.00,,,0.01,107.00,VWS V14.00,2013-11-13 16:48:00,
2013-11-13 09:49:00,44.1,40.2,31.19,NNW,348,0.0,4.0,86,0.00,,,0.01,102.00,VWS V14.00,2013-11-13 16:49:00,
2013-11-13 09:50:00,44.2,40.3,31.19,NNW,348,0.0,4.0,86,0.00,,,0.01,90.00,VWS V14.00,2013-11-13 16:50:00,
2013-11-13 09:51:00,44.4,39.9,31.19,NNW,348,0.0,4.0,84,0.00,,,0.01,91.00,VWS V14.00,2013-11-13 16:51:00,
2013-11-13 09:52:00,44.6,39.8,31.19,NNW,348,0.0,4.0,83,0.00,,,0.01,105.00,VWS V14.00,2013-11-13 16:52:00,
2013-11-13 09:53:00,44.7,39.5,31.19,NNW,348,0.0,4.0,82,0.00,,,0.01,105.00,VWS V14.00,2013-11-13 16:53:00,
2013-11-13 09:54:00,44.9,39.4,31.19,NNW,348,0.0,4.0,81,0.00,,,0.01,105.00,VWS V14.00,2013-11-13 16:54:00,
2013-11-13 09:55:00,45.0,39.5,31.19,NNW,348,1.0,4.0,81,0.00,,,0.01,105.00,VWS V14.00,2013-11-13 16:55:00,
2013-11-13 09:56:00,45.2,40.0,31.19,NNW,348,2.0,4.0,82,0.00,,,0.01,111.00,VWS V14.00,2013-11-13 16:56:00,
2013-11-13 09:57:00,45.5,40.0,31.19,NNW,348,2.0,4.0,81,0.00,,,0.01,100.00,VWS V14.00,2013-11-13 16:57:00,
2013-11-13 09:58:00,45.7,40.5,31.18,NNW,348,0.0,4.0,82,0.00,,,0.01,90.00,VWS V14.00,2013-11-13 16:58:00,
2013-11-13 09:59:00,45.9,40.7,31.18,NNW,348,0.0,4.0,82,0.00,,,0.01,81.00,VWS V14.00,2013-11-13 16:59:00,
2013-11-13 10:00:00,46.0,41.1,31.18,NNW,348,0.0,4.0,83,0.00,,,0.01,74.00,VWS V14.00,2013-11-13 17:00:00,
2013-11-13 10:01:00,46.2,41.3,31.18,NNW,348,4.0,4.0,83,0.00,,,0.01,70.00,VWS V14.00,2013-11-13 17:01:00,
2013-11-13 10:02:00,46.3,41.7,31.18,NNW,348,6.0,6.0,84,0.00,,,0.01,67.00,VWS V14.00,2013-11-13 17:02:00,
2013-11-13 10:03:00,46.3,41.4,31.18,NNW,348,2.0,6.0,83,0.00,,,0.01,65.00,VWS V14.00,2013-11-13 17:03:00,
2013-11-13 10:04:00,46.3,41.4,31.18,NNW,348,1.0,6.0,83,0.00,,,0.01,67.00,VWS V14.00,2013-11-13 17:04:00,
2013-11-13 10:05:00,46.3,41.4,31.18,NNW,348,2.0,6.0,83,0.00,,,0.01,65.00,VWS V14.00,2013-11-13 17:05:00,
2013-11-13 10:06:00,46.3,41.4,31.19,NNW,348,0.0,6.0,83,0.00,,,0.01,63.00,VWS V14.00,2013-11-13 17:06:00,
2013-11-13 10:07:00,46.2,41.3,31.19,NNW,348,0.0,6.0,83,0.00,,,0.01,63.00,VWS V14.00,2013-11-13 17:07:00,
2013-11-13 10:08:00,46.1,41.2,31.19,NNW,348,0.0,6.0,83,0.00,,,0.01,62.00,VWS V14.00,2013-11-13 17:08:00,
2013-11-13 10:09:00,46.0,41.1,31.19,NNW,348,0.0,6.0,83,0.00,,,0.01,58.00,VWS V14.00,2013-11-13 17:09:00,
2013-11-13 10:10:00,46.0,41.1,31.19,NNW,348,0.0,6.0,83,0.00,,,0.01,56.00,VWS V14.00,2013-11-13 17:10:00,
2013-11-13 10:11:00,45.9,41.0,31.19,NNW,348,0.0,6.0,83,0.00,,,0.01,56.00,VWS V14.00,2013-11-13 17:11:00,
2013-11-13 10:12:00,45.7,40.8,31.19,NNW,348,0.0,6.0,83,0.00,,,0.01,58.00,VWS V14.00,2013-11-13 17:12:00,
2013-11-13 10:13:00,45.7,40.8,31.19,NNW,348,0.0,6.0,83,0.00,,,0.01,62.00,VWS V14.00,2013-11-13 17:13:00,
2013-11-13 10:14:00,45.6,40.7,31.19,NNW,348,0.0,6.0,83,0.00,,,0.01,65.00,VWS V14.00,2013-11-13 17:14:00,
2013-11-13 10:15:00,45.5,40.7,31.18,NNW,348,0.0,6.0,83,0.00,,,0.01,72.00,VWS V14.00,2013-11-13 17:15:00,
2013-11-13 10:16:00,45.4,40.5,31.18,NNW,348,0.0,0.0,83,0.00,,,0.01,74.00,VWS V14.00,2013-11-13 17:16:00,
2013-11-13 10:17:00,45.3,40.5,31.19,NNW,348,0.0,0.0,83,0.00,,,0.01,77.00,VWS V14.00,2013-11-13 17:17:00,
2013-11-13 10:18:00,45.2,40.3,31.19,NNW,348,0.0,0.0,83,0.00,,,0.01,81.00,VWS V14.00,2013-11-13 17:18:00,
2013-11-13 10:19:00,45.1,40.6,31.19,NNW,348,0.0,0.0,84,0.00,,,0.01,84.00,VWS V14.00,2013-11-13 17:19:00,
2013-11-13 10:20:00,45.0,40.5,31.19,NNW,348,0.0,0.0,84,0.00,,,0.01,97.00,VWS V14.00,2013-11-13 17:20:00,
2013-11-13 10:21:00,45.0,40.5,31.19,NNW,348,0.0,0.0,84,0.00,,,0.01,105.00,VWS V14.00,2013-11-13 17:21:00,
2013-11-13 10:22:00,45.0,40.5,31.19,NNW,348,0.0,0.0,84,0.00,,,0.01,116.00,VWS V14.00,2013-11-13 17:22:00,
2013-11-13 10:23:00,45.0,40.5,31.19,NNW,348,0.0,0.0,84,0.00,,,0.01,127.00,VWS V14.00,2013-11-13 17:23:00,
2013-11-13 10:24:00,45.0,40.8,31.19,NNW,348,0.0,0.0,85,0.00,,,0.01,139.00,VWS V14.00,2013-11-13 17:24:00,
2013-11-13 10:25:00,44.9,40.7,31.19,NNW,348,0.0,0.0,85,0.00,,,0.01,155.00,VWS V14.00,2013-11-13 17:25:00,
2013-11-13 10:26:00,44.9,40.7,31.19,NNW,348,0.0,0.0,85,0.00,,,0.01,158.00,VWS V14.00,2013-11-13 17:26:00,
2013-11-13 10:27:00,44.9,40.7,31.19,NNW,348,0.0,0.0,85,0.00,,,0.01,158.00,VWS V14.00,2013-11-13 17:27:00,
2013-11-13 10:28:00,44.9,40.7,31.19,NNW,348,0.0,0.0,85,0.00,,,0.01,158.00,VWS V14.00,2013-11-13 17:28:00,
2013-11-13 10:29:00,44.9,40.4,31.19,NNW,348,0.0,0.0,84,0.00,,,0.01,149.00,VWS V14.00,2013-11-13 17:29:00,
2013-11-13 10:30:00,45.0,40.5,31.19,NNW,348,0.0,0.0,84,0.00,,,0.01,141.00,VWS V14.00,2013-11-13 17:30:00,
2013-11-13 10:31:00,45.0,40.5,31.19,NNW,348,0.0,0.0,84,0.00,,,0.01,130.00,VWS V14.00,2013-11-13 17:31:00,
2013-11-13 10:32:00,45.0,40.5,31.19,NNW,348,0.0,0.0,84,0.00,,,0.01,132.00,VWS V14.00,2013-11-13 17:32:00,
2013-11-13 10:33:00,45.0,40.2,31.19,NNW,348,0.0,0.0,83,0.00,,,0.01,127.00,VWS V14.00,2013-11-13 17:33:00,
2013-11-13 10:34:00,45.0,39.8,31.19,NNW,348,0.0,0.0,82,0.00,,,0.01,120.00,VWS V14.00,2013-11-13 17:34:00,
2013-11-13 10:35:00,45.1,39.9,31.19,NNW,348,0.0,0.0,82,0.00,,,0.01,118.00,VWS V14.00,2013-11-13 17:35:00,
2013-11-13 10:36:00,45.1,39.9,31.19,NNW,348,0.0,0.0,82,0.00,,,0.01,113.00,VWS V14.00,2013-11-13 17:36:00,
2013-11-13 10:37:00,45.2,40.0,31.19,NNW,348,0.0,0.0,82,0.00,,,0.01,107.00,VWS V14.00,2013-11-13 17:37:00,
2013-11-13 10:38:00,45.2,40.0,31.19,NNW,348,0.0,0.0,82,0.00,,,0.01,107.00,VWS V14.00,2013-11-13 17:38:00,
2013-11-13 10:39:00,45.3,40.1,31.19,NNW,348,0.0,0.0,82,0.00,,,0.01,107.00,VWS V14.00,2013-11-13 17:39:00,
2013-11-13 10:40:00,45.4,40.2,31.19,NNW,348,0.0,0.0,82,0.00,,,0.01,109.00,VWS V14.00,2013-11-13 17:40:00,
2013-11-13 10:41:00,45.5,40.3,31.19,NNW,348,0.0,0.0,82,0.00,,,0.01,107.00,VWS V14.00,2013-11-13 17:41:00,
2013-11-13 10:42:00,45.6,40.4,31.18,NNW,348,0.0,0.0,82,0.00,,,0.01,107.00,VWS V14.00,2013-11-13 17:42:00,
2013-11-13 10:43:00,45.7,40.5,31.18,North,5,0.0,0.0,82,0.00,,,0.01,107.00,VWS V14.00,2013-11-13 17:43:00,
2013-11-13 10:44:00,45.9,40.4,31.18,North,9,0.0,0.0,81,0.00,,,0.01,179.00,VWS V14.00,2013-11-13 17:44:00,
2013-11-13 10:45:00,46.0,40.5,31.18,North,9,0.0,0.0,81,0.00,,,0.01,114.00,VWS V14.00,2013-11-13 17:45:00,
2013-11-13 10:46:00,46.1,40.9,31.18,North,9,0.0,0.0,82,0.00,,,0.01,111.00,VWS V14.00,2013-11-13 17:46:00,
2013-11-13 10:47:00,46.2,41.0,31.18,North,9,0.0,0.0,82,0.00,,,0.01,113.00,VWS V14.00,2013-11-13 17:47:00,
2013-11-13 10:48:00,46.3,40.8,31.18,North,9,0.0,0.0,81,0.00,,,0.01,114.00,VWS V14.00,2013-11-13 17:48:00,
2013-11-13 10:49:00,46.3,40.5,31.18,North,9,0.0,0.0,80,0.00,,,0.01,125.00,VWS V14.00,2013-11-13 17:49:00,
2013-11-13 10:50:00,46.4,40.2,31.18,North,9,0.0,0.0,79,0.00,,,0.01,123.00,VWS V14.00,2013-11-13 17:50:00,
2013-11-13 10:51:00,46.5,40.3,31.18,North,9,0.0,0.0,79,0.00,,,0.01,123.00,VWS V14.00,2013-11-13 17:51:00,
2013-11-13 10:52:00,46.7,40.5,31.18,North,9,0.0,0.0,79,0.00,,,0.01,123.00,VWS V14.00,2013-11-13 17:52:00,
2013-11-13 10:53:00,46.9,40.7,31.18,North,9,1.0,2.0,79,0.00,,,0.01,102.00,VWS V14.00,2013-11-13 17:53:00,
2013-11-13 10:54:00,47.0,40.5,31.18,North,9,1.0,2.0,78,0.00,,,0.01,95.00,VWS V14.00,2013-11-13 17:54:00,
2013-11-13 10:55:00,47.2,40.7,31.18,North,9,0.0,2.0,78,0.00,,,0.01,97.00,VWS V14.00,2013-11-13 17:55:00,
2013-11-13 10:56:00,47.3,40.8,31.18,North,9,0.0,2.0,78,0.00,,,0.01,102.00,VWS V14.00,2013-11-13 17:56:00,
2013-11-13 10:57:00,47.4,40.9,31.18,North,9,0.0,2.0,78,0.00,,,0.01,100.00,VWS V14.00,2013-11-13 17:57:00,
2013-11-13 10:58:00,47.4,40.6,31.18,North,9,0.0,2.0,77,0.00,,,0.01,100.00,VWS V14.00,2013-11-13 17:58:00,
2013-11-13 10:59:00,47.5,40.7,31.18,North,9,0.0,2.0,77,0.00,,,0.01,102.00,VWS V14.00,2013-11-13 17:59:00,
2013-11-13 11:00:00,47.6,40.4,31.17,North,9,0.0,2.0,76,0.00,,,0.01,100.00,VWS V14.00,2013-11-13 18:00:00,
2013-11-13 11:01:00,47.7,40.5,31.18,North,9,0.0,0.0,76,0.00,,,0.01,102.00,VWS V14.00,2013-11-13 18:01:00,
2013-11-13 11:02:00,47.7,40.5,31.17,North,9,0.0,0.0,76,0.00,,,0.01,109.00,VWS V14.00,2013-11-13 18:02:00,
2013-11-13 11:03:00,47.8,40.6,31.17,North,9,0.0,0.0,76,0.00,,,0.01,120.00,VWS V14.00,2013-11-13 18:03:00,
2013-11-13 11:04:00,47.9,40.4,31.18,North,9,0.0,0.0,75,0.00,,,0.01,128.00,VWS V14.00,2013-11-13 18:04:00,
2013-11-13 11:05:00,48.0,40.1,31.18,SE,140,2.0,4.0,74,0.00,,,0.01,134.00,VWS V14.00,2013-11-13 18:05:00,
2013-11-13 11:06:00,48.1,39.9,31.18,SE,137,3.0,4.0,73,0.00,,,0.01,130.00,VWS V14.00,2013-11-13 18:06:00,
2013-11-13 11:07:00,48.1,39.9,31.17,SSE,150,2.0,4.0,73,0.00,,,0.01,128.00,VWS V14.00,2013-11-13 18:07:00,
2013-11-13 11:08:00,48.2,40.0,31.17,SSE,157,6.0,6.0,73,0.00,,,0.01,132.00,VWS V14.00,2013-11-13 18:08:00,
2013-11-13 11:09:00,48.3,39.7,31.17,SSE,150,4.0,6.0,72,0.00,,,0.01,141.00,VWS V14.00,2013-11-13 18:09:00,
2013-11-13 11:10:00,48.4,39.8,31.17,SSE,149,2.0,6.0,72,0.00,,,0.01,151.00,VWS V14.00,2013-11-13 18:10:00,
2013-11-13 11:11:00,48.5,40.2,31.17,SSE,156,4.0,6.0,73,0.00,,,0.01,155.00,VWS V14.00,2013-11-13 18:11:00,
2013-11-13 11:12:00,48.6,40.0,31.17,SSE,164,5.0,6.0,72,0.00,,,0.01,151.00,VWS V14.00,2013-11-13 18:12:00,
2013-11-13 11:13:00,48.7,40.1,31.17,SSE,163,5.0,6.0,72,0.00,,,0.01,163.00,VWS V14.00,2013-11-13 18:13:00,
2013-11-13 11:14:00,48.7,40.1,31.17,SSE,161,5.0,6.0,72,0.00,,,0.01,171.00,VWS V14.00,2013-11-13 18:14:00,
2013-11-13 11:15:00,48.7,40.1,31.17,SSE,166,5.0,7.0,72,0.00,,,0.01,172.00,VWS V14.00,2013-11-13 18:15:00,
2013-11-13 11:16:00,48.8,40.2,31.17,SSE,157,6.0,7.0,72,0.00,,,0.01,162.00,VWS V14.00,2013-11-13 18:16:00,
2013-11-13 11:17:00,48.8,39.8,31.16,SSE,155,9.0,11.0,71,0.00,,,0.01,160.00,VWS V14.00,2013-11-13 18:17:00,
2013-11-13 11:18:00,48.9,40.3,31.16,SSE,149,6.0,11.0,72,0.00,,,0.01,504.00,VWS V14.00,2013-11-13 18:18:00,
2013-11-13 11:19:00,49.0,40.0,31.16,SSE,159,4.0,11.0,71,0.00,,,0.01,513.00,VWS V14.00,2013-11-13 18:19:00,
2013-11-13 11:20:00,49.1,40.8,31.16,SE,136,4.0,11.0,73,0.00,,,0.01,519.00,VWS V14.00,2013-11-13 18:20:00,
2013-11-13 11:21:00,49.2,40.2,31.16,SSE,162,5.0,11.0,71,0.00,,,0.01,522.00,VWS V14.00,2013-11-13 18:21:00,
2013-11-13 11:22:00,49.4,40.4,31.16,SSE,156,7.0,11.0,71,0.00,,,0.01,531.00,VWS V14.00,2013-11-13 18:22:00,
2013-11-13 11:23:00,49.5,40.5,31.16,SSE,152,4.0,11.0,71,0.00,,,0.01,543.00,VWS V14.00,2013-11-13 18:23:00,
2013-11-13 11:24:00,49.8,41.2,31.15,South,188,6.0,11.0,72,0.00,,,0.01,547.00,VWS V14.00,2013-11-13 18:24:00,
2013-11-13 11:25:00,50.0,40.2,31.14,South,175,3.0,11.0,69,0.00,,,0.01,550.00,VWS V14.00,2013-11-13 18:25:00,
2013-11-13 11:26:00,50.4,40.2,31.14,South,172,3.0,11.0,68,0.00,,,0.01,554.00,VWS V14.00,2013-11-13 18:26:00,
2013-11-13 11:27:00,50.8,40.2,31.15,SSW,200,5.0,11.0,67,0.00,,,0.01,555.00,VWS V14.00,2013-11-13 18:27:00,
2013-11-13 11:28:00,51.2,39.5,31.15,SSW,202,5.0,11.0,64,0.00,,,0.01,557.00,VWS V14.00,2013-11-13 18:28:00,
2013-11-13 11:29:00,51.5,39.3,31.15,South,189,4.0,11.0,63,0.00,,,0.01,557.00,VWS V14.00,2013-11-13 18:29:00,
2013-11-13 11:30:00,51.9,39.3,31.14,South,190,10.0,11.0,62,0.00,,,0.01,555.00,VWS V14.00,2013-11-13 18:30:00,
2013-11-13 11:31:00,52.3,38.8,31.15,SSW,193,7.0,10.0,60,0.00,,,0.01,545.00,VWS V14.00,2013-11-13 18:31:00,
2013-11-13 11:32:00,52.6,39.1,31.15,SSW,196,2.0,10.0,60,0.00,,,0.01,541.00,VWS V14.00,2013-11-13 18:32:00,
2013-11-13 11:33:00,52.8,38.5,31.15,SSW,198,5.0,10.0,58,0.00,,,0.01,545.00,VWS V14.00,2013-11-13 18:33:00,
2013-11-13 11:34:00,53.0,37.7,31.15,SSW,198,5.0,10.0,56,0.00,,,0.01,545.00,VWS V14.00,2013-11-13 18:34:00,
2013-11-13 11:35:00,53.1,37.8,31.15,SSW,196,5.0,10.0,56,0.00,,,0.01,153.00,VWS V14.00,2013-11-13 18:35:00,
2013-11-13 11:36:00,53.2,38.4,31.15,South,190,2.0,10.0,57,0.00,,,0.01,462.00,VWS V14.00,2013-11-13 18:36:00,
2013-11-13 11:37:00,53.4,39.5,31.15,SSW,194,2.0,10.0,59,0.00,,,0.01,462.00,VWS V14.00,2013-11-13 18:37:00,
2013-11-13 11:38:00,53.5,39.5,31.15,SSW,196,1.0,10.0,59,0.00,,,0.01,462.00,VWS V14.00,2013-11-13 18:38:00,
2013-11-13 11:39:00,53.6,39.2,31.14,SSW,195,0.0,10.0,58,0.00,,,0.01,121.00,VWS V14.00,2013-11-13 18:39:00,
2013-11-13 11:40:00,53.6,38.8,31.14,SSW,195,0.0,10.0,57,0.00,,,0.01,123.00,VWS V14.00,2013-11-13 18:40:00,
2013-11-13 11:41:00,53.6,38.8,31.14,SSW,202,5.0,10.0,57,0.00,,,0.01,127.00,VWS V14.00,2013-11-13 18:41:00,
2013-11-13 11:42:00,53.6,38.3,31.14,NW,316,5.0,10.0,56,0.00,,,0.01,139.00,VWS V14.00,2013-11-13 18:42:00,
2013-11-13 11:43:00,53.5,38.2,31.14,NNW,338,6.0,10.0,56,0.00,,,0.01,146.00,VWS V14.00,2013-11-13 18:43:00,
2013-11-13 11:44:00,53.4,39.5,31.14,NNW,341,5.0,10.0,59,0.00,,,0.01,151.00,VWS V14.00,2013-11-13 18:44:00,
2013-11-13 11:45:00,53.2,39.3,31.15,NW,317,7.0,10.0,59,0.00,,,0.01,190.00,VWS V14.00,2013-11-13 18:45:00,
2013-11-13 11:46:00,53.0,38.6,31.15,NW,309,0.0,7.0,58,0.00,,,0.01,176.00,VWS V14.00,2013-11-13 18:46:00,
2013-11-13 11:47:00,52.8,38.9,31.15,NW,309,1.0,7.0,59,0.00,,,0.01,172.00,VWS V14.00,2013-11-13 18:47:00,
2013-11-13 11:48:00,52.6,39.1,31.15,NW,309,4.0,7.0,60,0.00,,,0.01,172.00,VWS V14.00,2013-11-13 18:48:00,
2013-11-13 11:49:00,52.6,39.1,31.15,WNW,292,5.0,7.0,60,0.00,,,0.01,172.00,VWS V14.00,2013-11-13 18:49:00,
2013-11-13 11:50:00,52.5,39.0,31.15,NNW,338,10.0,10.0,60,0.00,,,0.01,183.00,VWS V14.00,2013-11-13 18:50:00,
2013-11-13 11:51:00,52.3,38.0,31.15,NNW,346,6.0,10.0,58,0.00,,,0.01,185.00,VWS V14.00,2013-11-13 18:51:00,
2013-11-13 11:52:00,52.0,38.6,31.15,NNW,327,5.0,11.0,60,0.00,,,0.01,176.00,VWS V14.00,2013-11-13 18:52:00,
2013-11-13 11:53:00,51.8,38.4,31.15,NW,315,5.0,11.0,60,0.00,,,0.01,158.00,VWS V14.00,2013-11-13 18:53:00,
2013-11-13 11:54:00,51.6,38.2,31.15,NW,316,4.0,11.0,60,0.00,,,0.01,156.00,VWS V14.00,2013-11-13 18:54:00,
2013-11-13 11:55:00,51.5,37.7,31.15,NW,322,4.0,11.0,59,0.00,,,0.01,172.00,VWS V14.00,2013-11-13 18:55:00,
2013-11-13 11:56:00,51.4,37.6,31.15,NW,326,2.0,11.0,59,0.00,,,0.01,172.00,VWS V14.00,2013-11-13 18:56:00,
2013-11-13 11:57:00,51.3,37.9,31.16,North,360,5.0,11.0,60,0.00,,,0.01,176.00,VWS V14.00,2013-11-13 18:57:00,
2013-11-13 11:58:00,51.2,38.2,31.16,North,350,2.0,11.0,61,0.00,,,0.01,199.00,VWS V14.00,2013-11-13 18:58:00,
2013-11-13 11:59:00,51.2,39.5,31.16,NNW,341,7.0,11.0,64,0.00,,,0.01,199.00,VWS V14.00,2013-11-13 18:59:00,
2013-11-13 12:00:00,51.1,39.0,31.16,NNW,330,5.0,11.0,63,0.00,,,0.01,151.00,VWS V14.00,2013-11-13 19:00:00,
2013-11-13 12:01:00,51.0,38.5,31.15,NNW,342,6.0,8.0,62,0.00,,,0.01,162.00,VWS V14.00,2013-11-13 19:01:00,
2013-11-13 12:02:00,51.0,38.5,31.15,North,350,3.0,8.0,62,0.00,,,0.01,156.00,VWS V14.00,2013-11-13 19:02:00,
2013-11-13 12:03:00,50.9,38.8,31.15,North,350,3.0,8.0,63,0.00,,,0.01,158.00,VWS V14.00,2013-11-13 19:03:00,
2013-11-13 12:04:00,50.9,38.8,31.14,North,350,3.0,8.0,63,0.00,,,0.01,165.00,VWS V14.00,2013-11-13 19:04:00,
2013-11-13 12:05:00,50.9,39.2,31.14,North,350,4.0,8.0,64,0.00,,,0.01,183.00,VWS V14.00,2013-11-13 19:05:00,
2013-11-13 12:06:00,50.8,38.7,31.14,North,350,5.0,8.0,63,0.00,,,0.01,267.00,VWS V14.00,2013-11-13 19:06:00,
2013-11-13 12:07:00,50.8,38.7,31.14,North,349,4.0,8.0,63,0.00,,,0.01,193.00,VWS V14.00,2013-11-13 19:07:00,
2013-11-13 12:08:00,50.8,39.1,31.14,North,349,5.0,8.0,64,0.00,,,0.01,172.00,VWS V14.00,2013-11-13 19:08:00,
2013-11-13 12:09:00,50.7,39.0,31.14,North,350,5.0,8.0,64,0.00,,,0.01,167.00,VWS V14.00,2013-11-13 19:09:00,
2013-11-13 12:10:00,50.7,37.8,31.13,NNW,342,7.0,8.0,61,0.00,,,0.01,165.00,VWS V14.00,2013-11-13 19:10:00,
2013-11-13 12:11:00,50.7,37.8,31.13,NNW,338,5.0,8.0,61,0.00,,,0.01,171.00,VWS V14.00,2013-11-13 19:11:00,
2013-11-13 12:12:00,50.7,37.8,31.13,NNW,336,7.0,8.0,61,0.00,,,0.01,172.00,VWS V14.00,2013-11-13 19:12:00,
2013-11-13 12:13:00,50.6,37.2,31.13,NNW,337,6.0,9.0,60,0.00,,,0.01,171.00,VWS V14.00,2013-11-13 19:13:00,
2013-11-13 12:14:00,50.6,37.7,31.13,NNW,333,5.0,9.0,61,0.00,,,0.01,167.00,VWS V14.00,2013-11-13 19:14:00,
2013-11-13 12:15:00,50.6,38.1,31.14,NNW,336,4.0,9.0,62,0.00,,,0.01,167.00,VWS V14.00,2013-11-13 19:15:00,
2013-11-13 12:16:00,50.6,37.7,31.14,NNW,335,8.0,8.0,61,0.00,,,0.01,146.00,VWS V14.00,2013-11-13 19:16:00,
2013-11-13 12:17:00,50.6,36.8,31.14,NNW,333,4.0,8.0,59,0.00,,,0.01,135.00,VWS V14.00,2013-11-13 19:17:00,
2013-11-13 12:18:00,50.6,37.2,31.14,NNW,336,7.0,8.0,60,0.00,,,0.01,123.00,VWS V14.00,2013-11-13 19:18:00,
2013-11-13 12:19:00,50.6,37.2,31.14,NNW,330,9.0,9.0,60,0.00,,,0.01,107.00,VWS V14.00,2013-11-13 19:19:00,
2013-11-13 12:20:00,50.6,36.8,31.14,NNW,327,6.0,10.0,59,0.00,,,0.01,98.00,VWS V14.00,2013-11-13 19:20:00,
2013-11-13 12:21:00,50.6,36.8,31.14,NW,313,6.0,10.0,59,0.00,,,0.01,95.00,VWS V14.00,2013-11-13 19:21:00,
2013-11-13 12:22:00,50.6,37.2,31.15,NW,317,5.0,10.0,60,0.00,,,0.01,93.00,VWS V14.00,2013-11-13 19:22:00,
2013-11-13 12:23:00,50.6,37.7,31.14,NW,307,10.0,10.0,61,0.00,,,0.01,93.00,VWS V14.00,2013-11-13 19:23:00,
2013-11-13 12:24:00,50.5,36.3,31.14,NNW,340,8.0,10.0,58,0.00,,,0.01,97.00,VWS V14.00,2013-11-13 19:24:00,
2013-11-13 12:25:00,50.5,36.7,31.15,NNW,336,6.0,10.0,59,0.00,,,0.01,100.00,VWS V14.00,2013-11-13 19:25:00,
2013-11-13 12:26:00,50.5,37.2,31.14,NW,307,14.0,14.0,60,0.00,,,0.01,105.00,VWS V14.00,2013-11-13 19:26:00,
2013-11-13 12:27:00,50.4,35.8,31.14,NW,306,9.0,14.0,57,0.00,,,0.01,111.00,VWS V14.00,2013-11-13 19:27:00,
2013-11-13 12:28:00,50.4,35.8,31.16,NW,311,11.0,14.0,57,0.00,,,0.01,113.00,VWS V14.00,2013-11-13 19:28:00,
2013-11-13 12:29:00,50.3,35.7,31.16,WNW,300,12.0,15.0,57,0.00,,,0.01,105.00,VWS V14.00,2013-11-13 19:29:00,
2013-11-13 12:30:00,50.3,35.7,31.15,NW,307,13.0,15.0,57,0.00,,,0.01,102.00,VWS V14.00,2013-11-13 19:30:00,
2013-11-13 12:31:00,50.2,35.6,31.16,WNW,299,8.0,12.0,57,0.00,,,0.01,100.00,VWS V14.00,2013-11-13 19:31:00,
2013-11-13 12:32:00,50.1,35.9,31.16,WNW,294,10.0,12.0,58,0.00,,,0.01,102.00,VWS V14.00,2013-11-13 19:32:00,
2013-11-13 12:33:00,50.1,35.5,31.16,NW,309,9.0,12.0,57,0.00,,,0.01,104.00,VWS V14.00,2013-11-13 19:33:00,
2013-11-13 12:34:00,50.0,35.4,31.16,NW,309,8.0,12.0,57,0.00,,,0.01,111.00,VWS V14.00,2013-11-13 19:34:00,
2013-11-13 12:35:00,50.0,35.8,31.16,NW,304,9.0,12.0,58,0.00,,,0.01,134.00,VWS V14.00,2013-11-13 19:35:00,
2013-11-13 12:36:00,49.9,35.7,31.16,WNW,292,11.0,13.0,58,0.00,,,0.01,127.00,VWS V14.00,2013-11-13 19:36:00,
2013-11-13 12:37:00,49.9,35.3,31.16,WNW,288,7.0,13.0,57,0.00,,,0.01,130.00,VWS V14.00,2013-11-13 19:37:00,
2013-11-13 12:38:00,49.9,35.7,31.16,WNW,294,7.0,13.0,58,0.00,,,0.01,134.00,VWS V14.00,2013-11-13 19:38:00,
2013-11-13 12:39:00,49.9,35.7,31.16,WNW,294,7.0,13.0,58,0.00,,,0.01,135.00,VWS V14.00,2013-11-13 19:39:00,
2013-11-13 12:40:00,49.9,35.7,31.16,WNW,299,6.0,13.0,58,0.00,,,0.01,156.00,VWS V14.00,2013-11-13 19:40:00,
2013-11-13 12:41:00,49.8,35.6,31.16,WNW,291,10.0,13.0,58,0.00,,,0.01,176.00,VWS V14.00,2013-11-13 19:41:00,
2013-11-13 12:42:00,49.8,35.6,31.16,WNW,285,7.0,13.0,58,0.00,,,0.01,181.00,VWS V14.00,2013-11-13 19:42:00,
2013-11-13 12:43:00,49.9,36.2,31.16,WNW,294,4.0,13.0,59,0.00,,,0.01,207.00,VWS V14.00,2013-11-13 19:43:00,
2013-11-13 12:44:00,49.9,36.2,31.15,WNW,296,6.0,13.0,59,0.00,,,0.01,253.00,VWS V14.00,2013-11-13 19:44:00,
2013-11-13 12:45:00,49.9,36.2,31.15,WNW,300,5.0,13.0,59,0.00,,,0.01,364.00,VWS V14.00,2013-11-13 19:45:00,
2013-11-13 12:46:00,49.9,36.2,31.15,WNW,296,4.0,6.0,59,0.00,,,0.01,396.00,VWS V14.00,2013-11-13 19:46:00,
2013-11-13 12:47:00,49.9,36.2,31.15,WNW,286,10.0,10.0,59,0.00,,,0.01,415.00,VWS V14.00,2013-11-13 19:47:00,
2013-11-13 12:48:00,50.0,35.8,31.15,NW,306,9.0,10.0,58,0.00,,,0.01,443.00,VWS V14.00,2013-11-13 19:48:00,
2013-11-13 12:49:00,50.1,35.9,31.15,WNW,286,9.0,11.0,58,0.00,,,0.01,478.00,VWS V14.00,2013-11-13 19:49:00,
2013-11-13 12:50:00,50.3,35.7,31.15,WNW,292,10.0,12.0,57,0.00,,,0.01,512.00,VWS V14.00,2013-11-13 19:50:00,
2013-11-13 12:51:00,50.5,37.2,31.15,WNW,294,7.0,12.0,60,0.00,,,0.01,547.00,VWS V14.00,2013-11-13 19:51:00,
2013-11-13 12:52:00,50.6,36.4,31.15,West,277,5.0,12.0,58,0.00,,,0.01,547.00,VWS V14.00,2013-11-13 19:52:00,
2013-11-13 12:53:00,50.8,36.1,31.14,WNW,283,7.0,12.0,57,0.00,,,0.01,547.00,VWS V14.00,2013-11-13 19:53:00,
2013-11-13 12:54:00,51.0,35.9,31.14,WNW,284,5.0,12.0,56,0.00,,,0.01,547.00,VWS V14.00,2013-11-13 19:54:00,
2013-11-13 12:55:00,51.1,36.4,31.15,NW,321,9.0,12.0,57,0.00,,,0.01,547.00,VWS V14.00,2013-11-13 19:55:00,
2013-11-13 12:56:00,51.3,36.6,31.14,West,277,6.0,12.0,57,0.00,,,0.01,547.00,VWS V14.00,2013-11-13 19:56:00,
2013-11-13 12:57:00,51.5,37.2,31.14,WNW,293,3.0,12.0,58,0.00,,,0.01,515.00,VWS V14.00,2013-11-13 19:57:00,
2013-11-13 12:58:00,51.7,37.4,31.14,West,275,4.0,12.0,58,0.00,,,0.01,503.00,VWS V14.00,2013-11-13 19:58:00,
2013-11-13 12:59:00,51.9,36.7,31.14,WNW,297,11.0,13.0,56,0.00,,,0.01,506.00,VWS V14.00,2013-11-13 19:59:00,
2013-11-13 13:00:00,52.2,35.1,31.14,West,269,12.0,13.0,52,0.00,,,0.01,506.00,VWS V14.00,2013-11-13 20:00:00,
2013-11-13 13:01:00,52.3,34.7,31.14,West,268,11.0,12.0,51,0.00,,,0.01,316.00,VWS V14.00,2013-11-13 20:01:00,
2013-11-13 13:02:00,52.5,34.4,31.14,West,270,7.0,14.0,50,0.00,,,0.01,316.00,VWS V14.00,2013-11-13 20:02:00,
2013-11-13 13:03:00,52.5,34.9,31.14,West,267,10.0,14.0,51,0.00,,,0.01,316.00,VWS V14.00,2013-11-13 20:03:00,
2013-11-13 13:04:00,52.5,34.9,31.14,WSW,242,0.0,14.0,51,0.00,,,0.01,160.00,VWS V14.00,2013-11-13 20:04:00,
2013-11-13 13:05:00,52.6,35.5,31.13,WSW,242,0.0,14.0,52,0.00,,,0.01,160.00,VWS V14.00,2013-11-13 20:05:00,
2013-11-13 13:06:00,52.6,35.5,31.13,SSE,163,0.0,14.0,52,0.00,,,0.01,383.00,VWS V14.00,2013-11-13 20:06:00,
2013-11-13 13:07:00,52.8,35.2,31.13,SSE,165,0.0,14.0,51,0.00,,,0.01,383.00,VWS V14.00,2013-11-13 20:07:00,
2013-11-13 13:08:00,52.9,34.8,31.14,SSE,165,0.0,14.0,50,0.00,,,0.01,490.00,VWS V14.00,2013-11-13 20:08:00,
2013-11-13 13:09:00,53.1,34.0,31.13,SW,221,3.0,14.0,48,0.00,,,0.01,489.00,VWS V14.00,2013-11-13 20:09:00,
2013-11-13 13:10:00,53.3,34.1,31.13,West,263,4.0,14.0,48,0.00,,,0.01,489.00,VWS V14.00,2013-11-13 20:10:00,
2013-11-13 13:11:00,53.5,34.3,31.14,WSW,250,0.0,14.0,48,0.00,,,0.01,494.00,VWS V14.00,2013-11-13 20:11:00,
2013-11-13 13:12:00,53.7,34.5,31.12,WSW,256,5.0,14.0,48,0.00,,,0.01,492.00,VWS V14.00,2013-11-13 20:12:00,
2013-11-13 13:13:00,53.8,34.1,31.12,WSW,246,8.0,14.0,47,0.00,,,0.01,490.00,VWS V14.00,2013-11-13 20:13:00,
2013-11-13 13:14:00,54.0,33.7,31.12,WNW,291,10.0,15.0,46,0.00,,,0.01,490.00,VWS V14.00,2013-11-13 20:14:00,
2013-11-13 13:15:00,54.1,33.2,31.12,West,268,10.0,15.0,45,0.00,,,0.01,503.00,VWS V14.00,2013-11-13 20:15:00,
2013-11-13 13:16:00,54.1,33.2,31.12,WSW,257,7.0,13.0,45,0.00,,,0.01,510.00,VWS V14.00,2013-11-13 20:16:00,
2013-11-13 13:17:00,54.1,32.7,31.12,WSW,241,5.0,14.0,44,0.00,,,0.01,519.00,VWS V14.00,2013-11-13 20:17:00,
2013-11-13 13:18:00,54.1,33.8,31.13,SW,232,0.0,14.0,46,0.00,,,0.01,443.00,VWS V14.00,2013-11-13 20:18:00,
2013-11-13 13:19:00,54.2,33.3,31.13,West,278,0.0,14.0,45,0.00,,,0.01,443.00,VWS V14.00,2013-11-13 20:19:00,
2013-11-13 13:20:00,54.3,34.0,31.13,SSW,200,2.0,14.0,46,0.00,,,0.01,443.00,VWS V14.00,2013-11-13 20:20:00,
2013-11-13 13:21:00,54.4,33.0,31.13,SSW,200,0.0,14.0,44,0.00,,,0.01,292.00,VWS V14.00,2013-11-13 20:21:00,
2013-11-13 13:22:00,54.4,33.0,31.13,SSW,199,0.0,14.0,44,0.00,,,0.01,241.00,VWS V14.00,2013-11-13 20:22:00,
2013-11-13 13:23:00,54.4,33.0,31.13,SSW,202,0.0,14.0,44,0.00,,,0.01,227.00,VWS V14.00,2013-11-13 20:23:00,
2013-11-13 13:24:00,54.4,32.4,31.13,WSW,249,5.0,14.0,43,0.00,,,0.01,227.00,VWS V14.00,2013-11-13 20:24:00,
2013-11-13 13:25:00,54.4,32.4,31.13,West,264,1.0,14.0,43,0.00,,,0.01,236.00,VWS V14.00,2013-11-13 20:25:00,
2013-11-13 13:26:00,54.4,33.0,31.13,West,264,0.0,14.0,44,0.00,,,0.01,243.00,VWS V14.00,2013-11-13 20:26:00,
2013-11-13 13:27:00,54.3,33.4,31.13,West,264,0.0,14.0,45,0.00,,,0.01,225.00,VWS V14.00,2013-11-13 20:27:00,
2013-11-13 13:28:00,54.3,33.4,31.13,WSW,258,1.0,14.0,45,0.00,,,0.01,225.00,VWS V14.00,2013-11-13 20:28:00,
2013-11-13 13:29:00,54.3,33.4,31.13,WSW,245,4.0,14.0,45,0.00,,,0.01,225.00,VWS V14.00,2013-11-13 20:29:00,
2013-11-13 13:30:00,54.2,32.8,31.13,West,276,6.0,14.0,44,0.00,,,0.01,225.00,VWS V14.00,2013-11-13 20:30:00,
2013-11-13 13:31:00,54.2,33.3,31.13,WNW,288,3.0,13.0,45,0.00,,,0.01,225.00,VWS V14.00,2013-11-13 20:31:00,
2013-11-13 13:32:00,54.2,32.8,31.13,West,275,4.0,13.0,44,0.00,,,0.01,345.00,VWS V14.00,2013-11-13 20:32:00,
2013-11-13 13:33:00,54.2,32.8,31.13,WSW,247,0.0,13.0,44,0.00,,,0.01,466.00,VWS V14.00,2013-11-13 20:33:00,
2013-11-13 13:34:00,54.3,33.4,31.13,South,177,1.0,13.0,45,0.00,,,0.01,519.00,VWS V14.00,2013-11-13 20:34:00,
2013-11-13 13:35:00,54.3,32.9,31.13,WNW,299,1.0,13.0,44,0.00,,,0.01,468.00,VWS V14.00,2013-11-13 20:35:00,
2013-11-13 13:36:00,54.4,35.1,31.13,West,267,11.0,17.0,48,0.00,,,0.01,524.00,VWS V14.00,2013-11-13 20:36:00,
2013-11-13 13:37:00,54.4,34.6,31.13,WNW,283,11.0,17.0,47,0.00,,,0.01,524.00,VWS V14.00,2013-11-13 20:37:00,
2013-11-13 13:38:00,54.3,34.5,31.13,NW,309,11.0,17.0,47,0.00,,,0.01,450.00,VWS V14.00,2013-11-13 20:38:00,
2013-11-13 13:39:00,54.2,33.9,31.13,NW,317,9.0,17.0,46,0.00,,,0.01,450.00,VWS V14.00,2013-11-13 20:39:00,
2013-11-13 13:40:00,54.0,33.7,31.13,WNW,300,11.0,17.0,46,0.00,,,0.01,450.00,VWS V14.00,2013-11-13 20:40:00,
2013-11-13 13:41:00,53.9,34.2,31.13,West,273,7.0,17.0,47,0.00,,,0.01,432.00,VWS V14.00,2013-11-13 20:41:00,
2013-11-13 13:42:00,53.7,35.0,31.14,WNW,301,11.0,17.0,49,0.00,,,0.01,420.00,VWS V14.00,2013-11-13 20:42:00,
2013-11-13 13:43:00,53.6,34.4,31.14,West,281,9.0,17.0,48,0.00,,,0.01,413.00,VWS V14.00,2013-11-13 20:43:00,
2013-11-13 13:44:00,53.5,34.3,31.13,WNW,289,5.0,17.0,48,0.00,,,0.01,413.00,VWS V14.00,2013-11-13 20:44:00,
2013-11-13 13:45:00,53.5,34.3,31.13,West,280,9.0,17.0,48,0.00,,,0.01,418.00,VWS V14.00,2013-11-13 20:45:00,
2013-11-13 13:46:00,53.5,34.8,31.13,WNW,285,10.0,14.0,49,0.00,,,0.01,413.00,VWS V14.00,2013-11-13 20:46:00,
2013-11-13 13:47:00,53.4,34.2,31.14,West,272,4.0,16.0,48,0.00,,,0.01,417.00,VWS V14.00,2013-11-13 20:47:00,
2013-11-13 13:48:00,53.4,34.2,31.14,WNW,291,9.0,16.0,48,0.00,,,0.01,406.00,VWS V14.00,2013-11-13 20:48:00,
2013-11-13 13:49:00,53.3,33.6,31.14,WNW,283,8.0,16.0,47,0.00,,,0.01,429.00,VWS V14.00,2013-11-13 20:49:00,
2013-11-13 13:50:00,53.3,33.6,31.14,WNW,290,10.0,16.0,47,0.00,,,0.01,429.00,VWS V14.00,2013-11-13 20:50:00,
2013-11-13 13:51:00,53.2,34.0,31.13,West,271,9.0,16.0,48,0.00,,,0.01,429.00,VWS V14.00,2013-11-13 20:51:00,
2013-11-13 13:52:00,53.1,34.5,31.14,West,279,6.0,16.0,49,0.00,,,0.01,107.00,VWS V14.00,2013-11-13 20:52:00,
2013-11-13 13:53:00,53.0,33.8,31.13,West,267,5.0,16.0,48,0.00,,,0.01,98.00,VWS V14.00,2013-11-13 20:53:00,
2013-11-13 13:54:00,52.9,34.3,31.13,WNW,283,5.0,16.0,49,0.00,,,0.01,90.00,VWS V14.00,2013-11-13 20:54:00,
2013-11-13 13:55:00,52.7,34.1,31.13,NW,308,6.0,16.0,49,0.00,,,0.01,100.00,VWS V14.00,2013-11-13 20:55:00,
2013-11-13 13:56:00,52.5,34.4,31.13,NW,304,7.0,16.0,50,0.00,,,0.01,114.00,VWS V14.00,2013-11-13 20:56:00,
2013-11-13 13:57:00,52.3,33.7,31.13,NW,321,6.0,16.0,49,0.00,,,0.01,114.00,VWS V14.00,2013-11-13 20:57:00,
2013-11-13 13:58:00,52.1,34.0,31.13,NW,304,2.0,16.0,50,0.00,,,0.01,100.00,VWS V14.00,2013-11-13 20:58:00,
2013-11-13 13:59:00,51.9,34.4,31.13,NW,319,6.0,16.0,51,0.00,,,0.01,120.00,VWS V14.00,2013-11-13 20:59:00,
2013-11-13 14:00:00,51.7,33.7,31.13,NW,311,2.0,16.0,50,0.00,,,0.01,120.00,VWS V14.00,2013-11-13 21:00:00,
2013-11-13 14:01:00,51.5,33.5,31.13,NW,326,8.0,8.0,50,0.00,,,0.01,380.00,VWS V14.00,2013-11-13 21:01:00,
2013-11-13 14:02:00,51.5,34.0,31.13,WNW,289,11.0,11.0,51,0.00,,,0.01,378.00,VWS V14.00,2013-11-13 21:02:00,
2013-11-13 14:03:00,51.4,33.4,31.13,NNW,330,9.0,11.0,50,0.00,,,0.01,378.00,VWS V14.00,2013-11-13 21:03:00,
2013-11-13 14:04:00,51.4,33.4,31.14,NW,321,5.0,11.0,50,0.00,,,0.01,364.00,VWS V14.00,2013-11-13 21:04:00,
2013-11-13 14:05:00,51.4,33.9,31.14,NNW,342,8.0,11.0,51,0.00,,,0.01,274.00,VWS V14.00,2013-11-13 21:05:00,
2013-11-13 14:06:00,51.4,33.4,31.14,NNW,337,5.0,11.0,50,0.00,,,0.01,374.00,VWS V14.00,2013-11-13 21:06:00,
2013-11-13 14:07:00,51.4,33.9,31.14,NNW,333,5.0,11.0,51,0.00,,,0.01,378.00,VWS V14.00,2013-11-13 21:07:00,
2013-11-13 14:08:00,51.4,34.4,31.14,WNW,288,6.0,11.0,52,0.00,,,0.01,172.00,VWS V14.00,2013-11-13 21:08:00,
2013-11-13 14:09:00,51.4,34.4,31.14,NW,309,7.0,11.0,52,0.00,,,0.01,172.00,VWS V14.00,2013-11-13 21:09:00,
2013-11-13 14:10:00,51.3,34.3,31.14,WNW,302,5.0,11.0,52,0.00,,,0.01,285.00,VWS V14.00,2013-11-13 21:10:00,
2013-11-13 14:11:00,51.2,34.7,31.14,NNW,327,12.0,12.0,53,0.00,,,0.01,285.00,VWS V14.00,2013-11-13 21:11:00,
2013-11-13 14:12:00,51.1,34.1,31.14,NW,314,10.0,14.0,52,0.00,,,0.01,285.00,VWS V14.00,2013-11-13 21:12:00,
2013-11-13 14:13:00,50.9,34.4,31.14,NW,313,7.0,14.0,53,0.00,,,0.01,148.00,VWS V14.00,2013-11-13 21:13:00,
2013-11-13 14:14:00,50.7,34.2,31.15,WNW,288,6.0,14.0,53,0.00,,,0.01,146.00,VWS V14.00,2013-11-13 21:14:00,
2013-11-13 14:15:00,50.5,34.5,31.14,NW,316,11.0,14.0,54,0.00,,,0.01,142.00,VWS V14.00,2013-11-13 21:15:00,
2013-11-13 14:16:00,50.3,34.3,31.15,NW,311,13.0,13.0,54,0.00,,,0.01,142.00,VWS V14.00,2013-11-13 21:16:00,
2013-11-13 14:17:00,50.1,34.6,31.15,NNW,331,10.0,14.0,55,0.00,,,0.01,142.00,VWS V14.00,2013-11-13 21:17:00,
2013-11-13 14:18:00,50.0,34.9,31.15,NNW,330,10.0,14.0,56,0.00,,,0.01,139.00,VWS V14.00,2013-11-13 21:18:00,
2013-11-13 14:19:00,49.7,34.7,31.15,NW,309,14.0,17.0,56,0.00,,,0.01,137.00,VWS V14.00,2013-11-13 21:19:00,
2013-11-13 14:20:00,49.5,34.0,31.15,WNW,301,19.0,19.0,55,0.00,,,0.01,130.00,VWS V14.00,2013-11-13 21:20:00,
2013-11-13 14:21:00,49.3,34.3,31.15,NW,314,16.0,19.0,56,0.00,,,0.01,127.00,VWS V14.00,2013-11-13 21:21:00,
2013-11-13 14:22:00,49.1,34.1,31.16,NW,322,11.0,19.0,56,0.00,,,0.01,128.00,VWS V14.00,2013-11-13 21:22:00,
2013-11-13 14:23:00,48.8,34.3,31.16,NW,319,14.0,19.0,57,0.00,,,0.01,132.00,VWS V14.00,2013-11-13 21:23:00,
2013-11-13 14:24:00,48.7,34.6,31.16,NW,315,17.0,19.0,58,0.00,,,0.01,125.00,VWS V14.00,2013-11-13 21:24:00,
2013-11-13 14:25:00,48.5,34.0,31.16,NW,313,13.0,19.0,57,0.00,,,0.01,118.00,VWS V14.00,2013-11-13 21:25:00,
2013-11-13 14:26:00,48.3,34.2,31.16,NW,312,12.0,19.0,58,0.00,,,0.01,114.00,VWS V14.00,2013-11-13 21:26:00,
2013-11-13 14:27:00,48.2,34.1,31.17,NW,304,12.0,19.0,58,0.00,,,0.01,113.00,VWS V14.00,2013-11-13 21:27:00,
2013-11-13 14:28:00,48.1,35.3,31.17,WNW,298,15.0,19.0,61,0.00,,,0.01,114.00,VWS V14.00,2013-11-13 21:28:00,
2013-11-13 14:29:00,48.0,33.9,31.17,NW,307,11.0,19.0,58,0.00,,,0.01,114.00,VWS V14.00,2013-11-13 21:29:00,
2013-11-13 14:30:00,48.0,33.5,31.17,NW,315,12.0,19.0,57,0.00,,,0.01,113.00,VWS V14.00,2013-11-13 21:30:00,
2013-11-13 14:31:00,47.9,33.4,31.17,NW,306,13.0,16.0,57,0.00,,,0.01,109.00,VWS V14.00,2013-11-13 21:31:00,
2013-11-13 14:32:00,47.9,33.8,31.17,WNW,300,11.0,16.0,58,0.00,,,0.01,109.00,VWS V14.00,2013-11-13 21:32:00,
2013-11-13 14:33:00,47.8,33.8,31.17,NW,313,10.0,16.0,58,0.00,,,0.01,105.00,VWS V14.00,2013-11-13 21:33:00,
2013-11-13 14:34:00,47.8,33.3,31.17,WNW,295,19.0,19.0,57,0.00,,,0.01,105.00,VWS V14.00,2013-11-13 21:34:00,
2013-11-13 14:35:00,47.7,33.2,31.17,NW,306,10.0,19.0,57,0.00,,,0.01,107.00,VWS V14.00,2013-11-13 21:35:00,
2013-11-13 14:36:00,47.7,33.2,31.17,WNW,299,13.0,19.0,57,0.00,,,0.01,109.00,VWS V14.00,2013-11-13 21:36:00,
2013-11-13 14:37:00,47.7,33.2,31.17,NW,304,11.0,19.0,57,0.00,,,0.01,105.00,VWS V14.00,2013-11-13 21:37:00,
2013-11-13 14:38:00,47.7,33.2,31.17,WNW,295,14.0,19.0,57,0.00,,,0.01,104.00,VWS V14.00,2013-11-13 21:38:00,
2013-11-13 14:39:00,47.6,33.1,31.17,NW,306,11.0,19.0,57,0.00,,,0.01,100.00,VWS V14.00,2013-11-13 21:39:00,
2013-11-13 14:40:00,47.6,33.1,31.17,NW,309,16.0,19.0,57,0.00,,,0.01,100.00,VWS V14.00,2013-11-13 21:40:00,
2013-11-13 14:41:00,47.6,32.7,31.17,NW,317,14.0,19.0,56,0.00,,,0.01,100.00,VWS V14.00,2013-11-13 21:41:00,
2013-11-13 14:42:00,47.6,32.7,31.17,WNW,303,12.0,19.0,56,0.00,,,0.01,102.00,VWS V14.00,2013-11-13 21:42:00,
2013-11-13 14:43:00,47.6,32.7,31.17,WNW,293,11.0,19.0,56,0.00,,,0.01,105.00,VWS V14.00,2013-11-13 21:43:00,
2013-11-13 14:44:00,47.6,32.2,31.17,NW,307,12.0,19.0,55,0.00,,,0.01,107.00,VWS V14.00,2013-11-13 21:44:00,
2013-11-13 14:45:00,47.6,32.2,31.17,NW,311,10.0,19.0,55,0.00,,,0.01,111.00,VWS V14.00,2013-11-13 21:45:00,
2013-11-13 14:46:00,47.6,32.2,31.17,NW,308,9.0,13.0,55,0.00,,,0.01,111.00,VWS V14.00,2013-11-13 21:46:00,
2013-11-13 14:47:00,47.6,32.7,31.17,NW,307,12.0,13.0,56,0.00,,,0.01,107.00,VWS V14.00,2013-11-13 21:47:00,
2013-11-13 14:48:00,47.6,32.2,31.17,NW,309,13.0,15.0,55,0.00,,,0.01,111.00,VWS V14.00,2013-11-13 21:48:00,
2013-11-13 14:49:00,47.6,32.2,31.17,WNW,299,10.0,15.0,55,0.00,,,0.01,121.00,VWS V14.00,2013-11-13 21:49:00,
2013-11-13 14:50:00,47.7,32.3,31.17,NW,317,9.0,15.0,55,0.00,,,0.01,123.00,VWS V14.00,2013-11-13 21:50:00,
2013-11-13 14:51:00,47.6,32.2,31.17,NW,312,11.0,15.0,55,0.00,,,0.01,125.00,VWS V14.00,2013-11-13 21:51:00,
2013-11-13 14:52:00,47.7,32.3,31.17,NW,306,6.0,15.0,55,0.00,,,0.01,120.00,VWS V14.00,2013-11-13 21:52:00,
2013-11-13 14:53:00,47.7,31.9,31.17,WNW,294,8.0,15.0,54,0.00,,,0.01,114.00,VWS V14.00,2013-11-13 21:53:00,
2013-11-13 14:54:00,47.7,31.9,31.17,NW,304,11.0,15.0,54,0.00,,,0.01,109.00,VWS V14.00,2013-11-13 21:54:00,
2013-11-13 14:55:00,47.8,31.5,31.17,WNW,302,9.0,15.0,53,0.00,,,0.01,105.00,VWS V14.00,2013-11-13 21:55:00,
2013-11-13 14:56:00,47.8,32.0,31.17,WNW,291,5.0,15.0,54,0.00,,,0.01,104.00,VWS V14.00,2013-11-13 21:56:00,
2013-11-13 14:57:00,47.8,32.0,31.17,NW,309,5.0,15.0,54,0.00,,,0.01,100.00,VWS V14.00,2013-11-13 21:57:00,
2013-11-13 14:58:00,47.9,32.1,31.18,NW,306,4.0,15.0,54,0.00,,,0.01,97.00,VWS V14.00,2013-11-13 21:58:00,
2013-11-13 14:59:00,47.9,32.1,31.17,NW,322,4.0,15.0,54,0.00,,,0.01,97.00,VWS V14.00,2013-11-13 21:59:00,
2013-11-13 15:00:00,47.9,32.1,31.17,NW,313,6.0,15.0,54,0.00,,,0.01,95.00,VWS V14.00,2013-11-13 22:00:00,
2013-11-13 15:01:00,47.9,32.1,31.17,NNW,331,1.0,5.0,54,0.00,,,0.01,84.00,VWS V14.00,2013-11-13 22:01:00,
2013-11-13 15:02:00,48.0,32.6,31.17,NW,322,4.0,7.0,55,0.00,,,0.01,77.00,VWS V14.00,2013-11-13 22:02:00,
2013-11-13 15:03:00,48.0,32.6,31.17,NW,323,3.0,7.0,55,0.00,,,0.01,74.00,VWS V14.00,2013-11-13 22:03:00,
2013-11-13 15:04:00,48.0,32.6,31.17,NW,315,4.0,7.0,55,0.00,,,0.01,70.00,VWS V14.00,2013-11-13 22:04:00,
2013-11-13 15:05:00,48.0,32.6,31.17,NW,317,4.0,7.0,55,0.00,,,0.01,65.00,VWS V14.00,2013-11-13 22:05:00,
2013-11-13 15:06:00,48.0,32.6,31.18,NW,317,2.0,7.0,55,0.00,,,0.01,60.00,VWS V14.00,2013-11-13 22:06:00,
2013-11-13 15:07:00,47.9,33.0,31.18,NW,317,0.0,7.0,56,0.00,,,0.01,58.00,VWS V14.00,2013-11-13 22:07:00,
2013-11-13 15:08:00,47.9,33.0,31.17,NW,317,0.0,7.0,56,0.00,,,0.01,58.00,VWS V14.00,2013-11-13 22:08:00,
2013-11-13 15:09:00,47.9,33.4,31.17,NW,317,1.0,7.0,57,0.00,,,0.01,58.00,VWS V14.00,2013-11-13 22:09:00,
2013-11-13 15:10:00,47.9,33.0,31.18,NW,317,0.0,7.0,56,0.00,,,0.01,58.00,VWS V14.00,2013-11-13 22:10:00,
2013-11-13 15:11:00,47.9,32.5,31.18,NW,317,2.0,7.0,55,0.00,,,0.01,62.00,VWS V14.00,2013-11-13 22:11:00,
2013-11-13 15:12:00,47.9,32.5,31.18,NW,317,1.0,7.0,55,0.00,,,0.01,62.00,VWS V14.00,2013-11-13 22:12:00,
2013-11-13 15:13:00,47.9,32.5,31.18,NW,317,0.0,7.0,55,0.00,,,0.01,58.00,VWS V14.00,2013-11-13 22:13:00,
2013-11-13 15:14:00,47.8,32.4,31.18,NW,317,0.0,7.0,55,0.00,,,0.01,56.00,VWS V14.00,2013-11-13 22:14:00,
2013-11-13 15:15:00,47.8,32.9,31.18,NW,317,0.0,7.0,56,0.00,,,0.01,56.00,VWS V14.00,2013-11-13 22:15:00,
2013-11-13 15:16:00,47.8,32.9,31.18,NW,317,0.0,1.0,56,0.00,,,0.01,58.00,VWS V14.00,2013-11-13 22:16:00,
2013-11-13 15:17:00,47.8,32.9,31.17,NW,317,0.0,1.0,56,0.00,,,0.01,58.00,VWS V14.00,2013-11-13 22:17:00,
2013-11-13 15:18:00,47.8,32.4,31.17,NW,317,0.0,1.0,55,0.00,,,0.01,54.00,VWS V14.00,2013-11-13 22:18:00,
2013-11-13 15:19:00,47.8,32.9,31.17,NW,317,3.0,3.0,56,0.00,,,0.01,54.00,VWS V14.00,2013-11-13 22:19:00,
2013-11-13 15:20:00,47.8,32.4,31.17,NW,317,0.0,3.0,55,0.00,,,0.01,53.00,VWS V14.00,2013-11-13 22:20:00,
2013-11-13 15:21:00,47.8,32.0,31.17,NW,317,3.0,3.0,54,0.00,,,0.01,51.00,VWS V14.00,2013-11-13 22:21:00,
2013-11-13 15:22:00,47.8,31.5,31.18,NNW,342,4.0,6.0,53,0.00,,,0.01,51.00,VWS V14.00,2013-11-13 22:22:00,
2013-11-13 15:23:00,47.7,32.3,31.18,NNW,342,0.0,6.0,55,0.00,,,0.01,47.00,VWS V14.00,2013-11-13 22:23:00,
2013-11-13 15:24:00,47.7,31.9,31.18,NNW,341,0.0,6.0,54,0.00,,,0.01,42.00,VWS V14.00,2013-11-13 22:24:00,
2013-11-13 15:25:00,47.7,31.4,31.18,NNW,342,0.0,6.0,53,0.00,,,0.01,40.00,VWS V14.00,2013-11-13 22:25:00,
2013-11-13 15:26:00,47.7,31.4,31.18,NNW,342,0.0,6.0,53,0.00,,,0.01,39.00,VWS V14.00,2013-11-13 22:26:00,
2013-11-13 15:27:00,47.7,32.3,31.18,NNW,341,0.0,6.0,55,0.00,,,0.01,37.00,VWS V14.00,2013-11-13 22:27:00,
2013-11-13 15:28:00,47.7,31.9,31.18,NNW,342,0.0,6.0,54,0.00,,,0.01,35.00,VWS V14.00,2013-11-13 22:28:00,
2013-11-13 15:29:00,47.7,31.9,31.18,NNW,342,3.0,6.0,54,0.00,,,0.01,37.00,VWS V14.00,2013-11-13 22:29:00,
2013-11-13 15:30:00,47.7,31.4,31.18,NNW,341,3.0,6.0,53,0.00,,,0.01,35.00,VWS V14.00,2013-11-13 22:30:00,
2013-11-13 15:31:00,47.7,32.8,31.18,NNW,341,1.0,3.0,56,0.00,,,0.01,32.00,VWS V14.00,2013-11-13 22:31:00,
2013-11-13 15:32:00,47.7,32.3,31.18,NNW,341,1.0,3.0,55,0.00,,,0.01,32.00,VWS V14.00,2013-11-13 22:32:00,
2013-11-13 15:33:00,47.7,32.3,31.18,NNW,341,2.0,3.0,55,0.00,,,0.01,32.00,VWS V14.00,2013-11-13 22:33:00,
2013-11-13 15:34:00,47.7,32.3,31.18,NNW,341,3.0,3.0,55,0.00,,,0.01,32.00,VWS V14.00,2013-11-13 22:34:00,
2013-11-13 15:35:00,47.7,32.3,31.18,NNW,342,5.0,5.0,55,0.00,,,0.01,32.00,VWS V14.00,2013-11-13 22:35:00,
2013-11-13 15:36:00,47.7,31.4,31.18,NNW,342,2.0,5.0,53,0.00,,,0.01,33.00,VWS V14.00,2013-11-13 22:36:00,
2013-11-13 15:37:00,47.7,31.9,31.18,NNW,342,2.0,5.0,54,0.00,,,0.01,37.00,VWS V14.00,2013-11-13 22:37:00,
2013-11-13 15:38:00,47.7,32.3,31.18,NNW,341,0.0,5.0,55,0.00,,,0.01,44.00,VWS V14.00,2013-11-13 22:38:00,
2013-11-13 15:39:00,47.7,32.8,31.18,NNW,341,0.0,5.0,56,0.00,,,0.01,49.00,VWS V14.00,2013-11-13 22:39:00,
2013-11-13 15:40:00,47.7,32.3,31.18,NNW,341,0.0,5.0,55,0.00,,,0.01,54.00,VWS V14.00,2013-11-13 22:40:00,
2013-11-13 15:41:00,47.6,32.2,31.18,NNW,342,1.0,5.0,55,0.00,,,0.01,56.00,VWS V14.00,2013-11-13 22:41:00,
2013-11-13 15:42:00,47.6,31.8,31.18,NNW,342,3.0,5.0,54,0.00,,,0.01,47.00,VWS V14.00,2013-11-13 22:42:00,
2013-11-13 15:43:00,47.6,31.3,31.18,NNW,342,2.0,5.0,53,0.00,,,0.01,42.00,VWS V14.00,2013-11-13 22:43:00,
2013-11-13 15:44:00,47.6,31.3,31.18,NNW,342,1.0,5.0,53,0.00,,,0.01,40.00,VWS V14.00,2013-11-13 22:44:00,
2013-11-13 15:45:00,47.6,30.9,31.18,West,281,4.0,5.0,52,0.00,,,0.01,42.00,VWS V14.00,2013-11-13 22:45:00,
2013-11-13 15:46:00,47.6,31.8,31.18,WNW,283,3.0,5.0,54,0.00,,,0.01,42.00,VWS V14.00,2013-11-13 22:46:00,
2013-11-13 15:47:00,47.6,32.2,31.18,WNW,284,3.0,5.0,55,0.00,,,0.01,40.00,VWS V14.00,2013-11-13 22:47:00,
2013-11-13 15:48:00,47.6,31.8,31.18,WNW,284,3.0,5.0,54,0.00,,,0.01,37.00,VWS V14.00,2013-11-13 22:48:00,
2013-11-13 15:49:00,47.6,32.2,31.18,WNW,284,2.0,5.0,55,0.00,,,0.01,35.00,VWS V14.00,2013-11-13 22:49:00,
2013-11-13 15:50:00,47.6,32.2,31.18,NW,314,4.0,5.0,55,0.00,,,0.01,32.00,VWS V14.00,2013-11-13 22:50:00,
2013-11-13 15:51:00,47.6,32.2,31.18,NW,325,2.0,5.0,55,0.00,,,0.01,30.00,VWS V14.00,2013-11-13 22:51:00,
2013-11-13 15:52:00,47.6,32.2,31.18,NW,325,1.0,5.0,55,0.00,,,0.01,28.00,VWS V14.00,2013-11-13 22:52:00,
2013-11-13 15:53:00,47.6,32.2,31.18,NW,325,1.0,5.0,55,0.00,,,0.01,32.00,VWS V14.00,2013-11-13 22:53:00,
2013-11-13 15:54:00,47.5,32.2,31.18,NW,325,2.0,5.0,55,0.00,,,0.01,33.00,VWS V14.00,2013-11-13 22:54:00,
2013-11-13 15:55:00,47.5,32.2,31.18,NW,325,3.0,5.0,55,0.00,,,0.01,33.00,VWS V14.00,2013-11-13 22:55:00,
2013-11-13 15:56:00,47.5,32.6,31.18,NW,325,1.0,5.0,56,0.00,,,0.01,32.00,VWS V14.00,2013-11-13 22:56:00,
2013-11-13 15:57:00,47.4,33.0,31.18,NW,325,0.0,5.0,57,0.00,,,0.01,30.00,VWS V14.00,2013-11-13 22:57:00,
2013-11-13 15:58:00,47.4,31.6,31.18,NNW,344,2.0,5.0,54,0.00,,,0.01,28.00,VWS V14.00,2013-11-13 22:58:00,
2013-11-13 15:59:00,47.4,32.5,31.19,NNW,344,3.0,5.0,56,0.00,,,0.01,25.00,VWS V14.00,2013-11-13 22:59:00,
2013-11-13 16:00:00,47.4,33.4,31.19,NNW,344,2.0,5.0,58,0.00,,,0.01,23.00,VWS V14.00,2013-11-13 23:00:00,
2013-11-13 16:01:00,47.3,33.7,31.18,NNW,344,3.0,3.0,59,0.00,,,0.01,23.00,VWS V14.00,2013-11-13 23:01:00,
2013-11-13 16:02:00,47.2,33.2,31.18,NNW,344,0.0,3.0,58,0.00,,,0.01,21.00,VWS V14.00,2013-11-13 23:02:00,
2013-11-13 16:03:00,47.2,33.2,31.18,NNW,344,0.0,3.0,58,0.00,,,0.01,21.00,VWS V14.00,2013-11-13 23:03:00,
2013-11-13 16:04:00,47.2,33.2,31.18,NNW,344,0.0,3.0,58,0.00,,,0.01,21.00,VWS V14.00,2013-11-13 23:04:00,
2013-11-13 16:05:00,47.1,33.1,31.18,NNW,344,0.0,3.0,58,0.00,,,0.01,23.00,VWS V14.00,2013-11-13 23:05:00,
2013-11-13 16:06:00,47.1,33.1,31.18,NNW,344,0.0,3.0,58,0.00,,,0.01,23.00,VWS V14.00,2013-11-13 23:06:00,
2013-11-13 16:07:00,47.1,33.1,31.18,NNW,344,0.0,3.0,58,0.00,,,0.01,25.00,VWS V14.00,2013-11-13 23:07:00,
2013-11-13 16:08:00,47.1,32.7,31.18,NNW,344,0.0,3.0,57,0.00,,,0.01,25.00,VWS V14.00,2013-11-13 23:08:00,
2013-11-13 16:09:00,47.1,32.2,31.18,NNW,344,0.0,3.0,56,0.00,,,0.01,25.00,VWS V14.00,2013-11-13 23:09:00,
2013-11-13 16:10:00,47.0,32.1,31.18,NNW,344,0.0,3.0,56,0.00,,,0.01,26.00,VWS V14.00,2013-11-13 23:10:00,
2013-11-13 16:11:00,47.0,32.1,31.18,NNW,344,0.0,3.0,56,0.00,,,0.01,26.00,VWS V14.00,2013-11-13 23:11:00,
2013-11-13 16:12:00,47.0,33.0,31.18,NNW,344,0.0,3.0,58,0.00,,,0.01,28.00,VWS V14.00,2013-11-13 23:12:00,
2013-11-13 16:13:00,47.0,32.6,31.18,NNW,344,0.0,3.0,57,0.00,,,0.01,28.00,VWS V14.00,2013-11-13 23:13:00,
2013-11-13 16:14:00,47.0,32.6,31.18,NNW,344,0.0,3.0,57,0.00,,,0.01,26.00,VWS V14.00,2013-11-13 23:14:00,
2013-11-13 16:15:00,46.9,32.5,31.18,NNW,344,0.0,3.0,57,0.00,,,0.01,26.00,VWS V14.00,2013-11-13 23:15:00,
2013-11-13 16:16:00,46.9,32.5,31.19,NNW,344,0.0,0.0,57,0.00,,,0.01,25.00,VWS V14.00,2013-11-13 23:16:00,
2013-11-13 16:17:00,46.9,32.0,31.18,NNW,344,0.0,0.0,56,0.00,,,0.01,21.00,VWS V14.00,2013-11-13 23:17:00,
2013-11-13 16:18:00,46.9,31.6,31.19,NNW,344,0.0,0.0,55,0.00,,,0.01,19.00,VWS V14.00,2013-11-13 23:18:00,
2013-11-13 16:19:00,46.9,31.6,31.19,NNW,344,0.0,0.0,55,0.00,,,0.01,18.00,VWS V14.00,2013-11-13 23:19:00,
2013-11-13 16:20:00,46.8,32.0,31.19,NNW,344,0.0,0.0,56,0.00,,,0.01,19.00,VWS V14.00,2013-11-13 23:20:00,
2013-11-13 16:21:00,46.8,32.0,31.19,NNW,344,0.0,0.0,56,0.00,,,0.01,19.00,VWS V14.00,2013-11-13 23:21:00,
2013-11-13 16:22:00,46.8,32.0,31.19,NNW,344,0.0,0.0,56,0.00,,,0.01,25.00,VWS V14.00,2013-11-13 23:22:00,
2013-11-13 16:23:00,46.8,32.0,31.19,NNW,344,0.0,0.0,56,0.00,,,0.01,25.00,VWS V14.00,2013-11-13 23:23:00,
2013-11-13 16:24:00,46.8,32.4,31.19,NNW,344,0.0,0.0,57,0.00,,,0.01,23.00,VWS V14.00,2013-11-13 23:24:00,
2013-11-13 16:25:00,46.8,32.0,31.19,NNW,344,0.0,0.0,56,0.00,,,0.01,21.00,VWS V14.00,2013-11-13 23:25:00,
2013-11-13 16:26:00,46.7,31.9,31.19,NNW,344,0.0,0.0,56,0.00,,,0.01,18.00,VWS V14.00,2013-11-13 23:26:00,
2013-11-13 16:27:00,46.7,31.9,31.19,NNW,344,0.0,0.0,56,0.00,,,0.01,14.00,VWS V14.00,2013-11-13 23:27:00,
2013-11-13 16:28:00,46.7,32.3,31.19,NNW,344,0.0,0.0,57,0.00,,,0.01,11.00,VWS V14.00,2013-11-13 23:28:00,
2013-11-13 16:29:00,46.7,32.3,31.19,NNW,344,0.0,0.0,57,0.00,,,0.01,9.00,VWS V14.00,2013-11-13 23:29:00,
2013-11-13 16:30:00,46.7,32.3,31.19,NNW,344,0.0,0.0,57,0.00,,,0.01,9.00,VWS V14.00,2013-11-13 23:30:00,
2013-11-13 16:31:00,46.7,32.3,31.19,NNW,344,0.0,0.0,57,0.00,,,0.01,7.00,VWS V14.00,2013-11-13 23:31:00,
2013-11-13 16:32:00,46.7,32.3,31.19,NNW,344,0.0,0.0,57,0.00,,,0.01,9.00,VWS V14.00,2013-11-13 23:32:00,
2013-11-13 16:33:00,46.7,32.7,31.19,NNW,344,0.0,0.0,58,0.00,,,0.01,9.00,VWS V14.00,2013-11-13 23:33:00,
2013-11-13 16:34:00,46.7,32.7,31.19,NNW,344,0.0,0.0,58,0.00,,,0.01,11.00,VWS V14.00,2013-11-13 23:34:00,
2013-11-13 16:35:00,46.7,32.7,31.19,NNW,344,0.0,0.0,58,0.00,,,0.01,11.00,VWS V14.00,2013-11-13 23:35:00,
2013-11-13 16:36:00,46.6,32.6,31.19,NNW,344,0.0,0.0,58,0.00,,,0.01,11.00,VWS V14.00,2013-11-13 23:36:00,
2013-11-13 16:37:00,46.6,32.2,31.19,NNW,344,0.0,0.0,57,0.00,,,0.01,11.00,VWS V14.00,2013-11-13 23:37:00,
2013-11-13 16:38:00,46.6,32.2,31.19,NNW,344,0.0,1.0,57,0.00,,,0.01,11.00,VWS V14.00,2013-11-13 23:38:00,
2013-11-13 16:39:00,46.5,32.1,31.19,NNW,344,0.0,1.0,57,0.00,,,0.01,12.00,VWS V14.00,2013-11-13 23:39:00,
2013-11-13 16:40:00,46.5,32.1,31.20,NNW,344,0.0,1.0,57,0.00,,,0.01,12.00,VWS V14.00,2013-11-13 23:40:00,
2013-11-13 16:41:00,46.5,32.1,31.20,NNW,344,0.0,1.0,57,0.00,,,0.01,12.00,VWS V14.00,2013-11-13 23:41:00,
2013-11-13 16:42:00,46.5,32.5,31.20,NNW,344,0.0,1.0,58,0.00,,,0.01,12.00,VWS V14.00,2013-11-13 23:42:00,
2013-11-13 16:43:00,46.5,32.1,31.20,NNW,344,0.0,1.0,57,0.00,,,0.01,11.00,VWS V14.00,2013-11-13 23:43:00,
2013-11-13 16:44:00,46.5,32.1,31.20,NNW,344,0.0,1.0,57,0.00,,,0.01,11.00,VWS V14.00,2013-11-13 23:44:00,
2013-11-13 16:45:00,46.4,32.4,31.19,NNW,344,0.0,1.0,58,0.00,,,0.01,11.00,VWS V14.00,2013-11-13 23:45:00,
2013-11-13 16:46:00,46.4,32.4,31.20,NNW,344,0.0,0.0,58,0.00,,,0.01,9.00,VWS V14.00,2013-11-13 23:46:00,
2013-11-13 16:47:00,46.4,32.4,31.19,NNW,344,0.0,0.0,58,0.00,,,0.01,7.00,VWS V14.00,2013-11-13 23:47:00,
2013-11-13 16:48:00,46.4,32.9,31.19,NNW,344,0.0,0.0,59,0.00,,,0.01,7.00,VWS V14.00,2013-11-13 23:48:00,
2013-11-13 16:49:00,46.4,32.4,31.19,NNW,344,0.0,0.0,58,0.00,,,0.01,5.00,VWS V14.00,2013-11-13 23:49:00,
2013-11-13 16:50:00,46.4,32.0,31.19,NNW,344,0.0,0.0,57,0.00,,,0.01,5.00,VWS V14.00,2013-11-13 23:50:00,
2013-11-13 16:51:00,46.3,32.3,31.20,NNW,344,0.0,0.0,58,0.00,,,0.01,5.00,VWS V14.00,2013-11-13 23:51:00,
2013-11-13 16:52:00,46.3,31.9,31.20,NNW,344,0.0,0.0,57,0.00,,,0.01,0.00,VWS V14.00,2013-11-13 23:52:00,
2013-11-13 16:53:00,46.3,31.9,31.20,NNW,344,0.0,0.0,57,0.00,,,0.01,0.00,VWS V14.00,2013-11-13 23:53:00,
2013-11-13 16:54:00,46.3,32.3,31.20,NNW,344,0.0,0.0,58,0.00,,,0.01,0.00,VWS V14.00,2013-11-13 23:54:00,
2013-11-13 16:55:00,46.3,32.3,31.20,NNW,344,0.0,0.0,58,0.00,,,0.01,0.00,VWS V14.00,2013-11-13 23:55:00,
2013-11-13 16:56:00,46.3,31.9,31.20,NNW,344,0.0,0.0,57,0.00,,,0.01,0.00,VWS V14.00,2013-11-13 23:56:00,
2013-11-13 16:57:00,46.3,31.9,31.20,NNW,344,0.0,0.0,57,0.00,,,0.01,0.00,VWS V14.00,2013-11-13 23:57:00,
2013-11-13 16:58:00,46.3,31.5,31.20,NNW,344,0.0,0.0,56,0.00,,,0.01,0.00,VWS V14.00,2013-11-13 23:58:00,
2013-11-13 16:59:00,46.2,31.4,31.19,NNW,344,0.0,0.0,56,0.00,,,0.01,0.00,VWS V14.00,2013-11-13 23:59:00,
2013-11-13 17:00:00,46.2,32.2,31.19,NNW,344,0.0,0.0,58,0.00,,,0.01,0.00,VWS V14.00,2013-11-14 00:00:00,
2013-11-13 17:01:00,46.2,32.2,31.20,NNW,344,0.0,0.0,58,0.00,,,0.01,0.00,VWS V14.00,2013-11-14 00:01:00,
2013-11-13 17:02:00,46.1,32.2,31.20,NNW,344,0.0,0.0,58,0.00,,,0.01,0.00,VWS V14.00,2013-11-14 00:02:00,
2013-11-13 17:03:00,46.1,31.7,31.20,NNW,344,0.0,0.0,57,0.00,,,0.01,0.00,VWS V14.00,2013-11-14 00:03:00,
2013-11-13 17:04:00,46.1,31.7,31.20,NNW,344,0.0,0.0,57,0.00,,,0.01,0.00,VWS V14.00,2013-11-14 00:04:00,
2013-11-13 17:05:00,46.0,31.6,31.20,NNW,344,0.0,0.0,57,0.00,,,0.01,0.00,VWS V14.00,2013-11-14 00:05:00,
2013-11-13 17:06:00,46.0,31.6,31.20,NNW,344,0.0,0.0,57,0.00,,,0.01,0.00,VWS V14.00,2013-11-14 00:06:00,
2013-11-13 17:07:00,46.0,31.6,31.20,NNW,344,0.0,0.0,57,0.00,,,0.01,0.00,VWS V14.00,2013-11-14 00:07:00,
2013-11-13 17:08:00,46.0,32.5,31.20,NNW,344,0.0,0.0,59,0.00,,,0.01,0.00,VWS V14.00,2013-11-14 00:08:00,
2013-11-13 17:09:00,46.0,32.1,31.20,NNW,344,0.0,0.0,58,0.00,,,0.01,0.00,VWS V14.00,2013-11-14 00:09:00,
2013-11-13 17:10:00,46.0,32.5,31.20,NNW,344,0.0,0.0,59,0.00,,,0.01,0.00,VWS V14.00,2013-11-14 00:10:00,
2013-11-13 17:11:00,45.9,32.0,31.20,NNW,344,0.0,0.0,58,0.00,,,0.01,0.00,VWS V14.00,2013-11-14 00:11:00,
2013-11-13 17:12:00,45.9,32.0,31.20,NNW,344,3.0,3.0,58,0.00,,,0.01,0.00,VWS V14.00,2013-11-14 00:12:00,
2013-11-13 17:13:00,45.9,32.8,31.20,NNW,344,1.0,3.0,60,0.00,,,0.01,0.00,VWS V14.00,2013-11-14 00:13:00,
2013-11-13 17:14:00,45.8,32.3,31.20,NNW,344,1.0,3.0,59,0.00,,,0.01,0.00,VWS V14.00,2013-11-14 00:14:00,
2013-11-13 17:15:00,45.8,32.3,31.20,NNW,344,0.0,3.0,59,0.00,,,0.01,0.00,VWS V14.00,2013-11-14 00:15:00,
2013-11-13 17:16:00,45.8,31.9,31.20,NNW,344,3.0,3.0,58,0.00,,,0.01,0.00,VWS V14.00,2013-11-14 00:16:00,
2013-11-13 17:17:00,45.7,32.6,31.20,NNW,344,2.0,4.0,60,0.00,,,0.01,0.00,VWS V14.00,2013-11-14 00:17:00,
2013-11-13 17:18:00,45.7,32.6,31.20,NNW,345,3.0,4.0,60,0.00,,,0.01,0.00,VWS V14.00,2013-11-14 00:18:00,
2013-11-13 17:19:00,45.6,32.9,31.20,NNW,345,0.0,4.0,61,0.00,,,0.01,0.00,VWS V14.00,2013-11-14 00:19:00,
2013-11-13 17:20:00,45.6,32.9,31.20,NNW,345,0.0,4.0,61,0.00,,,0.01,0.00,VWS V14.00,2013-11-14 00:20:00,
2013-11-13 17:21:00,45.5,32.8,31.20,NNW,345,0.0,4.0,61,0.00,,,0.01,0.00,VWS V14.00,2013-11-14 00:21:00,
2013-11-13 17:22:00,45.5,32.8,31.20,NNW,345,0.0,4.0,61,0.00,,,0.01,0.00,VWS V14.00,2013-11-14 00:22:00,
2013-11-13 17:23:00,45.4,32.8,31.22,NNW,345,0.0,4.0,61,0.00,,,0.01,0.00,VWS V14.00,2013-11-14 00:23:00,
2013-11-13 17:24:00,45.4,32.8,31.22,NNW,345,0.0,4.0,61,0.00,,,0.01,0.00,VWS V14.00,2013-11-14 00:24:00,
2013-11-13 17:25:00,45.3,33.1,31.22,NNW,345,0.0,4.0,62,0.00,,,0.01,0.00,VWS V14.00,2013-11-14 00:25:00,
2013-11-13 17:26:00,45.3,33.5,31.21,NNW,345,0.0,4.0,63,0.00,,,0.01,0.00,VWS V14.00,2013-11-14 00:26:00,
2013-11-13 17:27:00,45.2,33.0,31.21,NNW,345,0.0,4.0,62,0.00,,,0.01,0.00,VWS V14.00,2013-11-14 00:27:00,
2013-11-13 17:28:00,45.2,33.0,31.21,NNW,345,0.0,4.0,62,0.00,,,0.01,0.00,VWS V14.00,2013-11-14 00:28:00,
2013-11-13 17:29:00,45.1,32.5,31.21,NNW,345,0.0,4.0,61,0.00,,,0.01,0.00,VWS V14.00,2013-11-14 00:29:00,
2013-11-13 17:30:00,45.0,32.8,31.21,NNW,345,0.0,4.0,62,0.00,,,0.01,0.00,VWS V14.00,2013-11-14 00:30:00,
2013-11-13 17:31:00,45.0,32.8,31.21,NNW,345,0.0,0.0,62,0.00,,,0.01,0.00,VWS V14.00,2013-11-14 00:31:00,
2013-11-13 17:32:00,45.0,32.8,31.21,NNW,345,0.0,0.0,62,0.00,,,0.01,0.00,VWS V14.00,2013-11-14 00:32:00,
2013-11-13 17:33:00,45.0,33.2,31.21,NNW,345,0.0,0.0,63,0.00,,,0.01,0.00,VWS V14.00,2013-11-14 00:33:00,
2013-11-13 17:34:00,45.0,32.8,31.21,NNW,345,0.0,0.0,62,0.00,,,0.01,0.00,VWS V14.00,2013-11-14 00:34:00,
2013-11-13 17:35:00,44.9,33.1,31.21,NNW,345,2.0,2.0,63,0.00,,,0.01,0.00,VWS V14.00,2013-11-14 00:35:00,
2013-11-13 17:36:00,44.9,32.7,31.21,NNW,345,3.0,3.0,62,0.00,,,0.01,0.00,VWS V14.00,2013-11-14 00:36:00,
2013-11-13 17:37:00,44.8,32.6,31.21,NNW,345,2.0,3.0,62,0.00,,,0.01,0.00,VWS V14.00,2013-11-14 00:37:00,
2013-11-13 17:38:00,44.7,32.5,31.21,NNW,345,0.0,3.0,62,0.00,,,0.01,0.00,VWS V14.00,2013-11-14 00:38:00,
2013-11-13 17:39:00,44.7,32.5,31.21,NNW,345,2.0,3.0,62,0.00,,,0.01,0.00,VWS V14.00,2013-11-14 00:39:00,
2013-11-13 17:40:00,44.6,32.4,31.21,SSE,148,0.0,4.0,62,0.00,,,0.01,0.00,VWS V14.00,2013-11-14 00:40:00,
2013-11-13 17:41:00,44.6,32.0,31.21,SSE,148,0.0,4.0,61,0.00,,,0.01,0.00,VWS V14.00,2013-11-14 00:41:00,
2013-11-13 17:42:00,44.6,32.4,31.21,SSE,148,0.0,4.0,62,0.00,,,0.01,0.00,VWS V14.00,2013-11-14 00:42:00,
2013-11-13 17:43:00,44.6,32.8,31.21,SSE,148,0.0,4.0,63,0.00,,,0.01,0.00,VWS V14.00,2013-11-14 00:43:00,
2013-11-13 17:44:00,44.5,33.1,31.21,SSE,148,0.0,4.0,64,0.00,,,0.01,0.00,VWS V14.00,2013-11-14 00:44:00,
2013-11-13 17:45:00,44.5,32.7,31.21,SSE,148,0.0,4.0,63,0.00,,,0.01,0.00,VWS V14.00,2013-11-14 00:45:00,
2013-11-13 17:46:00,44.5,33.1,31.21,SSE,148,0.0,0.0,64,0.00,,,0.01,0.00,VWS V14.00,2013-11-14 00:46:00,
2013-11-13 17:47:00,44.4,32.6,31.21,SSE,148,0.0,0.0,63,0.00,,,0.01,0.00,VWS V14.00,2013-11-14 00:47:00,
2013-11-13 17:48:00,44.4,32.6,31.21,SSE,148,0.0,0.0,63,0.00,,,0.01,0.00,VWS V14.00,2013-11-14 00:48:00,
2013-11-13 17:49:00,44.4,32.6,31.21,SSE,148,0.0,0.0,63,0.00,,,0.01,0.00,VWS V14.00,2013-11-14 00:49:00,
2013-11-13 17:50:00,44.4,33.0,31.21,SSE,148,0.0,0.0,64,0.00,,,0.01,0.00,VWS V14.00,2013-11-14 00:50:00,
2013-11-13 17:51:00,44.3,32.9,31.21,SSE,148,0.0,0.0,64,0.00,,,0.01,0.00,VWS V14.00,2013-11-14 00:51:00,
2013-11-13 17:52:00,44.3,32.9,31.21,SSE,148,0.0,0.0,64,0.00,,,0.01,0.00,VWS V14.00,2013-11-14 00:52:00,
2013-11-13 17:53:00,44.3,32.9,31.21,SSE,148,0.0,0.0,64,0.00,,,0.01,0.00,VWS V14.00,2013-11-14 00:53:00,
2013-11-13 17:54:00,44.3,33.3,31.21,SSE,148,0.0,0.0,65,0.00,,,0.01,0.00,VWS V14.00,2013-11-14 00:54:00,
2013-11-13 17:55:00,44.2,33.2,31.21,SSE,148,0.0,0.0,65,0.00,,,0.01,0.00,VWS V14.00,2013-11-14 00:55:00,
2013-11-13 17:56:00,44.2,33.6,31.21,SSE,148,0.0,0.0,66,0.00,,,0.01,0.00,VWS V14.00,2013-11-14 00:56:00,
2013-11-13 17:57:00,44.1,33.5,31.21,SSE,148,0.0,0.0,66,0.00,,,0.01,0.00,VWS V14.00,2013-11-14 00:57:00,
2013-11-13 17:58:00,44.1,33.5,31.21,SSE,148,0.0,0.0,66,0.00,,,0.01,0.00,VWS V14.00,2013-11-14 00:58:00,
2013-11-13 17:59:00,44.1,33.5,31.21,SSE,148,0.0,0.0,66,0.00,,,0.01,0.00,VWS V14.00,2013-11-14 00:59:00,
2013-11-13 18:00:00,44.1,33.1,31.21,SSE,148,0.0,0.0,65,0.00,,,0.01,0.00,VWS V14.00,2013-11-14 01:00:00,
2013-11-13 18:01:00,44.0,33.0,31.21,SSE,148,3.0,4.0,65,0.00,,,0.01,0.00,VWS V14.00,2013-11-14 01:01:00,
2013-11-13 18:02:00,43.9,32.1,31.21,SSE,148,2.0,4.0,63,0.00,,,0.01,0.00,VWS V14.00,2013-11-14 01:02:00,
2013-11-13 18:03:00,43.9,31.7,31.21,SSE,148,0.0,4.0,62,0.00,,,0.01,0.00,VWS V14.00,2013-11-14 01:03:00,
2013-11-13 18:04:00,43.8,31.6,31.21,SSE,148,0.0,4.0,62,0.00,,,0.01,0.00,VWS V14.00,2013-11-14 01:04:00,
2013-11-13 18:05:00,43.8,31.2,31.21,SSE,148,0.0,4.0,61,0.00,,,0.01,0.00,VWS V14.00,2013-11-14 01:05:00,
2013-11-13 18:06:00,43.9,32.1,31.21,SSE,148,0.0,4.0,63,0.00,,,0.01,0.00,VWS V14.00,2013-11-14 01:06:00,
2013-11-13 18:07:00,43.9,32.5,31.21,SSE,148,0.0,4.0,64,0.00,,,0.01,0.00,VWS V14.00,2013-11-14 01:07:00,
2013-11-13 18:08:00,43.9,31.7,31.21,SSE,148,0.0,4.0,62,0.00,,,0.01,0.00,VWS V14.00,2013-11-14 01:08:00,
2013-11-13 18:09:00,43.9,31.3,31.21,SSE,148,0.0,4.0,61,0.00,,,0.01,0.00,VWS V14.00,2013-11-14 01:09:00,
2013-11-13 18:10:00,43.9,31.7,31.21,SSE,148,0.0,4.0,62,0.00,,,0.01,0.00,VWS V14.00,2013-11-14 01:10:00,
2013-11-13 18:11:00,43.9,31.7,31.21,SSE,148,0.0,4.0,62,0.00,,,0.01,0.00,VWS V14.00,2013-11-14 01:11:00,
2013-11-13 18:12:00,44.0,31.8,31.21,SSE,148,0.0,4.0,62,0.00,,,0.01,0.00,VWS V14.00,2013-11-14 01:12:00,
2013-11-13 18:13:00,44.0,31.8,31.21,SSE,148,0.0,4.0,62,0.00,,,0.01,0.00,VWS V14.00,2013-11-14 01:13:00,
2013-11-13 18:14:00,44.0,32.2,31.21,SSE,148,0.0,4.0,63,0.00,,,0.01,0.00,VWS V14.00,2013-11-14 01:14:00,
2013-11-13 18:15:00,44.0,32.2,31.21,SSE,148,0.0,4.0,63,0.00,,,0.01,0.00,VWS V14.00,2013-11-14 01:15:00,
2013-11-13 18:16:00,44.0,32.2,31.22,SSE,148,0.0,0.0,63,0.00,,,0.01,0.00,VWS V14.00,2013-11-14 01:16:00,
2013-11-13 18:17:00,44.0,31.4,31.22,SSE,148,0.0,0.0,61,0.00,,,0.01,0.00,VWS V14.00,2013-11-14 01:17:00,
2013-11-13 18:18:00,44.0,31.8,31.22,SSE,148,0.0,0.0,62,0.00,,,0.01,0.00,VWS V14.00,2013-11-14 01:18:00,
2013-11-13 18:19:00,44.0,31.4,31.22,SSE,148,0.0,0.0,61,0.00,,,0.01,0.00,VWS V14.00,2013-11-14 01:19:00,
2013-11-13 18:20:00,44.0,31.4,31.22,SSE,148,0.0,0.0,61,0.00,,,0.01,0.00,VWS V14.00,2013-11-14 01:20:00,
2013-11-13 18:21:00,44.0,31.8,31.22,SSE,148,0.0,0.0,62,0.00,,,0.01,0.00,VWS V14.00,2013-11-14 01:21:00,
2013-11-13 18:22:00,44.0,31.8,31.22,SSE,148,0.0,0.0,62,0.00,,,0.01,0.00,VWS V14.00,2013-11-14 01:22:00,
2013-11-13 18:23:00,44.0,31.8,31.22,SSE,148,0.0,0.0,62,0.00,,,0.01,0.00,VWS V14.00,2013-11-14 01:23:00,
2013-11-13 18:24:00,44.0,31.8,31.21,SSE,148,0.0,0.0,62,0.00,,,0.01,0.00,VWS V14.00,2013-11-14 01:24:00,
2013-11-13 18:25:00,44.0,31.8,31.21,SSE,148,0.0,0.0,62,0.00,,,0.01,0.00,VWS V14.00,2013-11-14 01:25:00,
2013-11-13 18:26:00,44.0,32.2,31.21,SSE,148,0.0,0.0,63,0.00,,,0.01,0.00,VWS V14.00,2013-11-14 01:26:00,
2013-11-13 18:27:00,44.0,32.2,31.21,SSE,148,0.0,0.0,63,0.00,,,0.01,0.00,VWS V14.00,2013-11-14 01:27:00,
2013-11-13 18:28:00,44.0,32.2,31.21,SSE,148,0.0,0.0,63,0.00,,,0.01,0.00,VWS V14.00,2013-11-14 01:28:00,
2013-11-13 18:29:00,44.0,32.6,31.21,SSE,148,0.0,0.0,64,0.00,,,0.01,0.00,VWS V14.00,2013-11-14 01:29:00,
2013-11-13 18:30:00,44.0,32.2,31.21,SSE,148,0.0,0.0,63,0.00,,,0.01,0.00,VWS V14.00,2013-11-14 01:30:00,
2013-11-13 18:31:00,44.0,32.2,31.21,SSE,148,0.0,0.0,63,0.00,,,0.01,0.00,VWS V14.00,2013-11-14 01:31:00,
2013-11-13 18:32:00,44.0,32.2,31.21,SSE,148,0.0,0.0,63,0.00,,,0.01,0.00,VWS V14.00,2013-11-14 01:32:00,
2013-11-13 18:33:00,44.0,32.2,31.22,SSE,148,0.0,0.0,63,0.00,,,0.01,0.00,VWS V14.00,2013-11-14 01:33:00,
2013-11-13 18:34:00,44.0,31.8,31.22,SSE,148,0.0,0.0,62,0.00,,,0.01,0.00,VWS V14.00,2013-11-14 01:34:00,
2013-11-13 18:35:00,43.9,32.1,31.22,SSE,148,0.0,0.0,63,0.00,,,0.01,0.00,VWS V14.00,2013-11-14 01:35:00,
2013-11-13 18:36:00,43.9,31.7,31.22,SSE,148,0.0,0.0,62,0.00,,,0.01,0.00,VWS V14.00,2013-11-14 01:36:00,
2013-11-13 18:37:00,43.9,31.7,31.22,SSE,148,0.0,0.0,62,0.00,,,0.01,0.00,VWS V14.00,2013-11-14 01:37:00,
2013-11-13 18:38:00,43.9,31.7,31.22,SSE,148,0.0,1.0,62,0.00,,,0.01,0.00,VWS V14.00,2013-11-14 01:38:00,
2013-11-13 18:39:00,43.9,31.7,31.21,SSE,148,0.0,1.0,62,0.00,,,0.01,0.00,VWS V14.00,2013-11-14 01:39:00,
2013-11-13 18:40:00,43.8,31.6,31.21,SSE,148,0.0,1.0,62,0.00,,,0.01,0.00,VWS V14.00,2013-11-14 01:40:00,
2013-11-13 18:41:00,43.8,32.0,31.21,SSE,148,0.0,1.0,63,0.00,,,0.01,0.00,VWS V14.00,2013-11-14 01:41:00,
2013-11-13 18:42:00,43.8,31.6,31.21,SSE,148,0.0,1.0,62,0.00,,,0.01,0.00,VWS V14.00,2013-11-14 01:42:00,
2013-11-13 18:43:00,43.8,31.6,31.21,SSE,148,0.0,1.0,62,0.00,,,0.01,0.00,VWS V14.00,2013-11-14 01:43:00,
2013-11-13 18:44:00,43.8,31.6,31.21,SSE,148,0.0,1.0,62,0.00,,,0.01,0.00,VWS V14.00,2013-11-14 01:44:00,
2013-11-13 18:45:00,43.8,32.0,31.21,SSE,148,0.0,1.0,63,0.00,,,0.01,0.00,VWS V14.00,2013-11-14 01:45:00,
2013-11-13 18:46:00,43.8,31.6,31.21,SSE,148,0.0,0.0,62,0.00,,,0.01,0.00,VWS V14.00,2013-11-14 01:46:00,
2013-11-13 18:47:00,43.8,31.6,31.21,SSE,148,0.0,0.0,62,0.00,,,0.01,0.00,VWS V14.00,2013-11-14 01:47:00,
2013-11-13 18:48:00,43.8,31.6,31.21,SSE,148,0.0,0.0,62,0.00,,,0.01,0.00,VWS V14.00,2013-11-14 01:48:00,
2013-11-13 18:49:00,43.7,31.5,31.21,SSE,148,0.0,0.0,62,0.00,,,0.01,0.00,VWS V14.00,2013-11-14 01:49:00,
2013-11-13 18:50:00,43.7,31.5,31.21,SSE,148,0.0,0.0,62,0.00,,,0.01,0.00,VWS V14.00,2013-11-14 01:50:00,
2013-11-13 18:51:00,43.7,32.0,31.21,SSE,148,0.0,0.0,63,0.00,,,0.01,0.00,VWS V14.00,2013-11-14 01:51:00,
2013-11-13 18:52:00,43.7,32.3,31.21,SSE,148,0.0,0.0,64,0.00,,,0.01,0.00,VWS V14.00,2013-11-14 01:52:00,
2013-11-13 18:53:00,43.7,32.0,31.21,SSE,148,0.0,0.0,63,0.00,,,0.01,0.00,VWS V14.00,2013-11-14 01:53:00,
2013-11-13 18:54:00,43.6,31.9,31.21,SSE,148,0.0,0.0,63,0.00,,,0.01,0.00,VWS V14.00,2013-11-14 01:54:00,
2013-11-13 18:55:00,43.6,31.9,31.21,SSE,148,0.0,0.0,63,0.00,,,0.01,0.00,VWS V14.00,2013-11-14 01:55:00,
2013-11-13 18:56:00,43.6,31.9,31.21,SSE,148,0.0,0.0,63,0.00,,,0.01,0.00,VWS V14.00,2013-11-14 01:56:00,
2013-11-13 18:57:00,43.5,31.8,31.21,SSE,148,0.0,0.0,63,0.00,,,0.01,0.00,VWS V14.00,2013-11-14 01:57:00,
2013-11-13 18:58:00,43.5,31.8,31.21,SSE,148,0.0,0.0,63,0.00,,,0.01,0.00,VWS V14.00,2013-11-14 01:58:00,
2013-11-13 18:59:00,43.4,31.7,31.22,SSE,148,0.0,0.0,63,0.00,,,0.01,0.00,VWS V14.00,2013-11-14 01:59:00,
2013-11-13 19:00:00,43.4,31.7,31.22,SSE,148,0.0,0.0,63,0.00,,,0.01,0.00,VWS V14.00,2013-11-14 02:00:00,
2013-11-13 19:01:00,43.4,31.7,31.22,SSE,148,0.0,0.0,63,0.00,,,0.01,0.00,VWS V14.00,2013-11-14 02:01:00,
2013-11-13 19:02:00,43.3,31.6,31.22,SSE,148,0.0,0.0,63,0.00,,,0.01,0.00,VWS V14.00,2013-11-14 02:02:00,
2013-11-13 19:03:00,43.3,31.2,31.22,SSE,148,0.0,0.0,62,0.00,,,0.01,0.00,VWS V14.00,2013-11-14 02:03:00,
2013-11-13 19:04:00,43.3,31.6,31.22,SSE,148,0.0,0.0,63,0.00,,,0.01,0.00,VWS V14.00,2013-11-14 02:04:00,
2013-11-13 19:05:00,43.3,31.6,31.22,SSE,148,0.0,0.0,63,0.00,,,0.01,0.00,VWS V14.00,2013-11-14 02:05:00,
2013-11-13 19:06:00,43.2,31.5,31.22,SSE,148,0.0,0.0,63,0.00,,,0.01,0.00,VWS V14.00,2013-11-14 02:06:00,
2013-11-13 19:07:00,43.2,31.9,31.22,SSE,148,0.0,0.0,64,0.00,,,0.01,0.00,VWS V14.00,2013-11-14 02:07:00,
2013-11-13 19:08:00,43.1,31.8,31.22,SSE,148,0.0,0.0,64,0.00,,,0.01,0.00,VWS V14.00,2013-11-14 02:08:00,
2013-11-13 19:09:00,43.1,31.8,31.22,SSE,148,0.0,0.0,64,0.00,,,0.01,0.00,VWS V14.00,2013-11-14 02:09:00,
2013-11-13 19:10:00,43.1,31.4,31.22,SSE,148,0.0,0.0,63,0.00,,,0.01,0.00,VWS V14.00,2013-11-14 02:10:00,
2013-11-13 19:11:00,43.1,31.4,31.22,SSE,148,0.0,0.0,63,0.00,,,0.01,0.00,VWS V14.00,2013-11-14 02:11:00,
2013-11-13 19:12:00,43.0,31.7,31.22,SSE,148,0.0,0.0,64,0.00,,,0.01,0.00,VWS V14.00,2013-11-14 02:12:00,
2013-11-13 19:13:00,43.0,31.7,31.22,SSE,148,0.0,0.0,64,0.00,,,0.01,0.00,VWS V14.00,2013-11-14 02:13:00,
2013-11-13 19:14:00,43.0,31.7,31.22,SSE,148,0.0,0.0,64,0.00,,,0.01,0.00,VWS V14.00,2013-11-14 02:14:00,
2013-11-13 19:15:00,43.0,32.1,31.22,SSE,148,0.0,0.0,65,0.00,,,0.01,0.00,VWS V14.00,2013-11-14 02:15:00,
2013-11-13 19:16:00,42.9,32.3,31.22,SSE,148,0.0,0.0,66,0.00,,,0.01,0.00,VWS V14.00,2013-11-14 02:16:00,
2013-11-13 19:17:00,42.9,32.3,31.22,SSE,148,0.0,0.0,66,0.00,,,0.01,0.00,VWS V14.00,2013-11-14 02:17:00,
2013-11-13 19:18:00,42.9,32.3,31.22,SSE,148,0.0,0.0,66,0.00,,,0.01,0.00,VWS V14.00,2013-11-14 02:18:00,
2013-11-13 19:19:00,42.8,32.6,31.22,SSE,148,0.0,0.0,67,0.00,,,0.01,0.00,VWS V14.00,2013-11-14 02:19:00,
2013-11-13 19:20:00,42.8,32.6,31.22,SSE,148,0.0,0.0,67,0.00,,,0.01,0.00,VWS V14.00,2013-11-14 02:20:00,
2013-11-13 19:21:00,42.7,32.5,31.22,SSE,148,0.0,0.0,67,0.00,,,0.01,0.00,VWS V14.00,2013-11-14 02:21:00,
2013-11-13 19:22:00,42.6,32.4,31.22,SSE,148,0.0,0.0,67,0.00,,,0.01,0.00,VWS V14.00,2013-11-14 02:22:00,
2013-11-13 19:23:00,42.6,32.4,31.22,SSE,148,0.0,0.0,67,0.00,,,0.01,0.00,VWS V14.00,2013-11-14 02:23:00,
2013-11-13 19:24:00,42.5,32.3,31.22,SSE,148,0.0,0.0,67,0.00,,,0.01,0.00,VWS V14.00,2013-11-14 02:24:00,
2013-11-13 19:25:00,42.5,32.3,31.22,SSE,148,0.0,0.0,67,0.00,,,0.01,0.00,VWS V14.00,2013-11-14 02:25:00,
2013-11-13 19:26:00,42.4,32.2,31.22,SSE,148,0.0,0.0,67,0.00,,,0.01,0.00,VWS V14.00,2013-11-14 02:26:00,
2013-11-13 19:27:00,42.3,32.1,31.23,SSE,148,0.0,0.0,67,0.00,,,0.01,0.00,VWS V14.00,2013-11-14 02:27:00,
2013-11-13 19:28:00,42.2,32.0,31.23,SSE,148,0.0,0.0,67,0.00,,,0.01,0.00,VWS V14.00,2013-11-14 02:28:00,
2013-11-13 19:29:00,42.2,32.0,31.23,SSE,148,0.0,0.0,67,0.00,,,0.01,0.00,VWS V14.00,2013-11-14 02:29:00,
2013-11-13 19:30:00,42.1,32.0,31.23,SSE,148,0.0,0.0,67,0.00,,,0.01,0.00,VWS V14.00,2013-11-14 02:30:00,
2013-11-13 19:31:00,42.0,31.9,31.23,SSE,148,0.0,0.0,67,0.00,,,0.01,0.00,VWS V14.00,2013-11-14 02:31:00,
2013-11-13 19:32:00,42.0,31.9,31.23,SSE,148,0.0,0.0,67,0.00,,,0.01,0.00,VWS V14.00,2013-11-14 02:32:00,
2013-11-13 19:33:00,41.9,31.8,31.23,SSE,148,0.0,0.0,67,0.00,,,0.01,0.00,VWS V14.00,2013-11-14 02:33:00,
2013-11-13 19:34:00,41.9,32.1,31.23,SSE,148,0.0,0.0,68,0.00,,,0.01,0.00,VWS V14.00,2013-11-14 02:34:00,
2013-11-13 19:35:00,41.8,32.0,31.23,SSE,148,0.0,0.0,68,0.00,,,0.01,0.00,VWS V14.00,2013-11-14 02:35:00,
2013-11-13 19:36:00,41.8,32.0,31.23,SSE,148,0.0,0.0,68,0.00,,,0.01,0.00,VWS V14.00,2013-11-14 02:36:00,
2013-11-13 19:37:00,41.7,31.9,31.23,SSE,148,0.0,0.0,68,0.00,,,0.01,0.00,VWS V14.00,2013-11-14 02:37:00,
2013-11-13 19:38:00,41.6,31.8,31.23,SSE,148,0.0,0.0,68,0.00,,,0.01,0.00,VWS V14.00,2013-11-14 02:38:00,
2013-11-13 19:39:00,41.6,31.8,31.22,SSE,148,0.0,0.0,68,0.00,,,0.01,0.00,VWS V14.00,2013-11-14 02:39:00,
2013-11-13 19:40:00,41.5,31.7,31.22,SSE,148,0.0,0.0,68,0.00,,,0.01,0.00,VWS V14.00,2013-11-14 02:40:00,
2013-11-13 19:41:00,41.4,31.6,31.22,SSE,148,0.0,0.0,68,0.00,,,0.01,0.00,VWS V14.00,2013-11-14 02:41:00,
2013-11-13 19:42:00,41.4,31.6,31.22,SSE,148,0.0,0.0,68,0.00,,,0.01,0.00,VWS V14.00,2013-11-14 02:42:00,
2013-11-13 19:43:00,41.3,31.9,31.22,SSE,148,2.0,2.0,69,0.00,,,0.01,0.00,VWS V14.00,2013-11-14 02:43:00,
2013-11-13 19:44:00,41.2,31.5,31.22,SSE,148,0.0,3.0,68,0.00,,,0.01,0.00,VWS V14.00,2013-11-14 02:44:00,
2013-11-13 19:45:00,41.1,31.4,31.22,SSE,148,0.0,3.0,68,0.00,,,0.01,0.00,VWS V14.00,2013-11-14 02:45:00,
2013-11-13 19:46:00,41.1,31.4,31.22,SSE,148,4.0,4.0,68,0.00,,,0.01,0.00,VWS V14.00,2013-11-14 02:46:00,
2013-11-13 19:47:00,41.1,31.4,31.22,SSE,148,4.0,4.0,68,0.00,,,0.01,0.00,VWS V14.00,2013-11-14 02:47:00,
2013-11-13 19:48:00,41.1,31.0,31.22,SSE,148,2.0,4.0,67,0.00,,,0.01,0.00,VWS V14.00,2013-11-14 02:48:00,
2013-11-13 19:49:00,41.1,31.0,31.22,SSE,148,2.0,4.0,67,0.00,,,0.01,0.00,VWS V14.00,2013-11-14 02:49:00,
2013-11-13 19:50:00,41.1,31.0,31.23,SSE,148,2.0,4.0,67,0.00,,,0.01,0.00,VWS V14.00,2013-11-14 02:50:00,
2013-11-13 19:51:00,41.1,31.0,31.22,SSE,148,0.0,4.0,67,0.00,,,0.01,0.00,VWS V14.00,2013-11-14 02:51:00,
2013-11-13 19:52:00,41.1,31.0,31.22,SSE,148,2.0,4.0,67,0.00,,,0.01,0.00,VWS V14.00,2013-11-14 02:52:00,
2013-11-13 19:53:00,41.1,31.0,31.22,SSE,148,2.0,4.0,67,0.00,,,0.01,0.00,VWS V14.00,2013-11-14 02:53:00,
2013-11-13 19:54:00,41.1,31.0,31.22,SSE,148,0.0,4.0,67,0.00,,,0.01,0.00,VWS V14.00,2013-11-14 02:54:00,
2013-11-13 19:55:00,41.1,31.0,31.22,SSE,148,0.0,4.0,67,0.00,,,0.01,0.00,VWS V14.00,2013-11-14 02:55:00,
2013-11-13 19:56:00,41.1,31.0,31.22,SSE,148,0.0,4.0,67,0.00,,,0.01,0.00,VWS V14.00,2013-11-14 02:56:00,
2013-11-13 19:57:00,41.1,31.0,31.22,SSE,148,2.0,4.0,67,0.00,,,0.01,0.00,VWS V14.00,2013-11-14 02:57:00,
2013-11-13 19:58:00,41.2,31.1,31.22,SSE,148,3.0,4.0,67,0.00,,,0.01,0.00,VWS V14.00,2013-11-14 02:58:00,
2013-11-13 19:59:00,41.2,30.7,31.22,SSE,148,2.0,4.0,66,0.00,,,0.01,0.00,VWS V14.00,2013-11-14 02:59:00,
2013-11-13 20:00:00,41.2,30.7,31.22,SSE,148,1.0,4.0,66,0.00,,,0.01,0.00,VWS V14.00,2013-11-14 03:00:00,
2013-11-13 20:01:00,41.3,30.8,31.22,SSE,148,0.0,2.0,66,0.00,,,0.01,0.00,VWS V14.00,2013-11-14 03:01:00,
2013-11-13 20:02:00,41.3,31.2,31.22,SSE,148,0.0,2.0,67,0.00,,,0.01,0.00,VWS V14.00,2013-11-14 03:02:00,
2013-11-13 20:03:00,41.3,31.2,31.22,SSE,148,0.0,2.0,67,0.00,,,0.01,0.00,VWS V14.00,2013-11-14 03:03:00,
2013-11-13 20:04:00,41.3,31.2,31.22,SSE,148,0.0,2.0,67,0.00,,,0.01,0.00,VWS V14.00,2013-11-14 03:04:00,
2013-11-13 20:05:00,41.4,31.3,31.22,SSE,148,0.0,2.0,67,0.00,,,0.01,0.00,VWS V14.00,2013-11-14 03:05:00,
2013-11-13 20:06:00,41.3,31.2,31.22,SSE,148,0.0,2.0,67,0.00,,,0.01,0.00,VWS V14.00,2013-11-14 03:06:00,
2013-11-13 20:07:00,41.3,31.2,31.22,SSE,148,0.0,2.0,67,0.00,,,0.01,0.00,VWS V14.00,2013-11-14 03:07:00,
2013-11-13 20:08:00,41.3,31.2,31.22,SSE,148,0.0,2.0,67,0.00,,,0.01,0.00,VWS V14.00,2013-11-14 03:08:00,
2013-11-13 20:09:00,41.3,31.2,31.22,SSE,148,0.0,2.0,67,0.00,,,0.01,0.00,VWS V14.00,2013-11-14 03:09:00,
2013-11-13 20:10:00,41.3,31.5,31.22,SSE,148,0.0,2.0,68,0.00,,,0.01,0.00,VWS V14.00,2013-11-14 03:10:00,
2013-11-13 20:11:00,41.3,31.5,31.22,SSE,148,0.0,2.0,68,0.00,,,0.01,0.00,VWS V14.00,2013-11-14 03:11:00,
2013-11-13 20:12:00,41.3,31.5,31.22,SSE,148,0.0,2.0,68,0.00,,,0.01,0.00,VWS V14.00,2013-11-14 03:12:00,
2013-11-13 20:13:00,41.3,31.2,31.22,SSE,148,0.0,2.0,67,0.00,,,0.01,0.00,VWS V14.00,2013-11-14 03:13:00,
2013-11-13 20:14:00,41.3,31.2,31.22,SSE,148,0.0,2.0,67,0.00,,,0.01,0.00,VWS V14.00,2013-11-14 03:14:00,
2013-11-13 20:15:00,41.3,31.2,31.22,SSE,148,0.0,2.0,67,0.00,,,0.01,0.00,VWS V14.00,2013-11-14 03:15:00,
2013-11-13 20:16:00,41.2,30.7,31.22,SSE,148,0.0,0.0,66,0.00,,,0.01,0.00,VWS V14.00,2013-11-14 03:16:00,
2013-11-13 20:17:00,41.3,30.8,31.22,SSE,148,0.0,0.0,66,0.00,,,0.01,0.00,VWS V14.00,2013-11-14 03:17:00,
2013-11-13 20:18:00,41.3,30.8,31.22,SSE,148,0.0,0.0,66,0.00,,,0.01,0.00,VWS V14.00,2013-11-14 03:18:00,
2013-11-13 20:19:00,41.3,30.8,31.22,SSE,148,0.0,0.0,66,0.00,,,0.01,0.00,VWS V14.00,2013-11-14 03:19:00,
2013-11-13 20:20:00,41.3,30.4,31.21,SSE,148,0.0,0.0,65,0.00,,,0.01,0.00,VWS V14.00,2013-11-14 03:20:00,
2013-11-13 20:21:00,41.3,30.8,31.22,SSE,148,0.0,0.0,66,0.00,,,0.01,0.00,VWS V14.00,2013-11-14 03:21:00,
2013-11-13 20:22:00,41.4,30.5,31.21,SSE,148,0.0,0.0,65,0.00,,,0.01,0.00,VWS V14.00,2013-11-14 03:22:00,
2013-11-13 20:23:00,41.4,30.5,31.22,SSE,148,0.0,0.0,65,0.00,,,0.01,0.00,VWS V14.00,2013-11-14 03:23:00,
2013-11-13 20:24:00,41.4,30.5,31.22,SSE,148,0.0,0.0,65,0.00,,,0.01,0.00,VWS V14.00,2013-11-14 03:24:00,
2013-11-13 20:25:00,41.4,30.5,31.22,SSE,148,0.0,0.0,65,0.00,,,0.01,0.00,VWS V14.00,2013-11-14 03:25:00,
2013-11-13 20:26:00,41.4,30.1,31.22,SSE,148,0.0,0.0,64,0.00,,,0.01,0.00,VWS V14.00,2013-11-14 03:26:00,
2013-11-13 20:27:00,41.5,30.2,31.21,SSE,148,0.0,0.0,64,0.00,,,0.01,0.00,VWS V14.00,2013-11-14 03:27:00,
2013-11-13 20:28:00,41.5,30.2,31.20,SSE,148,0.0,0.0,64,0.00,,,0.01,0.00,VWS V14.00,2013-11-14 03:28:00,
2013-11-13 20:29:00,41.5,30.2,31.20,SSE,148,0.0,0.0,64,0.00,,,0.01,0.00,VWS V14.00,2013-11-14 03:29:00,
2013-11-13 20:30:00,41.5,30.2,31.20,SSE,148,0.0,0.0,64,0.00,,,0.01,0.00,VWS V14.00,2013-11-14 03:30:00,
2013-11-13 20:31:00,41.6,30.3,31.20,SSE,148,0.0,0.0,64,0.00,,,0.01,0.00,VWS V14.00,2013-11-14 03:31:00,
2013-11-13 20:32:00,41.6,30.3,31.20,SSE,148,0.0,0.0,64,0.00,,,0.01,0.00,VWS V14.00,2013-11-14 03:32:00,
2013-11-13 20:33:00,41.6,30.7,31.20,SSE,148,0.0,0.0,65,0.00,,,0.01,0.00,VWS V14.00,2013-11-14 03:33:00,
2013-11-13 20:34:00,41.6,30.7,31.20,SSE,148,0.0,0.0,65,0.00,,,0.01,0.00,VWS V14.00,2013-11-14 03:34:00,
2013-11-13 20:35:00,41.5,30.6,31.20,SSE,148,0.0,0.0,65,0.00,,,0.01,0.00,VWS V14.00,2013-11-14 03:35:00,
2013-11-13 20:36:00,41.5,30.6,31.20,SSE,148,0.0,0.0,65,0.00,,,0.01,0.00,VWS V14.00,2013-11-14 03:36:00,
2013-11-13 20:37:00,41.4,30.5,31.21,SSE,148,0.0,0.0,65,0.00,,,0.01,0.00,VWS V14.00,2013-11-14 03:37:00,
2013-11-13 20:38:00,41.4,30.5,31.22,SSE,148,0.0,0.0,65,0.00,,,0.01,0.00,VWS V14.00,2013-11-14 03:38:00,
2013-11-13 20:39:00,41.3,30.4,31.22,SSE,148,0.0,0.0,65,0.00,,,0.01,0.00,VWS V14.00,2013-11-14 03:39:00,
2013-11-13 20:40:00,41.3,30.4,31.22,SSE,148,0.0,0.0,65,0.00,,,0.01,0.00,VWS V14.00,2013-11-14 03:40:00,
2013-11-13 20:41:00,41.3,30.4,31.22,SSE,148,0.0,0.0,65,0.00,,,0.01,0.00,VWS V14.00,2013-11-14 03:41:00,
2013-11-13 20:42:00,41.1,30.2,31.22,SSE,148,0.0,0.0,65,0.00,,,0.01,0.00,VWS V14.00,2013-11-14 03:42:00,
2013-11-13 20:43:00,41.1,30.2,31.22,SSE,148,0.0,0.0,65,0.00,,,0.01,0.00,VWS V14.00,2013-11-14 03:43:00,
2013-11-13 20:44:00,41.0,30.1,31.22,SSE,148,0.0,0.0,65,0.00,,,0.01,0.00,VWS V14.00,2013-11-14 03:44:00,
2013-11-13 20:45:00,41.0,30.1,31.22,SSE,148,0.0,0.0,65,0.00,,,0.01,0.00,VWS V14.00,2013-11-14 03:45:00,
2013-11-13 20:46:00,40.9,30.1,31.22,SSE,148,0.0,0.0,65,0.00,,,0.01,0.00,VWS V14.00,2013-11-14 03:46:00,
2013-11-13 20:47:00,40.8,29.6,31.22,SSE,148,0.0,0.0,64,0.00,,,0.01,0.00,VWS V14.00,2013-11-14 03:47:00,
2013-11-13 20:48:00,40.8,29.6,31.22,SSE,148,0.0,0.0,64,0.00,,,0.01,0.00,VWS V14.00,2013-11-14 03:48:00,
2013-11-13 20:49:00,40.7,29.9,31.22,SSE,148,0.0,0.0,65,0.00,,,0.01,0.00,VWS V14.00,2013-11-14 03:49:00,
2013-11-13 20:50:00,40.7,29.9,31.21,SSE,148,0.0,0.0,65,0.00,,,0.01,0.00,VWS V14.00,2013-11-14 03:50:00,
2013-11-13 20:51:00,40.6,29.8,31.21,SSE,148,0.0,0.0,65,0.00,,,0.01,0.00,VWS V14.00,2013-11-14 03:51:00,
2013-11-13 20:52:00,40.6,29.8,31.21,SSE,148,0.0,0.0,65,0.00,,,0.01,0.00,VWS V14.00,2013-11-14 03:52:00,
2013-11-13 20:53:00,40.5,29.3,31.21,SSE,148,0.0,0.0,64,0.00,,,0.01,0.00,VWS V14.00,2013-11-14 03:53:00,
2013-11-13 20:54:00,40.5,29.3,31.21,SSE,148,0.0,0.0,64,0.00,,,0.01,0.00,VWS V14.00,2013-11-14 03:54:00,
2013-11-13 20:55:00,40.5,29.7,31.21,SSE,148,0.0,0.0,65,0.00,,,0.01,0.00,VWS V14.00,2013-11-14 03:55:00,
2013-11-13 20:56:00,40.5,29.7,31.21,SSE,148,0.0,0.0,65,0.00,,,0.01,0.00,VWS V14.00,2013-11-14 03:56:00,
2013-11-13 20:57:00,40.5,29.7,31.21,SSE,148,0.0,0.0,65,0.00,,,0.01,0.00,VWS V14.00,2013-11-14 03:57:00,
2013-11-13 20:58:00,40.4,29.6,31.22,SSE,148,0.0,0.0,65,0.00,,,0.01,0.00,VWS V14.00,2013-11-14 03:58:00,
2013-11-13 20:59:00,40.4,29.6,31.22,SSE,148,0.0,0.0,65,0.00,,,0.01,0.00,VWS V14.00,2013-11-14 03:59:00,
2013-11-13 21:00:00,40.4,29.6,31.22,SSE,148,0.0,0.0,65,0.00,,,0.01,0.00,VWS V14.00,2013-11-14 04:00:00,
2013-11-13 21:01:00,40.4,29.6,31.22,SSE,148,0.0,0.0,65,0.00,,,0.01,0.00,VWS V14.00,2013-11-14 04:01:00,
2013-11-13 21:02:00,40.3,29.5,31.18,SSE,148,0.0,0.0,65,0.00,,,0.01,0.00,VWS V14.00,2013-11-14 04:02:00,
2013-11-13 21:03:00,40.3,29.5,31.18,SSE,148,0.0,0.0,65,0.00,,,0.01,0.00,VWS V14.00,2013-11-14 04:03:00,
2013-11-13 21:04:00,40.3,29.5,31.18,SSE,148,0.0,0.0,65,0.00,,,0.01,0.00,VWS V14.00,2013-11-14 04:04:00,
2013-11-13 21:05:00,40.2,29.8,31.18,SSE,148,0.0,0.0,66,0.00,,,0.01,0.00,VWS V14.00,2013-11-14 04:05:00,
2013-11-13 21:06:00,40.2,29.8,31.18,SSE,148,0.0,0.0,66,0.00,,,0.01,0.00,VWS V14.00,2013-11-14 04:06:00,
2013-11-13 21:07:00,40.1,29.3,31.18,SSE,148,0.0,0.0,65,0.00,,,0.01,0.00,VWS V14.00,2013-11-14 04:07:00,
2013-11-13 21:08:00,40.1,29.3,31.18,SSE,148,0.0,0.0,65,0.00,,,0.01,0.00,VWS V14.00,2013-11-14 04:08:00,
2013-11-13 21:09:00,40.0,29.2,31.18,SSE,148,0.0,0.0,65,0.00,,,0.01,0.00,VWS V14.00,2013-11-14 04:09:00,
2013-11-13 21:10:00,40.0,29.2,31.18,SSE,148,0.0,0.0,65,0.00,,,0.01,0.00,VWS V14.00,2013-11-14 04:10:00,
2013-11-13 21:11:00,40.0,29.2,31.18,SSE,148,0.0,0.0,65,0.00,,,0.01,0.00,VWS V14.00,2013-11-14 04:11:00,
2013-11-13 21:12:00,39.9,29.1,31.18,SSE,148,0.0,0.0,65,0.00,,,0.01,0.00,VWS V14.00,2013-11-14 04:12:00,
2013-11-13 21:13:00,39.9,29.1,31.17,SSE,148,0.0,0.0,65,0.00,,,0.01,0.00,VWS V14.00,2013-11-14 04:13:00,
2013-11-13 21:14:00,39.8,29.0,31.17,SSE,148,0.0,0.0,65,0.00,,,0.01,0.00,VWS V14.00,2013-11-14 04:14:00,
2013-11-13 21:15:00,39.8,29.0,31.17,SSE,148,0.0,0.0,65,0.00,,,0.01,0.00,VWS V14.00,2013-11-14 04:15:00,
2013-11-13 21:16:00,39.8,29.4,31.17,SSE,148,0.0,0.0,66,0.00,,,0.01,0.00,VWS V14.00,2013-11-14 04:16:00,
2013-11-13 21:17:00,39.7,29.3,31.17,SSE,148,0.0,0.0,66,0.00,,,0.01,0.00,VWS V14.00,2013-11-14 04:17:00,
2013-11-13 21:18:00,39.7,29.3,31.17,SSE,148,0.0,0.0,66,0.00,,,0.01,0.00,VWS V14.00,2013-11-14 04:18:00,
2013-11-13 21:19:00,39.6,29.2,31.18,SSE,148,0.0,0.0,66,0.00,,,0.01,0.00,VWS V14.00,2013-11-14 04:19:00,
2013-11-13 21:20:00,39.6,29.2,31.18,SSE,148,0.0,0.0,66,0.00,,,0.01,0.00,VWS V14.00,2013-11-14 04:20:00,
2013-11-13 21:21:00,39.6,29.2,31.17,SSE,148,0.0,0.0,66,0.00,,,0.01,0.00,VWS V14.00,2013-11-14 04:21:00,
2013-11-13 21:22:00,39.5,29.1,31.17,SSE,148,0.0,0.0,66,0.00,,,0.01,0.00,VWS V14.00,2013-11-14 04:22:00,
2013-11-13 21:23:00,39.5,29.1,31.17,SSE,148,0.0,0.0,66,0.00,,,0.01,0.00,VWS V14.00,2013-11-14 04:23:00,
2013-11-13 21:24:00,39.4,29.0,31.18,SSE,148,0.0,0.0,66,0.00,,,0.01,0.00,VWS V14.00,2013-11-14 04:24:00,
2013-11-13 21:25:00,39.4,29.0,31.18,SSE,148,0.0,0.0,66,0.00,,,0.01,0.00,VWS V14.00,2013-11-14 04:25:00,
2013-11-13 21:26:00,39.3,28.9,31.18,SSE,148,0.0,0.0,66,0.00,,,0.01,0.00,VWS V14.00,2013-11-14 04:26:00,
2013-11-13 21:27:00,39.2,28.8,31.18,SSE,148,0.0,0.0,66,0.00,,,0.01,0.00,VWS V14.00,2013-11-14 04:27:00,
2013-11-13 21:28:00,39.2,28.8,31.18,SSE,148,0.0,0.0,66,0.00,,,0.01,0.00,VWS V14.00,2013-11-14 04:28:00,
2013-11-13 21:29:00,39.1,28.7,31.18,SSE,148,0.0,0.0,66,0.00,,,0.01,0.00,VWS V14.00,2013-11-14 04:29:00,
2013-11-13 21:30:00,39.1,28.7,31.18,SSE,148,0.0,0.0,66,0.00,,,0.01,0.00,VWS V14.00,2013-11-14 04:30:00,
2013-11-13 21:31:00,39.0,29.0,31.18,SSE,148,0.0,0.0,67,0.00,,,0.01,0.00,VWS V14.00,2013-11-14 04:31:00,
2013-11-13 21:32:00,38.9,28.9,31.18,SSE,148,0.0,0.0,67,0.00,,,0.01,0.00,VWS V14.00,2013-11-14 04:32:00,
2013-11-13 21:33:00,38.9,28.9,31.18,SSE,148,0.0,0.0,67,0.00,,,0.01,0.00,VWS V14.00,2013-11-14 04:33:00,
2013-11-13 21:34:00,38.8,28.8,31.18,SSE,148,0.0,0.0,67,0.00,,,0.01,0.00,VWS V14.00,2013-11-14 04:34:00,
2013-11-13 21:35:00,38.7,28.7,31.18,SSE,148,0.0,0.0,67,0.00,,,0.01,0.00,VWS V14.00,2013-11-14 04:35:00,
2013-11-13 21:36:00,38.6,29.0,31.18,SSE,148,0.0,1.0,68,0.00,,,0.01,0.00,VWS V14.00,2013-11-14 04:36:00,
2013-11-13 21:37:00,38.6,29.0,31.18,SSE,148,0.0,1.0,68,0.00,,,0.01,0.00,VWS V14.00,2013-11-14 04:37:00,
2013-11-13 21:38:00,38.5,28.9,31.18,SSE,148,0.0,1.0,68,0.00,,,0.01,0.00,VWS V14.00,2013-11-14 04:38:00,
2013-11-13 21:39:00,38.4,28.8,31.18,SSE,148,0.0,1.0,68,0.00,,,0.01,0.00,VWS V14.00,2013-11-14 04:39:00,
2013-11-13 21:40:00,38.4,28.8,31.18,SSE,148,0.0,1.0,68,0.00,,,0.01,0.00,VWS V14.00,2013-11-14 04:40:00,
2013-11-13 21:41:00,38.3,28.7,31.18,SSE,148,0.0,1.0,68,0.00,,,0.01,0.00,VWS V14.00,2013-11-14 04:41:00,
2013-11-13 21:42:00,38.3,28.7,31.18,SSE,148,0.0,1.0,68,0.00,,,0.01,0.00,VWS V14.00,2013-11-14 04:42:00,
2013-11-13 21:43:00,38.3,28.7,31.18,SSE,148,0.0,1.0,68,0.00,,,0.01,0.00,VWS V14.00,2013-11-14 04:43:00,
2013-11-13 21:44:00,38.3,28.3,31.18,SSE,148,0.0,1.0,67,0.00,,,0.01,0.00,VWS V14.00,2013-11-14 04:44:00,
2013-11-13 21:45:00,38.3,28.3,31.18,SSE,148,0.0,1.0,67,0.00,,,0.01,0.00,VWS V14.00,2013-11-14 04:45:00,
2013-11-13 21:46:00,38.3,28.3,31.18,SSE,148,0.0,0.0,67,0.00,,,0.01,0.00,VWS V14.00,2013-11-14 04:46:00,
2013-11-13 21:47:00,38.3,28.3,31.18,SSE,148,0.0,0.0,67,0.00,,,0.01,0.00,VWS V14.00,2013-11-14 04:47:00,
2013-11-13 21:48:00,38.3,28.7,31.18,SSE,148,0.0,0.0,68,0.00,,,0.01,0.00,VWS V14.00,2013-11-14 04:48:00,
2013-11-13 21:49:00,38.3,28.3,31.18,SSE,148,0.0,0.0,67,0.00,,,0.01,0.00,VWS V14.00,2013-11-14 04:49:00,
2013-11-13 21:50:00,38.3,28.3,31.18,SSE,148,0.0,0.0,67,0.00,,,0.01,0.00,VWS V14.00,2013-11-14 04:50:00,
2013-11-13 21:51:00,38.3,28.3,31.18,SSE,148,0.0,0.0,67,0.00,,,0.01,0.00,VWS V14.00,2013-11-14 04:51:00,
2013-11-13 21:52:00,38.3,28.3,31.18,SSE,148,0.0,0.0,67,0.00,,,0.01,0.00,VWS V14.00,2013-11-14 04:52:00,
2013-11-13 21:53:00,38.3,28.3,31.18,SSE,148,0.0,0.0,67,0.00,,,0.01,0.00,VWS V14.00,2013-11-14 04:53:00,
2013-11-13 21:54:00,38.3,28.3,31.18,SSE,148,0.0,0.0,67,0.00,,,0.01,0.00,VWS V14.00,2013-11-14 04:54:00,
2013-11-13 21:55:00,38.4,28.4,31.18,SSE,148,0.0,0.0,67,0.00,,,0.01,0.00,VWS V14.00,2013-11-14 04:55:00,
2013-11-13 21:56:00,38.4,28.8,31.18,SSE,148,0.0,0.0,68,0.00,,,0.01,0.00,VWS V14.00,2013-11-14 04:56:00,
2013-11-13 21:57:00,38.4,28.8,31.18,SSE,148,0.0,0.0,68,0.00,,,0.01,0.00,VWS V14.00,2013-11-14 04:57:00,
2013-11-13 21:58:00,38.4,28.8,31.18,SSE,148,0.0,0.0,68,0.00,,,0.01,0.00,VWS V14.00,2013-11-14 04:58:00,
2013-11-13 21:59:00,38.4,28.8,31.18,SSE,148,0.0,0.0,68,0.00,,,0.01,0.00,VWS V14.00,2013-11-14 04:59:00,
2013-11-13 22:00:00,38.4,28.8,31.17,SSE,148,0.0,0.0,68,0.00,,,0.01,0.00,VWS V14.00,2013-11-14 05:00:00,
2013-11-13 22:01:00,38.4,28.4,31.17,SSE,148,0.0,0.0,67,0.00,,,0.01,0.00,VWS V14.00,2013-11-14 05:01:00,
2013-11-13 22:02:00,38.4,28.4,31.17,SSE,148,0.0,0.0,67,0.00,,,0.01,0.00,VWS V14.00,2013-11-14 05:02:00,
2013-11-13 22:03:00,38.4,28.4,31.17,SSE,148,0.0,0.0,67,0.00,,,0.01,0.00,VWS V14.00,2013-11-14 05:03:00,
2013-11-13 22:04:00,38.4,28.4,31.17,SSE,148,0.0,0.0,67,0.00,,,0.01,0.00,VWS V14.00,2013-11-14 05:04:00,
2013-11-13 22:05:00,38.3,28.3,31.17,SSE,148,0.0,0.0,67,0.00,,,0.01,0.00,VWS V14.00,2013-11-14 05:05:00,
2013-11-13 22:06:00,38.4,28.8,31.17,SSE,148,0.0,0.0,68,0.00,,,0.01,0.00,VWS V14.00,2013-11-14 05:06:00,
2013-11-13 22:07:00,38.3,28.7,31.16,SSE,148,0.0,0.0,68,0.00,,,0.01,0.00,VWS V14.00,2013-11-14 05:07:00,
2013-11-13 22:08:00,38.3,28.7,31.16,SSE,148,0.0,0.0,68,0.00,,,0.01,0.00,VWS V14.00,2013-11-14 05:08:00,
2013-11-13 22:09:00,38.3,28.7,31.17,SSE,148,0.0,0.0,68,0.00,,,0.01,0.00,VWS V14.00,2013-11-14 05:09:00,
2013-11-13 22:10:00,38.3,28.7,31.16,SSE,148,0.0,0.0,68,0.00,,,0.01,0.00,VWS V14.00,2013-11-14 05:10:00,
2013-11-13 22:11:00,38.3,28.7,31.16,SSE,148,0.0,0.0,68,0.00,,,0.01,0.00,VWS V14.00,2013-11-14 05:11:00,
2013-11-13 22:12:00,38.3,28.3,31.17,SSE,148,0.0,0.0,67,0.00,,,0.01,0.00,VWS V14.00,2013-11-14 05:12:00,
2013-11-13 22:13:00,38.3,28.3,31.17,SSE,148,0.0,0.0,67,0.00,,,0.01,0.00,VWS V14.00,2013-11-14 05:13:00,
2013-11-13 22:14:00,38.3,28.3,31.16,SSE,148,0.0,0.0,67,0.00,,,0.01,0.00,VWS V14.00,2013-11-14 05:14:00,
2013-11-13 22:15:00,38.3,28.3,31.16,SSE,148,0.0,0.0,67,0.00,,,0.01,0.00,VWS V14.00,2013-11-14 05:15:00,
2013-11-13 22:16:00,38.3,28.3,31.17,SSE,148,0.0,0.0,67,0.00,,,0.01,0.00,VWS V14.00,2013-11-14 05:16:00,
2013-11-13 22:17:00,38.3,28.3,31.17,SSE,148,0.0,0.0,67,0.00,,,0.01,0.00,VWS V14.00,2013-11-14 05:17:00,
2013-11-13 22:18:00,38.3,28.3,31.16,SSE,148,0.0,0.0,67,0.00,,,0.01,0.00,VWS V14.00,2013-11-14 05:18:00,
2013-11-13 22:19:00,38.3,28.3,31.16,SSE,148,0.0,0.0,67,0.00,,,0.01,0.00,VWS V14.00,2013-11-14 05:19:00,
2013-11-13 22:20:00,38.3,28.3,31.16,SSE,148,0.0,0.0,67,0.00,,,0.01,0.00,VWS V14.00,2013-11-14 05:20:00,
2013-11-13 22:21:00,38.3,28.3,31.16,SSE,148,0.0,0.0,67,0.00,,,0.01,0.00,VWS V14.00,2013-11-14 05:21:00,
2013-11-13 22:22:00,38.3,28.3,31.16,SSE,148,0.0,0.0,67,0.00,,,0.01,0.00,VWS V14.00,2013-11-14 05:22:00,
2013-11-13 22:23:00,38.3,28.3,31.16,SSE,148,0.0,0.0,67,0.00,,,0.01,0.00,VWS V14.00,2013-11-14 05:23:00,
2013-11-13 22:24:00,38.3,28.3,31.17,SSE,148,2.0,3.0,67,0.00,,,0.01,0.00,VWS V14.00,2013-11-14 05:24:00,
2013-11-13 22:25:00,38.3,28.3,31.16,SSE,148,1.0,3.0,67,0.00,,,0.01,0.00,VWS V14.00,2013-11-14 05:25:00,
2013-11-13 22:26:00,38.2,28.6,31.16,SSE,148,0.0,3.0,68,0.00,,,0.01,0.00,VWS V14.00,2013-11-14 05:26:00,
2013-11-13 22:27:00,38.1,28.5,31.16,SSE,148,0.0,3.0,68,0.00,,,0.01,0.00,VWS V14.00,2013-11-14 05:27:00,
2013-11-13 22:28:00,38.1,28.5,31.16,SSE,148,0.0,3.0,68,0.00,,,0.01,0.00,VWS V14.00,2013-11-14 05:28:00,
2013-11-13 22:29:00,38.0,28.4,31.16,SSE,148,0.0,3.0,68,0.00,,,0.01,0.00,VWS V14.00,2013-11-14 05:29:00,
2013-11-13 22:30:00,38.0,28.4,31.16,SSE,148,0.0,3.0,68,0.00,,,0.01,0.00,VWS V14.00,2013-11-14 05:30:00,
2013-11-13 22:31:00,37.9,28.3,31.16,SSE,148,0.0,0.0,68,0.00,,,0.01,0.00,VWS V14.00,2013-11-14 05:31:00,
2013-11-13 22:32:00,37.9,28.3,31.16,SSE,148,0.0,0.0,68,0.00,,,0.01,0.00,VWS V14.00,2013-11-14 05:32:00,
2013-11-13 22:33:00,37.8,28.2,31.16,SSE,148,0.0,0.0,68,0.00,,,0.01,0.00,VWS V14.00,2013-11-14 05:33:00,
2013-11-13 22:34:00,37.8,28.2,31.16,SSE,148,0.0,0.0,68,0.00,,,0.01,0.00,VWS V14.00,2013-11-14 05:34:00,
2013-11-13 22:35:00,37.8,28.2,31.16,SSE,148,0.0,0.0,68,0.00,,,0.01,0.00,VWS V14.00,2013-11-14 05:35:00,
2013-11-13 22:36:00,37.7,28.1,31.16,SSE,148,0.0,0.0,68,0.00,,,0.01,0.00,VWS V14.00,2013-11-14 05:36:00,
2013-11-13 22:37:00,37.7,28.1,31.16,SSE,148,0.0,0.0,68,0.00,,,0.01,0.00,VWS V14.00,2013-11-14 05:37:00,
2013-11-13 22:38:00,37.7,28.1,31.16,SSE,148,0.0,0.0,68,0.00,,,0.01,0.00,VWS V14.00,2013-11-14 05:38:00,
2013-11-13 22:39:00,37.7,28.1,31.16,SSE,148,0.0,0.0,68,0.00,,,0.01,0.00,VWS V14.00,2013-11-14 05:39:00,
2013-11-13 22:40:00,37.6,28.0,31.16,SSE,148,0.0,0.0,68,0.00,,,0.01,0.00,VWS V14.00,2013-11-14 05:40:00,
2013-11-13 22:41:00,37.6,28.4,31.16,SSE,148,0.0,0.0,69,0.00,,,0.01,0.00,VWS V14.00,2013-11-14 05:41:00,
2013-11-13 22:42:00,37.5,28.3,31.16,SSE,148,0.0,0.0,69,0.00,,,0.01,0.00,VWS V14.00,2013-11-14 05:42:00,
2013-11-13 22:43:00,37.4,28.2,31.16,SSE,148,0.0,0.0,69,0.00,,,0.01,0.00,VWS V14.00,2013-11-14 05:43:00,
2013-11-13 22:44:00,37.4,28.2,31.17,SSE,148,0.0,0.0,69,0.00,,,0.01,0.00,VWS V14.00,2013-11-14 05:44:00,
2013-11-13 22:45:00,37.3,28.1,31.17,SSE,148,0.0,0.0,69,0.00,,,0.01,0.00,VWS V14.00,2013-11-14 05:45:00,
2013-11-13 22:46:00,37.2,28.0,31.17,SSE,148,0.0,0.0,69,0.00,,,0.01,0.00,VWS V14.00,2013-11-14 05:46:00,
2013-11-13 22:47:00,37.2,28.0,31.17,SSE,148,0.0,0.0,69,0.00,,,0.01,0.00,VWS V14.00,2013-11-14 05:47:00,
2013-11-13 22:48:00,37.1,27.9,31.17,SSE,148,0.0,0.0,69,0.00,,,0.01,0.00,VWS V14.00,2013-11-14 05:48:00,
2013-11-13 22:49:00,37.1,27.9,31.17,SSE,148,0.0,0.0,69,0.00,,,0.01,0.00,VWS V14.00,2013-11-14 05:49:00,
2013-11-13 22:50:00,37.1,27.9,31.17,SSE,148,0.0,0.0,69,0.00,,,0.01,0.00,VWS V14.00,2013-11-14 05:50:00,
2013-11-13 22:51:00,37.1,27.9,31.17,SSE,148,0.0,0.0,69,0.00,,,0.01,0.00,VWS V14.00,2013-11-14 05:51:00,
2013-11-13 22:52:00,37.1,27.9,31.17,SSE,148,0.0,0.0,69,0.00,,,0.01,0.00,VWS V14.00,2013-11-14 05:52:00,
2013-11-13 22:53:00,37.1,27.9,31.17,SSE,148,0.0,0.0,69,0.00,,,0.01,0.00,VWS V14.00,2013-11-14 05:53:00,
2013-11-13 22:54:00,37.0,27.8,31.17,SSE,148,0.0,0.0,69,0.00,,,0.01,0.00,VWS V14.00,2013-11-14 05:54:00,
2013-11-13 22:55:00,37.0,27.8,31.16,SSE,148,0.0,0.0,69,0.00,,,0.01,0.00,VWS V14.00,2013-11-14 05:55:00,
2013-11-13 22:56:00,37.0,27.8,31.17,SSE,148,0.0,0.0,69,0.00,,,0.01,0.00,VWS V14.00,2013-11-14 05:56:00,
2013-11-13 22:57:00,36.9,28.0,31.16,SSE,148,0.0,0.0,70,0.00,,,0.01,0.00,VWS V14.00,2013-11-14 05:57:00,
2013-11-13 22:58:00,36.9,27.7,31.17,SSE,148,0.0,0.0,69,0.00,,,0.01,0.00,VWS V14.00,2013-11-14 05:58:00,
2013-11-13 22:59:00,36.8,27.6,31.17,SSE,148,0.0,0.0,69,0.00,,,0.01,0.00,VWS V14.00,2013-11-14 05:59:00,
2013-11-13 23:00:00,36.8,27.6,31.17,SSE,148,0.0,0.0,69,0.00,,,0.01,0.00,VWS V14.00,2013-11-14 06:00:00,
2013-11-13 23:01:00,36.8,27.6,31.17,SSE,148,0.0,0.0,69,0.00,,,0.01,0.00,VWS V14.00,2013-11-14 06:01:00,
2013-11-13 23:02:00,36.8,27.6,31.15,SSE,148,0.0,0.0,69,0.00,,,0.01,0.00,VWS V14.00,2013-11-14 06:02:00,
2013-11-13 23:03:00,36.7,27.5,31.15,SSE,148,0.0,0.0,69,0.00,,,0.01,0.00,VWS V14.00,2013-11-14 06:03:00,
2013-11-13 23:04:00,36.7,27.9,31.15,SSE,148,0.0,0.0,70,0.00,,,0.01,0.00,VWS V14.00,2013-11-14 06:04:00,
2013-11-13 23:05:00,36.7,27.9,31.15,SSE,148,0.0,0.0,70,0.00,,,0.01,0.00,VWS V14.00,2013-11-14 06:05:00,
2013-11-13 23:06:00,36.7,27.9,31.15,SSE,148,0.0,0.0,70,0.00,,,0.01,0.00,VWS V14.00,2013-11-14 06:06:00,
2013-11-13 23:07:00,36.6,27.8,31.15,SSE,148,0.0,0.0,70,0.00,,,0.01,0.00,VWS V14.00,2013-11-14 06:07:00,
2013-11-13 23:08:00,36.6,27.8,31.15,SSE,148,0.0,0.0,70,0.00,,,0.01,0.00,VWS V14.00,2013-11-14 06:08:00,
2013-11-13 23:09:00,36.6,27.8,31.15,SSE,148,0.0,0.0,70,0.00,,,0.01,0.00,VWS V14.00,2013-11-14 06:09:00,
2013-11-13 23:10:00,36.6,27.8,31.15,SSE,148,0.0,0.0,70,0.00,,,0.01,0.00,VWS V14.00,2013-11-14 06:10:00,
2013-11-13 23:11:00,36.6,27.8,31.15,SSE,148,0.0,0.0,70,0.00,,,0.01,0.00,VWS V14.00,2013-11-14 06:11:00,
2013-11-13 23:12:00,36.5,27.7,31.15,SSE,148,0.0,0.0,70,0.00,,,0.01,0.00,VWS V14.00,2013-11-14 06:12:00,
2013-11-13 23:13:00,36.5,28.0,31.15,SSE,148,0.0,0.0,71,0.00,,,0.01,0.00,VWS V14.00,2013-11-14 06:13:00,
2013-11-13 23:14:00,36.5,28.0,31.15,SSE,148,0.0,0.0,71,0.00,,,0.01,0.00,VWS V14.00,2013-11-14 06:14:00,
2013-11-13 23:15:00,36.5,27.7,31.15,SSE,148,0.0,0.0,70,0.00,,,0.01,0.00,VWS V14.00,2013-11-14 06:15:00,
2013-11-13 23:16:00,36.5,27.7,31.15,SSE,148,0.0,0.0,70,0.00,,,0.01,0.00,VWS V14.00,2013-11-14 06:16:00,
2013-11-13 23:17:00,36.5,27.7,31.15,SSE,148,0.0,0.0,70,0.00,,,0.01,0.00,VWS V14.00,2013-11-14 06:17:00,
2013-11-13 23:18:00,36.5,27.7,31.15,SSE,148,0.0,0.0,70,0.00,,,0.01,0.00,VWS V14.00,2013-11-14 06:18:00,
2013-11-13 23:19:00,36.6,27.8,31.14,SSE,148,0.0,0.0,70,0.00,,,0.01,0.00,VWS V14.00,2013-11-14 06:19:00,
2013-11-13 23:20:00,36.6,27.8,31.15,SSE,148,0.0,0.0,70,0.00,,,0.01,0.00,VWS V14.00,2013-11-14 06:20:00,
2013-11-13 23:21:00,36.6,27.4,31.14,SSE,148,0.0,0.0,69,0.00,,,0.01,0.00,VWS V14.00,2013-11-14 06:21:00,
2013-11-13 23:22:00,36.6,27.4,31.14,SSE,148,0.0,0.0,69,0.00,,,0.01,0.00,VWS V14.00,2013-11-14 06:22:00,
2013-11-13 23:23:00,36.6,27.8,31.14,SSE,148,0.0,0.0,70,0.00,,,0.01,0.00,VWS V14.00,2013-11-14 06:23:00,
2013-11-13 23:24:00,36.7,27.9,31.14,SSE,148,0.0,0.0,70,0.00,,,0.01,0.00,VWS V14.00,2013-11-14 06:24:00,
2013-11-13 23:25:00,36.8,28.3,31.14,SSE,148,0.0,0.0,71,0.00,,,0.01,0.00,VWS V14.00,2013-11-14 06:25:00,
2013-11-13 23:26:00,36.8,28.0,31.14,SSE,148,0.0,0.0,70,0.00,,,0.01,0.00,VWS V14.00,2013-11-14 06:26:00,
2013-11-13 23:27:00,36.8,28.3,31.14,SSE,148,0.0,0.0,71,0.00,,,0.01,0.00,VWS V14.00,2013-11-14 06:27:00,
2013-11-13 23:28:00,36.8,28.3,31.14,SSE,148,0.0,0.0,71,0.00,,,0.01,0.00,VWS V14.00,2013-11-14 06:28:00,
2013-11-13 23:29:00,36.8,28.0,31.14,SSE,148,0.0,0.0,70,0.00,,,0.01,0.00,VWS V14.00,2013-11-14 06:29:00,
2013-11-13 23:30:00,36.8,28.0,31.14,SSE,148,0.0,0.0,70,0.00,,,0.01,0.00,VWS V14.00,2013-11-14 06:30:00,
2013-11-13 23:31:00,36.8,28.0,31.14,SSE,148,0.0,0.0,70,0.00,,,0.01,0.00,VWS V14.00,2013-11-14 06:31:00,
2013-11-13 23:32:00,36.9,28.0,31.14,SSE,148,0.0,0.0,70,0.00,,,0.01,0.00,VWS V14.00,2013-11-14 06:32:00,
2013-11-13 23:33:00,36.9,28.0,31.14,SSE,148,0.0,0.0,70,0.00,,,0.01,0.00,VWS V14.00,2013-11-14 06:33:00,
2013-11-13 23:34:00,36.9,28.0,31.14,SSE,148,0.0,0.0,70,0.00,,,0.01,0.00,VWS V14.00,2013-11-14 06:34:00,
2013-11-13 23:35:00,36.9,28.0,31.14,SSE,148,0.0,0.0,70,0.00,,,0.01,0.00,VWS V14.00,2013-11-14 06:35:00,
2013-11-13 23:36:00,36.9,28.0,31.14,SSE,148,0.0,0.0,70,0.00,,,0.01,0.00,VWS V14.00,2013-11-14 06:36:00,
2013-11-13 23:37:00,36.9,28.0,31.14,SSE,148,0.0,0.0,70,0.00,,,0.01,0.00,VWS V14.00,2013-11-14 06:37:00,
2013-11-13 23:38:00,36.9,28.0,31.14,SSE,148,0.0,0.0,70,0.00,,,0.01,0.00,VWS V14.00,2013-11-14 06:38:00,
2013-11-13 23:39:00,36.9,28.4,31.14,SSE,148,0.0,0.0,71,0.00,,,0.01,0.00,VWS V14.00,2013-11-14 06:39:00,
2013-11-13 23:40:00,36.9,28.4,31.14,SSE,148,0.0,0.0,71,0.00,,,0.01,0.00,VWS V14.00,2013-11-14 06:40:00,
2013-11-13 23:41:00,36.9,28.4,31.14,SSE,148,0.0,0.0,71,0.00,,,0.01,0.00,VWS V14.00,2013-11-14 06:41:00,
2013-11-13 23:42:00,36.9,28.4,31.14,SSE,148,0.0,0.0,71,0.00,,,0.01,0.00,VWS V14.00,2013-11-14 06:42:00,
2013-11-13 23:43:00,36.9,28.4,31.14,SSE,148,0.0,0.0,71,0.00,,,0.01,0.00,VWS V14.00,2013-11-14 06:43:00,
2013-11-13 23:44:00,36.9,28.4,31.14,SSE,148,0.0,0.0,71,0.00,,,0.01,0.00,VWS V14.00,2013-11-14 06:44:00,
2013-11-13 23:45:00,37.0,28.5,31.14,SSE,148,0.0,0.0,71,0.00,,,0.01,0.00,VWS V14.00,2013-11-14 06:45:00,
2013-11-13 23:46:00,36.9,28.4,31.14,SSE,148,0.0,0.0,71,0.00,,,0.01,0.00,VWS V14.00,2013-11-14 06:46:00,
2013-11-13 23:47:00,37.0,28.5,31.14,SSE,148,0.0,0.0,71,0.00,,,0.01,0.00,VWS V14.00,2013-11-14 06:47:00,
2013-11-13 23:48:00,37.0,28.5,31.14,SSE,148,0.0,0.0,71,0.00,,,0.01,0.00,VWS V14.00,2013-11-14 06:48:00,
2013-11-13 23:49:00,37.0,28.8,31.14,SSE,148,1.0,2.0,72,0.00,,,0.01,0.00,VWS V14.00,2013-11-14 06:49:00,
2013-11-13 23:50:00,37.1,28.6,31.14,SSE,148,0.0,2.0,71,0.00,,,0.01,0.00,VWS V14.00,2013-11-14 06:50:00,
2013-11-13 23:51:00,37.1,28.6,31.14,SSE,148,0.0,2.0,71,0.00,,,0.01,0.00,VWS V14.00,2013-11-14 06:51:00,
2013-11-13 23:52:00,37.2,28.7,31.14,SSE,148,0.0,2.0,71,0.00,,,0.01,0.00,VWS V14.00,2013-11-14 06:52:00,
2013-11-13 23:53:00,37.2,29.0,31.14,SSE,148,0.0,2.0,72,0.00,,,0.01,0.00,VWS V14.00,2013-11-14 06:53:00,
2013-11-13 23:54:00,37.2,28.7,31.14,SSE,148,0.0,2.0,71,0.00,,,0.01,0.00,VWS V14.00,2013-11-14 06:54:00,
2013-11-13 23:55:00,37.3,28.8,31.14,SSE,148,0.0,2.0,71,0.00,,,0.01,0.00,VWS V14.00,2013-11-14 06:55:00,
2013-11-13 23:56:00,37.3,28.8,31.13,SSE,148,0.0,2.0,71,0.00,,,0.01,0.00,VWS V14.00,2013-11-14 06:56:00,
2013-11-13 23:57:00,37.3,28.8,31.13,SSE,148,0.0,2.0,71,0.00,,,0.01,0.00,VWS V14.00,2013-11-14 06:57:00,
2013-11-13 23:58:00,37.3,28.8,31.13,SSE,148,0.0,2.0,71,0.00,,,0.01,0.00,VWS V14.00,2013-11-14 06:58:00,
2013-11-13 23:59:00,37.3,28.8,31.13,SSE,148,0.0,2.0,71,0.00,,,0.01,0.00,VWS V14.00,2013-11-14 06:59:00,